[[{"header":{"parameterUnit":"m.s-1","parameterCategory":1,"la1":30.6,"la2":29.2853,"lo1":-89.7004,"lo2":-87.6739,"dy":0.0162,"dx":0.0183,"nx":112,"ny":82,"refTime":"2024-06-01T06:00:00:Z","depth":0,"parameterNumber":2,"parameterNumberName":"U-component_of_WINDS"},"data":[0.0,0.0,0.0,0.0,0.0,0.0,0.0,0.0,0.0,0.0,0.0,0.0,0.0,0.0,0.0,0.0,0.0,0.0,0.0,0.0,0.0,0.0,0.0,0.0,0.0,0.0,0.0,0.0,0.0,0.0,0.0,0.0,0.0,0.0,0.0,0.0,0.0,0.0,0.0,0.0,0.0,0.0,0.0,0.0,0.0,0.0,0.0,0.0,0.0,0.0,0.0,0.0,0.0,0.0,0.0,0.0,0.0,0.0,0.0,0.0,0.0,0.0,0.0,0.0,0.0,0.0,0.0,0.0,0.0,0.0,0.0,0.0,0.0,0.0,0.0,0.0,0.0,0.0,0.0,0.0,0.0,0.0,0.0,0.0,0.0,0.0,0.0,0.0,0.0,0.0,-4.0273,-4.4629,-4.8887,-5.1775,-5.2749,-5.0297,-4.6134,-4.0102,0.0,0.0,0.0,0.0,0.0,0.0,0.0,0.0,0.0,0.0,0.0,0.0,0.0,0.0,0.0,0.0,0.0,0.0,0.0,0.0,0.0,0.0,0.0,0.0,0.0,0.0,0.0,0.0,0.0,0.0,0.0,0.0,0.0,0.0,0.0,0.0,0.0,0.0,0.0,0.0,0.0,0.0,0.0,0.0,0.0,0.0,0.0,0.0,0.0,0.0,0.0,0.0,0.0,0.0,0.0,0.0,0.0,0.0,0.0,0.0,0.0,0.0,0.0,0.0,0.0,0.0,0.0,0.0,0.0,0.0,0.0,0.0,0.0,0.0,0.0,0.0,0.0,0.0,0.0,0.0,0.0,0.0,0.0,0.0,0.0,0.0,0.0,0.0,0.0,0.0,0.0,0.0,0.0,0.0,0.0,0.0,0.0,0.0,0.0,0.0,0.0,0.0,0.0,0.0,-4.1875,-5.043,-5.1367,-5.2051,-5.3651,-5.0666,-4.6409,-4.1026,0.0,0.0,0.0,0.0,0.0,0.0,0.0,0.0,0.0,0.0,0.0,0.0,0.0,0.0,0.0,0.0,0.0,0.0,0.0,0.0,0.0,0.0,0.0,0.0,0.0,0.0,0.0,0.0,0.0,0.0,0.0,0.0,0.0,0.0,0.0,0.0,0.0,0.0,0.0,0.0,0.0,0.0,0.0,0.0,0.0,0.0,0.0,0.0,0.0,0.0,0.0,0.0,0.0,0.0,0.0,0.0,0.0,0.0,0.0,0.0,0.0,0.0,0.0,0.0,0.0,0.0,0.0,0.0,0.0,0.0,0.0,0.0,0.0,0.0,0.0,0.0,0.0,0.0,0.0,0.0,0.0,0.0,0.0,0.0,0.0,0.0,0.0,0.0,0.0,0.0,0.0,0.0,0.0,0.0,0.0,0.0,0.0,0.0,0.0,0.0,0.0,0.0,0.0,-4.0371,-4.4082,-5.123,-5.1641,-5.1914,-5.3183,-5.0544,-4.6541,-4.1226,-3.7387,0.0,0.0,0.0,0.0,0.0,0.0,0.0,0.0,0.0,0.0,0.0,0.0,0.0,0.0,0.0,0.0,0.0,0.0,0.0,0.0,0.0,0.0,0.0,0.0,0.0,0.0,0.0,0.0,0.0,0.0,0.0,0.0,0.0,0.0,0.0,0.0,0.0,0.0,0.0,0.0,0.0,0.0,0.0,0.0,0.0,0.0,0.0,0.0,0.0,0.0,0.0,0.0,0.0,0.0,0.0,0.0,0.0,0.0,0.0,0.0,0.0,0.0,0.0,0.0,0.0,0.0,0.0,0.0,0.0,0.0,0.0,0.0,0.0,0.0,0.0,0.0,0.0,0.0,0.0,0.0,0.0,0.0,0.0,0.0,0.0,0.0,0.0,0.0,0.0,0.0,0.0,0.0,0.0,0.0,0.0,0.0,0.0,0.0,0.0,0.0,0.0,0.0,-4.418,-4.668,-5.1211,-5.1523,-5.168,-5.2344,-4.9687,-4.5873,-4.0952,-3.6887,0.0,0.0,0.0,0.0,0.0,0.0,0.0,0.0,0.0,0.0,0.0,0.0,0.0,0.0,0.0,0.0,0.0,0.0,0.0,0.0,0.0,0.0,0.0,0.0,0.0,0.0,0.0,0.0,0.0,0.0,0.0,0.0,0.0,0.0,0.0,0.0,0.0,0.0,0.0,0.0,0.0,0.0,0.0,0.0,0.0,0.0,0.0,0.0,0.0,0.0,0.0,0.0,0.0,0.0,0.0,0.0,0.0,0.0,0.0,0.0,0.0,0.0,0.0,0.0,0.0,0.0,0.0,0.0,0.0,0.0,0.0,0.0,0.0,0.0,0.0,0.0,0.0,0.0,0.0,0.0,0.0,0.0,0.0,0.0,0.0,0.0,0.0,0.0,0.0,0.0,0.0,0.0,0.0,0.0,0.0,0.0,0.0,0.0,0.0,0.0,0.0,0.0,-4.5566,-4.957,-5.2324,-5.1875,-5.1426,-5.1484,-4.7676,-4.3729,-4.0114,-3.5082,0.0,0.0,0.0,0.0,0.0,0.0,0.0,0.0,0.0,0.0,0.0,0.0,0.0,0.0,0.0,0.0,0.0,0.0,0.0,0.0,0.0,0.0,0.0,0.0,0.0,0.0,0.0,0.0,0.0,0.0,0.0,0.0,0.0,0.0,0.0,0.0,0.0,0.0,0.0,0.0,0.0,0.0,0.0,0.0,0.0,0.0,0.0,0.0,0.0,0.0,0.0,0.0,0.0,0.0,0.0,0.0,0.0,0.0,0.0,0.0,0.0,0.0,0.0,0.0,0.0,0.0,0.0,0.0,0.0,0.0,0.0,0.0,0.0,0.0,0.0,0.0,0.0,0.0,0.0,0.0,0.0,0.0,0.0,0.0,0.0,0.0,0.0,0.0,0.0,0.0,0.0,0.0,0.0,0.0,0.0,0.0,0.0,0.0,0.0,0.0,0.0,0.0,-4.4277,-4.7851,0.0,-5.1601,-5.1191,-5.0683,-4.8672,-4.5252,-4.0118,0.0,0.0,0.0,0.0,0.0,0.0,0.0,0.0,0.0,0.0,0.0,0.0,0.0,0.0,0.0,0.0,0.0,0.0,0.0,0.0,0.0,0.0,0.0,0.0,0.0,0.0,0.0,0.0,0.0,0.0,0.0,0.0,0.0,0.0,0.0,0.0,0.0,0.0,0.0,0.0,0.0,0.0,0.0,0.0,0.0,0.0,0.0,0.0,0.0,0.0,0.0,0.0,0.0,0.0,0.0,0.0,0.0,0.0,0.0,0.0,0.0,0.0,0.0,0.0,0.0,0.0,0.0,0.0,0.0,0.0,0.0,0.0,0.0,0.0,0.0,0.0,0.0,0.0,0.0,0.0,0.0,0.0,0.0,0.0,0.0,0.0,0.0,0.0,0.0,0.0,0.0,0.0,0.0,0.0,0.0,0.0,0.0,0.0,0.0,0.0,0.0,0.0,-4.0527,-4.4141,-4.7558,0.0,-5.1406,-5.0957,-4.9883,-4.8223,-4.4881,-3.9337,0.0,0.0,0.0,0.0,0.0,0.0,0.0,0.0,0.0,0.0,0.0,0.0,0.0,0.0,0.0,0.0,0.0,0.0,0.0,0.0,0.0,0.0,0.0,0.0,0.0,0.0,0.0,0.0,0.0,0.0,0.0,0.0,0.0,0.0,0.0,0.0,0.0,0.0,0.0,0.0,0.0,0.0,0.0,0.0,0.0,0.0,0.0,0.0,0.0,0.0,0.0,0.0,0.0,0.0,0.0,0.0,0.0,0.0,0.0,0.0,0.0,0.0,0.0,0.0,0.0,0.0,0.0,0.0,0.0,0.0,0.0,0.0,0.0,0.0,0.0,0.0,0.0,0.0,0.0,0.0,0.0,0.0,0.0,0.0,0.0,0.0,0.0,0.0,0.0,0.0,0.0,0.0,0.0,0.0,0.0,0.0,0.0,0.0,0.0,0.0,0.0,0.0,-4.0742,-4.5703,-4.9531,-5.1211,-5.1406,-5.0723,-4.9043,-4.5742,-4.1893,0.0,0.0,0.0,0.0,0.0,0.0,0.0,0.0,0.0,0.0,0.0,0.0,0.0,0.0,0.0,0.0,0.0,0.0,0.0,0.0,0.0,0.0,0.0,0.0,0.0,0.0,0.0,0.0,0.0,0.0,0.0,0.0,0.0,0.0,0.0,0.0,0.0,0.0,0.0,0.0,0.0,0.0,0.0,0.0,0.0,0.0,0.0,0.0,0.0,0.0,0.0,0.0,0.0,0.0,0.0,0.0,0.0,0.0,0.0,0.0,0.0,0.0,0.0,0.0,0.0,0.0,0.0,0.0,0.0,0.0,0.0,0.0,0.0,0.0,0.0,0.0,0.0,0.0,0.0,0.0,0.0,0.0,0.0,0.0,0.0,0.0,0.0,0.0,0.0,0.0,0.0,0.0,0.0,0.0,0.0,0.0,0.0,0.0,0.0,0.0,0.0,0.0,0.0,-4.0742,-4.5703,-4.9531,-5.1211,-5.1406,-5.0723,-4.9043,-4.7969,-4.4725,-3.8517,0.0,0.0,0.0,0.0,0.0,0.0,0.0,0.0,0.0,0.0,0.0,0.0,0.0,0.0,0.0,0.0,0.0,0.0,0.0,0.0,0.0,0.0,0.0,0.0,0.0,0.0,0.0,0.0,0.0,0.0,0.0,0.0,0.0,0.0,0.0,0.0,0.0,0.0,0.0,0.0,0.0,0.0,0.0,0.0,0.0,0.0,0.0,0.0,0.0,0.0,0.0,0.0,0.0,0.0,0.0,0.0,0.0,0.0,0.0,0.0,0.0,0.0,0.0,0.0,0.0,0.0,0.0,0.0,0.0,0.0,0.0,0.0,0.0,0.0,0.0,0.0,0.0,0.0,0.0,0.0,0.0,0.0,0.0,0.0,0.0,0.0,0.0,0.0,0.0,0.0,0.0,0.0,0.0,0.0,0.0,0.0,0.0,0.0,0.0,0.0,0.0,0.0,-4.0742,-4.5703,-4.9531,-5.1211,-5.1406,-5.0723,-4.9043,-4.8533,-4.5475,-3.8844,0.0,0.0,0.0,0.0,0.0,0.0,0.0,0.0,0.0,0.0,0.0,0.0,0.0,0.0,0.0,0.0,0.0,0.0,0.0,0.0,0.0,0.0,0.0,0.0,0.0,0.0,0.0,0.0,0.0,0.0,0.0,0.0,0.0,0.0,0.0,0.0,0.0,0.0,0.0,0.0,0.0,0.0,0.0,0.0,0.0,0.0,0.0,0.0,0.0,0.0,0.0,0.0,0.0,0.0,0.0,0.0,0.0,0.0,0.0,0.0,0.0,0.0,0.0,0.0,0.0,0.0,0.0,0.0,0.0,0.0,0.0,0.0,0.0,0.0,0.0,0.0,0.0,0.0,0.0,0.0,0.0,0.0,0.0,0.0,0.0,0.0,0.0,0.0,0.0,0.0,0.0,0.0,0.0,0.0,0.0,0.0,0.0,0.0,0.0,0.0,0.0,0.0,-4.0859,-4.5742,-4.9531,-5.1211,-5.1406,-5.0723,-4.9043,-4.8051,-4.4985,-3.9026,0.0,0.0,0.0,0.0,0.0,0.0,0.0,0.0,0.0,0.0,0.0,0.0,0.0,0.0,0.0,0.0,0.0,0.0,0.0,0.0,0.0,0.0,0.0,0.0,0.0,0.0,0.0,0.0,0.0,0.0,0.0,0.0,0.0,0.0,0.0,0.0,0.0,0.0,0.0,0.0,0.0,0.0,0.0,0.0,0.0,0.0,0.0,0.0,0.0,0.0,0.0,0.0,0.0,0.0,0.0,0.0,0.0,0.0,0.0,0.0,-3.1272,-2.9196,0.0,0.0,0.0,0.0,0.0,0.0,0.0,0.0,0.0,0.0,0.0,0.0,0.0,0.0,0.0,0.0,0.0,0.0,0.0,0.0,0.0,0.0,0.0,0.0,0.0,0.0,0.0,0.0,0.0,0.0,0.0,0.0,0.0,0.0,0.0,0.0,0.0,0.0,0.0,0.0,-4.1601,-4.6094,-4.9531,-5.1211,-5.1406,-5.0723,-4.9043,-4.8617,-4.6387,-4.1581,-3.8829,0.0,0.0,0.0,0.0,0.0,0.0,0.0,0.0,0.0,0.0,0.0,0.0,0.0,0.0,0.0,0.0,0.0,0.0,0.0,0.0,0.0,0.0,0.0,0.0,0.0,0.0,0.0,0.0,0.0,0.0,0.0,0.0,0.0,0.0,0.0,0.0,0.0,0.0,0.0,0.0,0.0,0.0,0.0,0.0,0.0,0.0,0.0,0.0,0.0,0.0,0.0,0.0,0.0,0.0,0.0,0.0,0.0,0.0,0.0,-3.5228,-3.3412,0.0,0.0,0.0,0.0,0.0,0.0,0.0,0.0,0.0,0.0,0.0,0.0,0.0,0.0,0.0,0.0,0.0,0.0,0.0,0.0,0.0,0.0,0.0,0.0,0.0,0.0,0.0,0.0,0.0,0.0,0.0,0.0,0.0,0.0,0.0,0.0,0.0,0.0,0.0,0.0,-4.1894,-4.6191,-4.9531,-5.1211,-5.1406,-5.0723,-4.9043,-4.8716,-4.693,-4.2969,-4.0211,0.0,0.0,0.0,0.0,0.0,0.0,0.0,0.0,0.0,0.0,0.0,0.0,0.0,0.0,0.0,0.0,0.0,0.0,0.0,0.0,0.0,0.0,0.0,0.0,0.0,0.0,0.0,0.0,0.0,0.0,0.0,0.0,0.0,0.0,0.0,0.0,0.0,0.0,0.0,0.0,0.0,0.0,0.0,0.0,0.0,0.0,0.0,0.0,0.0,0.0,0.0,0.0,0.0,-3.7643,-3.8347,-3.908,-3.9539,-4.0262,-4.1073,-3.962,-3.8437,-3.7305,-3.4975,0.0,0.0,0.0,0.0,0.0,0.0,0.0,0.0,0.0,0.0,0.0,0.0,0.0,0.0,0.0,0.0,0.0,0.0,0.0,0.0,0.0,0.0,-3.9508,-3.9354,-4.0604,-4.0823,-3.7207,0.0,0.0,0.0,0.0,0.0,0.0,0.0,0.0,0.0,0.0,0.0,-4.2577,-4.6464,-4.9531,-5.1211,-5.1406,-5.0723,-4.9043,-4.865,-4.7162,-4.4024,-4.1396,-3.895,0.0,0.0,0.0,0.0,0.0,0.0,0.0,0.0,0.0,0.0,0.0,0.0,0.0,0.0,0.0,0.0,0.0,0.0,0.0,0.0,0.0,0.0,0.0,0.0,0.0,0.0,0.0,0.0,0.0,0.0,0.0,0.0,-2.042,-2.2187,0.0,0.0,0.0,0.0,0.0,0.0,0.0,0.0,0.0,0.0,0.0,0.0,0.0,-3.6384,-3.706,-3.9328,-4.0378,-4.0233,-4.3441,-4.5061,-4.5265,-4.6292,-4.6958,-4.7304,-4.7068,0.0,-3.9343,-3.8116,0.0,0.0,0.0,0.0,0.0,0.0,0.0,0.0,0.0,0.0,0.0,0.0,0.0,0.0,0.0,0.0,0.0,0.0,0.0,0.0,0.0,0.0,-4.5547,-4.4786,-4.5874,-4.6759,-4.5509,-4.0654,-3.6411,-3.597,-3.4943,-3.3743,0.0,0.0,0.0,0.0,0.0,0.0,-4.4992,-4.7533,-4.9531,-5.1211,-5.1406,-5.0723,-4.9043,-4.865,-4.7668,-4.5689,-4.3704,-4.2104,-4.1,-3.7019,0.0,0.0,0.0,0.0,0.0,0.0,0.0,0.0,0.0,0.0,0.0,0.0,0.0,0.0,0.0,0.0,0.0,0.0,0.0,0.0,0.0,0.0,0.0,0.0,0.0,0.0,0.0,0.0,0.0,-2.0027,-2.3046,-2.371,-2.4794,-2.5344,0.0,0.0,0.0,0.0,0.0,0.0,0.0,0.0,0.0,-3.8238,-3.9142,-4.0364,-4.2046,-4.3414,-4.4268,-4.463,-4.6264,-4.7056,-4.7098,-4.7789,-4.8253,-4.8491,-4.8491,-4.7148,-4.4721,-4.2198,-4.01,-3.829,0.0,0.0,0.0,0.0,-3.7745,-3.8072,-4.0373,-4.0854,-4.0296,-3.9346,0.0,0.0,0.0,0.0,0.0,0.0,0.0,-4.0912,-4.1873,-4.4489,-4.6932,-4.699,-4.7567,-4.8009,-4.7663,-4.522,-4.2417,-4.0079,-3.91,-3.7613,-3.436,0.0,0.0,0.0,0.0,-4.2492,-4.579,-4.8151,-4.9991,-5.1269,-5.1406,-5.084,-4.9473,-4.8894,-4.7843,-4.6,-4.4627,-4.3481,-4.2566,-3.9815,-3.6892,0.0,0.0,0.0,0.0,0.0,0.0,0.0,0.0,0.0,0.0,0.0,0.0,0.0,0.0,0.0,0.0,0.0,0.0,0.0,0.0,0.0,0.0,0.0,0.0,0.0,0.0,0.0,0.0,-2.2891,-2.5502,-2.5363,-2.746,-2.849,0.0,0.0,0.0,0.0,0.0,0.0,-3.6699,-3.7777,-3.9392,-4.1728,-4.2643,-4.407,-4.61,-4.6456,-4.7064,-4.7934,-4.7934,-4.8082,-4.84,-4.8644,-4.891,-4.9168,-4.9168,-4.9187,-4.8984,-4.5713,-4.3586,-4.2211,-4.0581,-3.9931,-4.0123,-4.1604,-4.2143,-4.2527,-4.5287,-4.5817,-4.5066,-4.3816,-4.2681,-4.1343,-3.8834,0.0,0.0,0.0,0.0,-4.3451,-4.4893,-4.6394,-4.7702,-4.8298,-4.8606,-4.8779,-4.8779,-4.8586,-4.7449,-4.4133,-4.3322,-4.1861,-3.766,0.0,0.0,0.0,0.0,-4.4542,-4.6856,-4.8791,-5.0296,-5.1214,-5.1121,-5.0555,-4.948,-4.873,-4.7616,-4.5979,-4.5212,-4.4503,-4.3767,-4.2085,-3.9777,-3.6834,0.0,0.0,0.0,0.0,0.0,0.0,0.0,0.0,0.0,0.0,0.0,0.0,0.0,0.0,0.0,0.0,0.0,0.0,0.0,0.0,0.0,0.0,0.0,0.0,0.0,0.0,0.0,0.0,0.0,-2.7932,-3.1082,0.0,0.0,0.0,0.0,-3.5109,-3.6776,-3.8469,-4.0169,-4.1854,-4.3566,-4.5287,-4.6182,-4.6916,-4.7498,-4.7514,-4.7972,-4.8831,-4.8831,-4.9436,-5.0538,-5.0567,-5.0708,-5.0977,-5.0977,-5.0647,-4.996,-4.7863,-4.6958,-4.6756,-4.565,-4.5229,-4.5325,-4.624,-4.6577,-4.6721,-4.7644,-4.7952,-4.7894,-4.7817,-4.6682,-4.5306,-4.5133,-4.4528,0.0,0.0,-4.5913,-4.6827,-4.7702,-4.8586,-4.9279,-4.9317,-4.9971,-5.0577,-5.0577,-4.9913,-4.9029,0.0,-4.7229,-4.6119,-4.4144,0.0,-4.3313,-4.3798,-4.4253,-4.574,-4.9007,-4.966,-5.0145,-5.1011,-5.0358,-4.9526,-4.8645,-4.7769,-4.6858,-4.5861,-4.5764,-4.5662,-4.5488,-4.3855,-4.2104,-4.0285,-3.6187,0.0,0.0,0.0,0.0,0.0,0.0,0.0,0.0,0.0,0.0,0.0,0.0,0.0,0.0,0.0,0.0,0.0,0.0,0.0,0.0,0.0,0.0,0.0,0.0,0.0,0.0,0.0,0.0,-3.1515,-3.448,0.0,-3.543,-3.6577,-3.7751,-3.8642,-4.0315,-4.2008,-4.369,-4.4893,-4.6067,-4.7163,-4.7509,-4.802,-4.8748,-4.8767,-4.9189,-5.0052,-5.0589,-5.1053,-5.1491,-5.2049,-5.215,-5.1901,-5.247,-5.2363,-5.1738,-5.0842,-4.9527,-4.7981,-4.7418,-4.7201,-4.7259,-4.7567,-4.8029,-4.8548,-4.8836,-4.8933,-4.8836,-4.8279,-4.7702,-4.7201,-4.7201,-4.699,-4.6817,-4.7124,-4.7836,-4.8567,-4.8856,-4.9586,-5.025,-5.025,-5.0481,-5.0712,-5.0712,-5.0462,-5.0144,-4.9817,-4.8661,-4.7165,-4.543,-4.5849,-4.6167,-4.537,-4.6638,-4.8174,-4.9553,-5.0176,-5.0635,-5.0943,-5.0262,-4.9274,-4.7961,-4.744,-4.6557,-4.506,-4.4951,-4.4677,-4.4017,-4.3412,-4.2277,-4.0535,-3.7957,-3.4699,0.0,0.0,0.0,0.0,0.0,0.0,0.0,0.0,0.0,0.0,0.0,0.0,0.0,0.0,0.0,0.0,0.0,0.0,0.0,0.0,0.0,0.0,0.0,0.0,0.0,0.0,-3.321,-3.4412,-3.7603,-3.9431,-3.8646,-4.0049,-4.1208,-4.1747,-4.3393,-4.4874,-4.597,-4.6836,-4.7682,-4.8509,-4.8548,-4.9086,-5.024,-5.024,-5.0683,-5.1548,-5.2087,-5.2327,-5.2365,-5.2953,-5.302,-5.2781,-5.3346,-5.3416,-5.3124,-5.2847,-5.1741,-5.0135,-4.9291,-4.8971,-4.8971,-4.8971,-4.9336,-4.9827,-4.968,-4.9537,-4.9357,-4.8917,-4.8776,-4.8796,-4.8942,-4.8971,-4.8971,-4.8971,-4.9394,-4.9894,-5.0164,-5.0471,-5.077,-5.1029,-5.0894,-5.0712,-5.0712,-5.0712,-5.0712,-5.0712,-4.976,-4.8529,-4.7134,-4.7798,-4.8198,-4.7164,-4.8377,-4.9571,-5.0047,-5.0538,-5.0836,-5.083,-5.0132,-4.9123,-4.7811,-4.734,-4.6496,-4.4967,-4.4647,-4.4193,-4.3536,-4.297,-4.197,-4.0535,-3.8296,-3.5622,-3.2526,0.0,0.0,0.0,0.0,0.0,0.0,0.0,0.0,0.0,0.0,0.0,0.0,0.0,0.0,0.0,0.0,0.0,0.0,0.0,0.0,0.0,0.0,0.0,-2.9624,-3.3364,-3.6217,-3.6578,-4.0468,-4.247,-4.0823,-4.2893,-4.4355,-4.4374,-4.5951,-4.6923,-4.6981,-4.7721,-4.8548,-4.9413,-4.9452,-5.026,-5.1885,-5.1923,-5.2365,-5.3203,-5.3241,-5.3241,-5.3241,-5.327,-5.3404,-5.3643,-5.3667,-5.381,-5.4023,-5.3759,-5.3643,-5.3441,-5.152,-5.0789,-5.0789,-5.0789,-5.076,-5.0701,-5.0314,-4.9903,-4.9637,-5.0025,-5.0156,-5.0217,-5.0582,-5.0702,-5.0702,-5.0712,-5.0712,-5.0904,-5.1731,-5.1356,-5.0971,-5.175,-5.1356,-5.077,-5.075,-5.075,-5.0731,-5.0712,-5.0712,-5.0442,-4.9586,-4.9433,-4.9433,-4.9433,-4.9433,0.0,-5.0596,-5.0712,-5.0712,-5.0712,-4.9913,-4.9048,-4.8182,-4.7426,-4.6595,-4.5622,-4.4861,-4.4399,-4.4267,-4.2681,-4.1412,-4.0593,-3.7315,-3.5199,-3.4359,0.0,0.0,0.0,0.0,0.0,0.0,0.0,0.0,0.0,0.0,0.0,0.0,0.0,0.0,0.0,0.0,0.0,0.0,0.0,0.0,0.0,0.0,-3.2686,-3.3258,-3.5888,-3.862,-4.0978,-4.2868,-4.4028,-4.419,-4.4825,-4.549,-4.6144,-4.6644,-4.7432,-4.8644,-4.8913,-4.9433,-5.0327,-5.0914,-5.1423,-5.1904,-5.2519,-5.2972,-5.3222,-5.3837,-5.4145,-5.4175,-5.4842,-5.4931,-5.4577,-5.5311,-5.5376,-5.4921,-5.464,-5.4543,-5.4419,-5.3045,-5.251,-5.251,-5.251,-5.2335,-5.2059,-5.1954,-5.1621,-5.1262,-5.1366,-5.1414,-5.1329,-5.0835,-5.0692,-5.0759,-5.1042,-5.1132,-5.1389,-5.2555,-5.2683,-5.2568,-5.2799,-5.2664,-5.2337,-5.1722,-5.1568,-5.1395,-5.0808,-5.0712,-5.0616,-5.0385,-5.0346,-5.0346,-5.0346,-5.0346,0.0,-5.0673,-5.0712,-5.0712,-5.0712,-4.9913,-4.9048,-4.8182,-4.739,-4.6281,-4.4748,-4.3912,-4.3477,-4.3431,-4.2374,-4.1989,-4.2374,-3.9662,-3.8142,0.0,0.0,0.0,0.0,0.0,0.0,0.0,0.0,0.0,0.0,0.0,0.0,0.0,0.0,0.0,0.0,0.0,0.0,0.0,0.0,0.0,0.0,-3.3486,-3.6099,-3.7629,-3.9063,-4.0862,-4.3304,-4.4335,-4.5037,-4.5556,-4.5932,-4.6355,-4.6846,-4.7548,-4.8375,-4.9356,-5.0067,-5.0683,-5.1183,-5.201,-5.2615,-5.2991,-5.3491,-5.3914,-5.4241,-5.4761,-5.5034,-5.5104,-5.5644,-5.576,-5.5552,-5.6156,-5.619,-5.582,-5.5556,-5.5438,0.0,0.0,0.0,0.0,0.0,-5.2831,-5.2351,-5.2351,-5.1948,-5.146,-5.1591,-5.1656,-5.1595,-5.128,-5.1194,-5.1254,-5.1499,-5.1535,-5.1838,-5.313,-5.32,-5.308,-5.3614,-5.3472,-5.3068,-5.2538,-5.2154,-5.175,-5.1298,-5.0933,0.0,-5.0712,-5.0712,-5.0712,-5.0712,-5.0712,-5.0712,-5.0712,-5.0712,-5.0712,-5.0712,-5.025,-4.9586,-4.8721,-4.7875,0.0,0.0,0.0,-4.3297,-4.2585,-4.2066,0.0,0.0,0.0,0.0,0.0,0.0,0.0,0.0,-4.0296,-4.0054,0.0,0.0,0.0,0.0,0.0,0.0,0.0,0.0,0.0,0.0,0.0,0.0,0.0,0.0,0.0,0.0,-3.6978,-3.9295,-4.1863,-4.2351,-4.2943,-4.4292,-4.5133,-4.5633,-4.5748,-4.6451,-4.6981,-4.7182,-4.8567,-4.9471,-4.9663,0.0,0.0,0.0,0.0,-5.3722,-5.4491,-5.4587,-5.4991,-5.5703,-5.5716,-5.5779,-5.5904,-5.5951,-5.6119,-5.6391,-5.6419,-5.6488,-5.6581,-5.6313,-5.6175,-5.598,-5.4177,-5.3491,-5.3481,-5.343,-5.2927,-5.2277,-5.2231,0.0,0.0,-5.1417,-5.1509,-5.1562,-5.1825,-5.1901,-5.1917,-5.1964,-5.198,-5.2277,-5.3596,-5.3416,-5.3168,-5.437,-5.4049,-5.3472,-5.3376,-5.2741,-5.2154,-5.2077,-5.1395,-5.0846,-5.0846,-5.077,-5.0712,-5.0712,-5.0712,-5.0712,-5.0712,-5.0712,-5.0712,-5.0712,0.0,0.0,-4.9471,-4.8682,-4.7855,-4.6962,-4.5355,-4.3739,-4.2154,-4.2181,-4.2239,-4.2239,-4.2239,-4.3008,-4.4586,-4.4586,-4.5432,-4.6923,-4.2316,-4.1412,0.0,0.0,0.0,0.0,0.0,0.0,0.0,0.0,0.0,0.0,0.0,0.0,0.0,0.0,0.0,-3.5807,-3.878,-4.1407,-4.2869,-4.39,-4.473,-4.529,-4.5498,-4.5883,-4.6586,-4.6797,-4.7471,-4.8817,-4.9221,-4.999,-5.1327,-5.1712,-5.2212,-5.2933,-5.3799,-5.4337,-5.4491,-5.5145,-5.5549,-5.5714,0.0,0.0,-5.5912,-5.6173,-5.6342,-5.6414,-5.6514,-5.6581,-5.6581,-5.6313,-5.6037,-5.576,-5.536,-5.5222,-5.5182,-5.4853,-5.4415,-5.3965,-5.3579,-5.3141,-5.2747,-5.2815,-5.2837,-5.2747,-5.2147,-5.1984,0.0,-5.2378,-5.2466,-5.2823,-5.4429,-5.4726,-5.476,-5.533,-5.5338,-5.503,-5.4395,-5.4126,-5.3799,-5.3087,-5.226,-5.1673,-5.1673,-5.1125,-5.0712,-5.0712,-5.0712,-5.0712,-5.0712,-5.0712,-5.0712,-5.0712,-5.0712,-5.0346,-4.9471,-4.924,-4.8509,-4.7,-4.5913,-4.4902,-4.3855,-4.4489,-4.4883,-4.4883,-4.4883,-4.5374,-4.6413,-4.6413,-4.6913,-4.7836,-4.6201,-4.6047,0.0,0.0,0.0,0.0,0.0,0.0,0.0,0.0,0.0,0.0,0.0,-3.106,0.0,0.0,-3.6927,-3.8964,-4.1072,-4.2808,-4.3806,-4.4767,-4.541,-4.5577,-4.5594,-4.5932,-4.6817,-4.725,-4.8029,-4.9298,-4.9798,-5.0587,-5.1827,-5.2308,-5.2953,-5.3818,-5.4664,-5.5107,-5.5107,-5.5491,-5.5703,-5.5695,-5.5833,-5.5959,-5.6058,-5.6289,-5.6448,-5.649,-5.6561,-5.6601,-5.6581,-5.6313,-5.5993,-5.5673,-5.5489,-5.5399,-5.5387,-5.5173,-5.4716,-5.4118,-5.3869,-5.3545,-5.3185,-5.3185,-5.3185,-5.3112,-5.2729,-5.2601,-5.2645,-5.2834,-5.2895,-5.3124,-5.4173,-5.4621,-5.4909,-5.5306,-5.5535,-5.5588,-5.5184,-5.478,-5.4376,-5.3933,-5.3145,-5.2404,-5.1981,-5.1568,-5.1164,-5.077,-5.0712,-5.0712,-5.0712,-5.0712,-5.0712,-5.0712,-5.0712,-5.0519,-5.0087,-4.9644,-4.8682,-4.7,-4.649,-4.5855,-4.4998,-4.5364,-4.5806,-4.624,-4.624,-4.6663,-4.7509,-4.7509,-4.7932,-4.874,-4.8336,-4.8375,0.0,0.0,0.0,0.0,0.0,0.0,0.0,0.0,-2.8887,-3.0687,-3.2166,-3.3877,-3.6323,-3.7694,-3.9292,-4.1882,-4.3005,-4.3813,-4.4498,-4.5171,-4.5594,-4.5594,-4.5594,-4.599,-4.7028,-4.7721,-4.8529,-4.9567,-5.0308,-5.1125,-5.2096,-5.2818,-5.3664,-5.4703,-5.5357,-5.5703,-5.5703,-5.5703,-5.5703,-5.5695,-5.5877,-5.6045,-5.6216,-5.6371,-5.6508,-5.6601,-5.6601,-5.6561,-5.6511,-5.6297,-5.5993,-5.5662,-5.5269,-5.5048,-5.4979,-5.4876,-5.4398,-5.3796,-5.3702,-5.3464,-5.3185,-5.3185,-5.3185,-5.3185,-5.3185,-5.3185,-5.3185,-5.3185,-5.3185,-5.3295,-5.3683,-5.4083,-5.4468,-5.4876,-5.5224,-5.5477,-5.5477,-5.496,-5.453,-5.4606,-5.3906,-5.311,-5.2509,-5.2115,-5.1625,-5.0827,-5.0712,-5.0712,-5.0712,-5.0712,-5.0712,-5.0712,-5.0712,-5.0712,-5.0712,-4.9894,-4.8817,-4.7471,-4.724,-4.6817,-4.6114,-4.6095,-4.6413,-4.7115,-4.7135,-4.7548,-4.8355,-4.8355,-4.8798,-4.9663,-4.9817,-4.9894,-2.3796,-2.432,-2.5216,-2.6632,-2.7279,-2.8693,0.0,0.0,-3.3597,-3.5811,-3.7329,-3.8308,-3.8419,-4.0267,-4.1882,-4.2249,-4.3509,-4.4498,-4.4593,-4.5171,-4.5594,-4.5594,-4.5594,-4.622,-4.7817,-4.8048,-4.8779,-5.0442,-5.0635,-5.1395,-5.2972,-5.3145,-5.3933,-5.5511,-5.5645,-5.5703,-5.5703,-5.5703,-5.5703,-5.5695,-5.6015,-5.6175,-5.6202,-5.646,-5.6582,-5.6601,-5.6601,-5.646,-5.6237,-5.6207,-5.5993,-5.5662,-5.5269,-5.4876,-5.4516,-5.4101,-5.3887,-5.374,-5.3381,-5.3248,-5.3185,-5.3185,-5.3185,-5.3185,-5.3185,-5.3185,-5.3185,-5.3185,-5.3185,-5.3295,-5.3683,-5.3851,-5.3995,-5.4452,-5.4594,-5.4625,-5.4625,-5.4568,-5.4617,-5.4955,-5.4339,-5.3835,-5.4161,-5.2933,-5.1625,-5.0827,-5.0712,-5.0712,-5.0712,-5.0712,-5.0712,-5.0712,-5.0712,-5.0712,-5.0712,-4.9894,-4.9317,-4.9125,-4.8394,-4.7932,-4.7817,-4.7817,-4.7875,-4.7971,-4.7971,-4.8394,-4.924,-4.924,-4.9702,-5.0577,-5.1298,-5.1615,-2.6654,-2.7431,-2.8279,0.0,-3.0531,-3.2137,-3.4254,-3.4604,-3.5053,-3.7137,-3.7888,-3.8556,-3.9861,-4.0912,-4.1919,0.0,-4.3901,-4.4593,-4.4593,-4.5171,-4.5594,-4.5594,-4.5594,-4.6259,-4.7952,-4.8105,-4.8817,-5.0577,-5.0712,-5.1433,-5.3106,-5.3203,-5.3972,-5.5645,-5.5703,-5.5703,-5.5703,-5.5703,-5.5748,-5.5816,-5.6084,-5.6232,-5.632,-5.6514,-5.6601,-5.6601,-5.6601,-5.6454,-5.6191,-5.6191,-5.5993,-5.564,-5.5007,-5.4659,-5.4436,-5.3959,-5.3663,-5.3442,-5.3251,-5.3185,-5.3185,-5.3185,-5.3185,-5.3185,-5.3185,-5.3185,-5.3185,-5.3185,-5.3185,-5.3248,-5.3402,-5.3624,-5.3851,-5.4048,-5.4305,-5.4503,-5.4503,-5.4503,-5.455,-5.4735,-5.4446,-5.4126,-5.3791,-5.3139,-5.2378,-5.1522,-5.1001,-5.0712,-5.0712,-5.0712,-5.0712,-5.0712,-5.0712,-5.0712,-5.0712,-5.0366,-4.9933,-4.9433,-4.9067,-4.8625,-4.8125,-4.8105,-4.8336,-4.8856,-4.8856,-4.9279,-5.0173,-5.0173,-5.0587,-5.1414,-5.1731,-5.2442,-2.8179,-2.933,0.0,-3.1242,-3.3069,-3.4775,-3.5315,-3.5634,-3.6256,-3.7883,-3.82,-3.8704,-4.0451,-4.1132,-4.1842,-4.3096,-4.403,-4.4618,-4.472,-4.5243,-4.5594,-4.5594,-4.5594,-4.6163,-4.7625,-4.7971,-4.8721,-5.0231,-5.0558,-5.1433,-5.3106,-5.3203,-5.3972,-5.5645,-5.5703,-5.5703,-5.5703,-5.5703,-5.576,-5.5904,-5.6097,-5.6279,-5.6391,-5.6538,-5.6601,-5.6601,-5.6601,-5.6454,-5.6191,-5.6191,-5.5936,-5.5477,-5.476,-5.4404,-5.4238,-5.3796,-5.3444,-5.3185,-5.3185,-5.3185,-5.3185,-5.3185,-5.3185,-5.3185,-5.3185,-5.3185,-5.3185,-5.3185,-5.3185,-5.3185,-5.3185,-5.3422,-5.3624,-5.3624,-5.3888,-5.4137,-5.4137,-5.4137,-5.4171,-5.429,-5.4305,-5.415,-5.3644,-5.3359,-5.3,-5.2344,-5.156,-5.0993,-5.0888,-5.0778,-5.0712,-5.0712,-5.0712,-5.0712,-5.0712,-5.0712,-5.0442,-4.9798,-4.976,-4.9471,-4.8836,-4.8817,-4.9106,-4.974,-4.976,-5.0067,-5.0712,-5.0914,-5.1337,-5.1904,-5.2385,-5.3299,-2.7587,0.0,-3.1186,-3.2519,-3.4319,-3.6107,-3.748,-3.78,-3.8053,-3.8894,-3.9472,-3.9845,-3.9918,-4.1203,-4.2398,-4.2765,-4.382,-4.4707,-4.5041,-4.5371,-4.5594,-4.5594,-4.5594,-4.5951,0.0,-4.7644,-4.8471,-4.9375,-5.0221,-5.1433,-5.3106,-5.3203,-5.3972,-5.5645,-5.5703,-5.5703,-5.5703,-5.5703,-5.576,-5.5904,-5.6097,-5.6279,-5.6391,-5.6538,-5.6601,-5.6601,-5.6601,-5.6454,-5.6191,-5.6191,-5.5769,-5.5075,-5.4655,-5.4221,-5.3758,-5.338,-5.3206,-5.3185,-5.3185,-5.3185,-5.3185,-5.3185,-5.3185,-5.3185,-5.3185,-5.3185,-5.3185,-5.3185,-5.3185,-5.3185,-5.3185,-5.3206,-5.3227,-5.3227,-5.3227,-5.3248,-5.3248,-5.3248,-5.3359,-5.3758,-5.3833,-5.3959,-5.4401,-5.377,-5.3189,-5.317,-5.2431,-5.1731,-5.1339,-5.093,-5.0712,-5.0712,-5.0712,-5.0712,-5.0712,-5.0712,-5.0693,-5.0654,-5.0654,-5.0654,-5.0616,-5.0616,-5.0635,-5.0654,-5.0654,-5.0673,-5.0712,-5.1491,-5.1885,-5.1942,-5.3626,-5.4453,-3.0024,0.0,-3.2705,-3.4668,-3.6043,-3.7183,-3.8194,-3.8442,-3.8354,-3.8087,-3.8169,-3.8375,-3.8539,-3.9448,-4.0649,-4.204,-4.3271,-4.4308,-4.5009,-4.54,-4.5594,-4.5594,-4.5594,0.0,0.0,0.0,0.0,-4.9298,-5.0212,-5.1433,-5.3106,-5.376,-5.4568,-5.5665,-5.5703,-5.5739,-5.5824,-5.5824,-5.5966,-5.6236,-5.6391,-5.6488,-5.6537,-5.6581,-5.6601,-5.6601,-5.6601,-5.6454,-5.6191,-5.6191,-5.5769,-5.5061,-5.4674,-5.4204,-5.374,-5.3339,-5.3185,-5.3185,-5.3185,-5.3185,-5.3185,-5.3185,-5.3185,-5.3185,-5.3185,-5.3185,-5.3185,-5.3185,-5.3185,-5.3185,-5.3185,-5.3185,-5.3185,-5.3185,-5.3185,-5.3185,-5.3185,-5.3185,-5.323,-5.338,-5.3402,-5.3462,-5.3603,-5.34,-5.303,-5.2474,-5.1651,-5.1154,-5.1275,-5.071,-5.041,-5.0673,-5.0712,-5.0712,-5.0712,-5.0712,-5.0712,-5.0712,-5.0712,-5.0712,-5.0712,-5.0712,-5.0712,-5.0712,-5.0712,-5.0952,-5.151,-5.1769,-5.2481,-5.3645,-5.4222,-5.478,-3.1854,-3.3082,-3.4151,-3.6217,-3.7327,-3.8065,-3.8579,-3.8487,-3.8028,-3.7235,-3.69,-3.6819,-3.7023,-3.7766,-3.9096,-4.138,-4.265,-4.3783,-4.51,-4.5457,-4.5729,-4.6028,-4.6067,-4.6198,0.0,0.0,0.0,-4.8932,-5.0307,-5.1761,-5.3195,-5.4042,-5.4876,-5.5665,-5.5739,-5.5807,-5.5896,-5.5974,-5.6131,-5.6391,-5.6537,-5.6601,-5.6601,-5.6601,-5.6601,-5.6601,-5.6559,-5.6394,-5.6191,-5.6115,-5.5615,-5.4867,-5.4613,-5.4137,-5.3546,-5.3314,-5.3185,-5.3185,-5.3185,-5.3185,-5.3185,-5.3185,-5.3185,-5.3185,-5.3185,-5.3185,-5.3185,-5.3185,-5.3185,-5.3185,-5.3185,-5.3185,-5.3185,-5.3185,-5.3185,-5.3185,-5.3185,-5.3185,-5.3185,-5.3185,-5.3185,-5.3185,-5.3185,-5.3185,-5.3023,-5.2509,-5.1714,-5.1147,-5.1095,-5.0767,-5.0574,-5.0702,-5.0712,-5.0712,-5.0712,-5.0712,-5.0712,-5.0712,-5.0712,-5.0712,-5.0712,-5.0712,-5.0712,-5.0712,-5.0971,-5.1375,-5.1904,-5.2519,-5.3395,-5.4511,-5.478,-5.5203,-3.3061,-3.4296,-3.5518,-3.7162,-3.8138,-3.8689,-3.8652,-3.801,-3.718,-3.6299,-3.5636,-3.5206,0.0,0.0,-3.7821,-4.0672,-4.1932,-4.3244,-4.5327,-4.565,-4.5977,0.0,0.0,0.0,0.0,0.0,0.0,-4.8444,0.0,-5.2356,-5.3352,-5.414,-5.4916,-5.5686,-5.5824,-5.5912,-5.5928,-5.6121,-5.6273,-5.6416,-5.6538,-5.6601,-5.6601,-5.6601,-5.6601,-5.6582,-5.6456,-5.6324,-5.6181,-5.5988,-5.5346,-5.4503,-5.4503,-5.3979,-5.3185,-5.3185,-5.3185,-5.3185,-5.3185,-5.3185,-5.3185,-5.3185,-5.3185,-5.3185,-5.3185,-5.3185,-5.3185,-5.3185,-5.3185,-5.3185,-5.3185,-5.3185,-5.3185,-5.3185,-5.3185,-5.3185,-5.3185,-5.3185,-5.3185,-5.3185,-5.3185,-5.3185,-5.3185,-5.3185,-5.3185,-5.3185,-5.2546,-5.1747,-5.0902,-5.1114,-5.1188,-5.0768,-5.076,-5.075,-5.0712,-5.0712,-5.0712,-5.0712,-5.0712,-5.0731,-5.077,-5.077,-5.0789,-5.0827,-5.1587,-5.1981,-5.2038,-5.3683,-5.4511,-5.4587,-5.5338,-5.5703,-3.5499,-3.649,-3.711,-3.8138,-3.856,-3.8542,-3.7951,-3.7165,-3.6066,-3.4153,-3.3178,-3.2396,0.0,0.0,0.0,-3.8487,-4.1149,0.0,-4.5474,-4.6303,0.0,-4.7095,0.0,-4.8183,-4.8433,-4.9036,0.0,0.0,-5.156,-5.2557,-5.3367,-5.4763,-5.5638,-5.5831,-5.5872,-5.6025,-5.6262,-5.6426,-5.6514,-5.6559,-5.6582,-5.6601,-5.6601,-5.6601,-5.6601,-5.6582,-5.6456,-5.6324,-5.6181,-5.5988,-5.5346,-5.4503,-5.4503,-5.3979,-5.3185,-5.3185,-5.3185,-5.3185,-5.3185,-5.3185,-5.3185,-5.3185,-5.3185,-5.3185,-5.3185,-5.3185,-5.3185,-5.3185,-5.3185,-5.3185,-5.3185,-5.3185,-5.3185,-5.3185,-5.3185,-5.3185,-5.3185,-5.3185,-5.3185,-5.3185,-5.3185,-5.3185,-5.3185,-5.3185,-5.3185,-5.3185,-5.3041,-5.2698,-5.2098,-5.1908,-5.1659,-5.1195,-5.1414,-5.1356,-5.075,-5.0712,-5.0712,-5.0712,-5.0712,-5.0971,-5.1568,-5.1587,-5.1895,-5.2549,-5.276,-5.3203,-5.3837,-5.428,-5.4799,-5.5395,-5.5588,-5.5703,-3.7162,-3.7903,-3.8282,-3.8624,-3.8707,-3.8303,-3.6743,-3.5771,-3.4462,-3.1862,-3.0754,0.0,-2.9574,-3.1744,0.0,0.0,0.0,0.0,-4.5501,-4.6596,-4.7309,0.0,-4.8539,0.0,-4.9639,-5.0481,-5.1238,0.0,-5.2515,-5.3248,-5.4097,-5.5333,-5.6031,-5.6031,-5.6083,-5.6245,-5.6486,-5.656,-5.6601,-5.6601,-5.6601,-5.6601,-5.6601,-5.6601,-5.6816,-5.7148,-5.6564,-5.6474,-5.6686,-5.607,-5.5408,-5.475,-5.4582,-5.4086,-5.3444,-5.3272,-5.3185,-5.3185,-5.3185,-5.3316,-5.3464,-5.3464,-5.3339,-5.323,-5.3402,-5.3339,-5.3185,-5.3185,-5.3336,-5.3422,-5.3248,-5.3336,-5.3422,-5.323,-5.3185,-5.3185,-5.3185,-5.3185,-5.3185,-5.3185,-5.3185,-5.3185,-5.3185,-5.3185,-5.3185,-5.3185,-5.3185,-5.3109,-5.2838,-5.2451,-5.214,-5.1903,-5.2069,-5.2094,-5.1827,-5.1798,-5.1798,-5.1798,-5.1798,-5.1991,-5.2442,-5.2462,-5.2692,-5.3203,-5.3587,-5.401,-5.4491,-5.4857,-5.5261,-5.5703,-5.5703,-5.5703,-3.851,-3.8895,-3.9068,-3.8947,-3.8735,-3.7918,-3.5536,-3.4197,-3.2654,-2.9784,0.0,-2.8129,-2.8303,-3.0081,-3.2929,-3.7161,0.0,-4.1932,-4.5425,-4.6785,-4.7689,-4.8456,-4.9418,-5.0329,-5.1152,-5.2015,-5.2619,-5.2851,-5.3457,-5.4196,-5.5056,-5.5825,-5.6237,-5.6237,-5.6365,-5.6484,-5.6601,-5.6601,-5.6601,-5.6601,-5.6601,-5.6601,-5.6601,-5.6719,-5.7129,-5.7675,-5.6769,-5.6683,-5.7153,-5.6125,-5.5446,-5.508,-5.472,-5.4255,-5.3758,-5.3402,-5.3248,-5.3206,-5.3251,-5.3505,-5.3796,-5.3796,-5.3604,-5.3422,-5.3796,-5.3643,-5.3359,-5.3359,-5.3565,-5.3739,-5.3442,-5.3603,-5.372,-5.3359,-5.3293,-5.3272,-5.3206,-5.3185,-5.3185,-5.3185,-5.3185,-5.3185,-5.3185,-5.3185,-5.3185,-5.3185,-5.3185,-5.3185,-5.3185,-5.2897,-5.2643,-5.2598,-5.269,-5.2862,-5.3099,-5.3182,-5.3203,-5.3203,-5.3203,-5.326,-5.3376,-5.3376,-5.3414,-5.353,-5.426,-5.4664,-5.4664,-5.5357,-5.5703,-5.5703,-5.5703,-5.5761,-4.0375,-3.9953,-3.9266,-3.9937,-3.8902,-3.7221,-3.5408,-3.3348,0.0,0.0,-2.7416,-2.6306,-2.5962,-2.855,-3.1883,-3.5466,0.0,0.0,0.0,0.0,-4.8535,0.0,0.0,0.0,0.0,-5.2147,0.0,0.0,-5.4548,-5.5023,-5.5101,-5.5909,-5.6371,-5.6371,-5.6508,-5.6581,-5.6601,-5.6601,-5.6601,-5.6601,-5.6601,-5.6601,-5.6621,-5.7344,-5.7363,-5.6835,-5.7081,0.0,-5.6364,-5.5913,-5.5446,-5.5088,-5.5021,-5.4513,-5.3796,-5.372,-5.3484,-5.3251,-5.3585,-5.374,-5.3796,-5.3796,-5.4032,-5.429,-5.4373,-5.434,-5.4274,-5.4274,-5.4049,-5.3869,-5.4189,-5.4049,-5.3777,-5.372,-5.3683,-5.3586,-5.3272,-5.3185,-5.3185,-5.3185,-5.3185,-5.3185,-5.3185,-5.3185,-5.3185,-5.3185,-5.3185,-5.3185,-5.3185,-5.3435,-5.3292,-5.2576,-5.3156,-5.3353,-5.2748,-5.3015,-5.3203,-5.3203,-5.3203,-5.353,-5.4241,-5.426,-5.4587,-5.5241,-5.5415,-5.5491,-5.5491,-5.5626,-5.5703,-5.5703,-5.5703,-5.6088,-4.0883,-4.0651,-4.0051,-4.0336,-3.9256,-3.7239,-3.3899,0.0,0.0,0.0,-2.5974,-2.5438,-2.5325,0.0,0.0,0.0,0.0,0.0,0.0,0.0,0.0,0.0,0.0,0.0,0.0,0.0,-5.373,-5.4609,-5.5488,-5.5956,-5.5886,-5.6276,-5.6492,-5.6492,-5.6561,-5.6601,-5.6601,-5.6601,-5.6601,-5.6601,-5.6601,-5.6601,-5.6601,-5.7031,-5.7246,-5.7265,-5.6925,-5.6781,-5.6778,-5.6009,-5.5588,-5.5399,-5.5186,-5.4829,-5.4414,-5.3977,-5.3682,-5.3505,-5.3485,-5.3777,-5.417,-5.417,-5.4305,-5.455,-5.4745,-5.4674,-5.4503,-5.4503,-5.45,-5.4481,-5.4503,-5.45,-5.435,-5.3905,-5.3796,-5.3758,-5.3546,-5.3701,-5.3796,-5.3564,-5.3505,-5.3505,-5.3505,-5.3357,-5.3185,-5.3185,-5.3185,-5.3185,-5.3185,-5.338,-5.3417,-5.32,-5.3549,-5.3815,-5.3905,-5.4084,-5.4288,-5.4481,-5.4491,-5.4684,-5.5107,-5.5126,-5.5299,-5.5684,-5.5703,-5.5703,-5.5703,-5.5703,-5.5703,-5.5703,-5.6175,-5.6599,-4.0796,-4.1026,-4.0868,-4.0647,-3.9625,-3.7433,-3.2803,-3.1021,0.0,0.0,-2.5037,-2.5052,-2.5264,0.0,-2.9615,0.0,-3.4628,0.0,0.0,0.0,0.0,0.0,0.0,0.0,0.0,0.0,0.0,-5.494,-5.5996,-5.6601,-5.6601,-5.6601,-5.6601,-5.6601,-5.6601,-5.6601,-5.6601,-5.6601,-5.6601,-5.6601,-5.6601,-5.6601,-5.6601,-5.6797,-5.7148,-5.7578,-5.6808,-5.6722,-5.707,-5.6106,-5.5703,-5.5662,-5.5343,-5.5173,-5.5021,-5.4317,-5.3959,-5.3758,-5.3545,-5.3925,-5.45,-5.4613,-5.4705,-5.4823,-5.5134,-5.5007,-5.4764,-5.4764,-5.4924,-5.5048,-5.4823,-5.4938,-5.4919,-5.4234,-5.3994,-5.3941,-5.3941,-5.4238,-5.4387,-5.4013,-5.3941,-5.3924,-5.3814,-5.3545,-5.3295,-5.3206,-5.3185,-5.3185,-5.3185,-5.3185,-5.3316,-5.3644,-5.3758,-5.4117,-5.489,-5.5048,-5.5282,-5.5673,-5.5703,-5.5703,-5.5703,-5.5703,-5.5703,-5.5703,-5.5703,-5.5703,-5.5703,-5.5703,-5.5799,-5.5992,-5.6676,-5.7195,-4.0338,-4.0909,-4.1253,-4.1222,-3.9813,-3.7457,-3.3781,0.0,0.0,-2.6437,-2.5422,-2.5052,-2.5264,-2.6237,0.0,0.0,0.0,-3.7519,0.0,0.0,0.0,0.0,0.0,0.0,0.0,0.0,0.0,-5.3932,-5.5581,-5.6601,-5.6601,-5.6601,-5.6601,-5.6601,-5.6601,-5.6601,-5.6601,-5.6601,-5.6601,-5.6601,-5.6601,-5.6601,-5.6621,-5.7422,-5.7383,-5.6738,-5.712,-5.6917,0.0,-5.5865,-5.5703,-5.5703,-5.5662,-5.5423,-5.5088,-5.5021,-5.4478,-5.3869,-5.4257,-5.4439,-5.4566,-5.4938,-5.5294,-5.5599,-5.564,-5.561,-5.5588,-5.5588,-5.5343,-5.5173,-5.5501,-5.5363,-5.5075,-5.5007,-5.4701,-5.4439,-5.4439,-5.4471,-5.4487,-5.4436,-5.4439,-5.4305,-5.3869,-5.3758,-5.3605,-5.3251,-5.3185,-5.3185,-5.3185,-5.3185,-5.3206,-5.3251,-5.3585,-5.3995,-5.45,-5.4895,-5.5282,-5.5673,-5.5703,-5.5703,-5.5703,-5.5703,-5.5703,-5.5703,-5.5703,-5.5703,-5.5703,-5.5703,-5.6107,-5.6887,-5.6964,-5.783,-3.9861,-4.0898,-4.1292,-4.1312,-3.9442,-3.6726,-3.332,0.0,-2.8385,-2.591,-2.5271,-2.5215,-2.5337,-2.6143,-2.7619,-3.0094,-3.1418,-3.3827,-3.8603,0.0,0.0,0.0,0.0,0.0,0.0,0.0,-5.4209,-5.5279,-5.6125,-5.6601,-5.6601,-5.6601,-5.6601,-5.6601,-5.6601,-5.6601,-5.6601,-5.6601,-5.6601,-5.6601,-5.6601,-5.6601,-5.6601,-5.6953,-5.6933,-5.6601,-5.6652,-5.6508,0.0,-5.5845,-5.5703,-5.5703,-5.5703,-5.5599,-5.5423,-5.5186,-5.489,-5.4525,-5.4204,-5.4417,-5.4852,-5.4779,-5.5173,-5.5799,-5.6329,-5.6483,-5.6599,-5.7126,-5.7152,-5.7055,-5.7208,-5.6944,-5.6548,-5.6292,-5.5937,-5.5489,-5.4962,-5.5048,-5.516,-5.4909,-5.4867,-5.4804,-5.4602,-5.4151,-5.3758,-5.3585,-5.3359,-5.3185,-5.3185,-5.3185,-5.3185,-5.3185,-5.3339,-5.3739,-5.4439,-5.4659,-5.5021,-5.5662,-5.5703,-5.5703,-5.5703,-5.5703,-5.5703,-5.5703,-5.5703,-5.5953,-5.6483,-5.6483,-5.6934,-5.778,-5.828,-5.8858,-3.8315,-3.9849,-4.0654,-4.0386,-3.8633,-3.6102,0.0,-3.035,-2.8116,-2.5538,-2.5175,-2.5348,-2.5387,-2.5951,-2.702,-2.8821,-2.9569,-3.1613,-3.649,-3.8309,0.0,0.0,0.0,0.0,0.0,-5.2616,-5.4264,-5.5881,-5.6379,-5.6601,-5.6601,-5.6601,-5.6601,-5.6601,-5.6601,-5.6601,-5.6601,-5.656,-5.6538,-5.6538,-5.649,-5.6484,-5.6484,-5.6484,-5.6484,-5.6462,-5.6213,-5.6103,0.0,-5.5817,-5.5703,-5.5703,-5.5703,-5.5703,-5.5662,-5.5387,-5.5199,-5.5021,-5.4398,-5.4591,-5.5048,-5.476,-5.5319,-5.6242,-5.7107,-5.7214,-5.7176,-5.805,-5.83,-5.83,-5.83,-5.804,-5.7736,-5.7447,-5.6978,-5.6403,-5.5791,-5.5884,-5.5918,-5.5389,-5.5492,-5.5543,-5.5172,-5.4587,-5.4099,-5.3851,-5.3546,-5.3318,-5.3206,-5.3185,-5.3185,-5.3185,-5.3185,-5.3543,-5.4439,-5.4503,-5.4833,-5.5651,-5.5703,-5.5703,-5.5703,-5.5703,-5.5703,-5.5703,-5.5953,-5.6387,-5.7003,-5.7272,-5.7819,-5.8665,-5.9242,-5.9646,-3.5308,-3.7411,-3.9104,-3.8257,-3.7365,-3.5765,0.0,-3.0256,-2.8405,-2.5572,-2.5207,-2.5398,-2.5409,-2.5462,-2.6117,-2.7923,-2.9608,-3.2196,-3.6501,-3.9274,0.0,0.0,0.0,0.0,0.0,-5.1536,-5.4024,-5.5048,-5.6048,0.0,-5.6601,-5.6601,-5.6601,-5.6601,-5.6601,-5.6601,-5.6601,-5.646,-5.6391,-5.6391,-5.6279,-5.6197,-5.6197,-5.6197,-5.6197,-5.6191,-5.5996,-5.5904,0.0,-5.5759,-5.5703,-5.5703,-5.5703,-5.5703,-5.5703,-5.5703,-5.5435,-5.5088,-5.5088,-5.5088,-5.5088,-5.5107,-5.5961,-5.7157,-5.803,-5.7684,-5.7176,-5.805,-5.83,-5.83,-5.83,-5.83,-5.8288,-5.83,-5.7627,-5.6992,-5.6973,-5.6983,-5.6733,-5.5857,-5.6395,-5.6575,-5.5326,-5.5088,-5.4785,-5.3941,-5.3796,-5.3644,-5.3251,-5.3185,-5.3185,-5.3185,-5.3185,-5.3543,-5.4439,-5.4503,-5.4833,-5.5651,-5.5703,-5.5703,-5.5703,-5.5703,-5.5703,-5.5703,-5.656,-5.6983,-5.7003,-5.7877,-5.8704,-5.9492,-5.9492,-5.9954,-3.2726,-3.44,-3.5672,-3.4854,-3.3582,-3.2076,-3.0369,-2.871,-2.7136,-2.566,-2.5402,-2.5471,-2.5535,-2.5554,-2.6527,-2.9446,-3.0848,0.0,0.0,0.0,0.0,0.0,0.0,0.0,0.0,0.0,-5.3139,-5.4142,-5.5149,-5.5703,-5.5703,-5.6289,-5.6601,-5.6601,-5.6601,-5.656,-5.6458,-5.6421,-5.6342,-5.6256,-5.6212,-5.6191,-5.6191,-5.6191,-5.6191,-5.6186,-5.5988,-5.5896,-5.588,-5.5759,-5.5703,-5.5703,-5.5703,-5.5703,-5.5761,-5.6368,-5.6513,-5.6448,-5.6708,-5.7015,-5.7242,-5.6918,-5.7302,-5.803,-5.8877,-5.8934,-5.8896,-5.9762,-6.0012,-6.0012,-6.0012,-6.0012,-5.9858,-5.9261,-5.8915,-5.855,-5.8011,-5.7896,-5.7819,-5.753,-5.7703,-5.7747,-5.7366,-5.7015,-5.6716,-5.6429,-5.6161,-5.5633,-5.4631,-5.4497,-5.4174,-5.3304,-5.3185,-5.3422,-5.3959,-5.4305,-5.4735,-5.5269,-5.5554,-5.5703,-5.5703,-5.6272,-5.6599,-5.6599,-5.7434,-5.8165,-5.8704,-5.8992,-5.9569,-6.0396,-6.0396,-6.0531,0.0,-3.1853,-3.2772,-3.2287,-3.1125,-2.9891,-2.9039,-2.7804,-2.658,-2.5688,-2.5529,-2.5552,-2.5598,-2.5571,-2.6484,-2.9304,-3.0424,0.0,0.0,0.0,0.0,0.0,0.0,0.0,0.0,-5.1849,-5.2589,-5.3262,-5.4231,-5.4941,-5.5273,-5.5801,-5.6269,-5.6582,-5.6601,-5.6537,-5.6391,-5.6342,-5.6246,-5.6084,-5.6037,-5.6001,-5.6001,-5.6001,-5.6001,-5.5993,-5.5877,-5.5815,0.0,-5.5738,-5.5703,-5.5703,-5.5703,-5.5703,-5.5761,-5.631,-5.6714,-5.7027,-5.7301,-5.7772,-5.8247,-5.7959,-5.8145,-5.8629,-5.9466,-5.9859,-6.0108,-6.0646,-6.08,-6.08,-6.08,-6.08,-6.0666,-6.0127,-5.9742,-5.9358,-5.8858,-5.8761,-5.8665,-5.8357,-5.855,-5.8665,-5.8357,-5.8059,-5.7786,-5.7628,-5.7395,-5.6895,-5.5951,-5.5805,-5.5454,-5.4465,-5.4367,-5.4389,-5.4473,-5.4773,-5.5144,-5.5551,-5.6275,-5.6684,-5.6684,-5.7203,-5.7492,-5.7492,-5.8319,-5.9011,-5.9492,-5.9838,-6.0262,-6.08,-6.08,-6.08,0.0,-2.966,0.0,-3.026,-2.9627,-2.8835,-2.809,-2.7344,0.0,-2.5691,-2.5561,-2.5643,-2.5761,-2.568,-2.6266,-2.831,0.0,0.0,0.0,0.0,0.0,0.0,0.0,0.0,-4.9596,-5.1214,-5.2278,-5.2391,-5.3333,-5.4258,-5.5078,-5.5176,-5.5605,-5.6484,-5.6504,-5.6478,-5.6383,-5.6251,-5.609,-5.5872,-5.5769,-5.5703,-5.5703,-5.5703,-5.5703,0.0,-5.5703,-5.5703,-5.5703,-5.5703,-5.5703,-5.5703,-5.5703,-5.5703,-5.5703,-5.5761,-5.631,-5.7022,-5.7137,-5.7692,-5.8331,-5.8377,-5.8598,-5.8978,-5.9792,-6.0384,-6.0757,-6.0757,-6.0769,-6.08,-6.08,-6.08,-6.08,-6.08,-6.0185,-5.9588,-5.9588,-5.9588,-5.9377,-5.8627,-5.9088,-5.9358,-5.8607,-5.8492,-5.8342,-5.7886,-5.7832,-5.7668,-5.7194,-5.7146,-5.6926,-5.6407,-5.6312,-5.6134,-5.5705,-5.5697,-5.5946,-5.642,-5.7582,-5.8277,-5.83,-5.8357,-5.8396,-5.8396,-5.9184,-5.9588,-5.9588,-6.0416,-6.08,-6.08,-6.08,-6.08,-2.6293,0.0,-2.7549,-2.6933,-2.6576,-2.6377,0.0,-2.6074,-2.5857,0.0,0.0,0.0,-2.742,-2.7067,0.0,0.0,0.0,0.0,0.0,0.0,0.0,0.0,0.0,-5.0228,-5.0564,-5.1066,-5.1416,-5.1491,-5.2434,-5.3086,-5.3301,-5.3945,-5.4707,-5.5586,-5.5605,-5.5803,-5.6242,-5.6227,-5.6044,-5.5739,-5.5716,-5.5703,-5.5703,-5.5703,-5.5703,-5.5703,-5.5703,-5.5703,-5.5703,-5.5703,-5.5703,-5.5703,-5.5703,-5.5703,-5.578,-5.6445,-5.683,-5.7176,-5.8473,-5.8807,-5.8724,-5.9041,-5.919,-5.9297,-5.9503,-5.9885,-6.0264,-6.0264,-6.0508,-6.08,-6.08,-6.08,-6.08,-6.08,-6.0646,-6.0492,-6.0492,-6.0492,-6.0435,-6.0242,-6.0358,-6.0435,-6.0242,-6.0204,-6.0181,-6.0051,-6.0039,-5.9658,-5.8592,-5.8453,-5.8038,-5.6943,-5.65,-5.6273,-5.6136,-5.6106,-5.6272,-5.6749,-5.7406,-5.7928,-5.8288,-5.8896,-5.9223,-5.9223,-6.005,-6.0492,-6.0492,-6.0704,-6.08,-6.08,-6.08,-6.08,-2.5463,-2.6144,-2.6831,-2.6798,-2.6498,-2.631,-2.6796,0.0,0.0,0.0,0.0,0.0,0.0,0.0,0.0,0.0,0.0,0.0,0.0,0.0,0.0,0.0,0.0,-5.0748,0.0,-5.0979,-5.1058,-5.116,-5.1685,-5.2197,-5.2587,-5.3104,-5.3808,-5.4687,-5.5098,-5.5583,-5.6197,-5.6191,-5.6022,-5.5703,-5.5703,-5.5703,-5.5703,-5.5703,-5.5703,-5.5703,-5.5703,-5.5703,-5.5703,-5.5703,-5.5703,-5.5703,-5.5703,-5.5703,-5.5761,-5.6233,-5.6656,-5.7137,-5.803,-5.8547,-5.8868,-5.9278,-5.9248,-5.9084,-5.9084,-5.9267,-5.9561,-5.9981,-6.0278,-6.054,-6.0746,-6.08,-6.08,-6.08,-6.08,-6.08,-6.08,-6.08,-6.08,-6.08,-6.08,-6.08,-6.08,-6.08,-6.08,-6.08,-6.08,-6.0549,-5.9869,-5.9766,-5.9423,-5.8513,-5.8202,-5.7878,-5.7431,-5.7372,-5.7302,-5.7172,-5.8154,-5.8871,-5.9128,-5.9737,-6.0108,-6.0108,-6.055,-6.08,-6.08,-6.08,-6.08,-6.08,-6.08,-6.08,-2.557,-2.6422,-2.7354,-2.7705,-2.7371,-2.7167,-2.793,0.0,0.0,0.0,0.0,0.0,0.0,0.0,0.0,0.0,0.0,0.0,0.0,0.0,0.0,0.0,0.0,0.0,-5.0848,-5.0894,-5.0952,-5.1053,-5.1136,-5.1503,-5.2257,-5.2412,-5.287,-5.3769,-5.4628,-5.538,-5.5997,-5.6133,-5.6022,-5.5703,-5.5703,-5.5703,-5.5703,-5.5703,-5.5703,-5.5703,0.0,0.0,-5.5703,-5.5703,-5.5703,-5.5703,-5.5703,-5.5703,-5.5703,-5.5703,-5.6175,-5.6788,-5.6794,-5.7634,-5.8726,-5.894,-5.882,-5.8591,-5.8591,-5.8591,-5.8795,-5.9725,-6.004,-6.0222,-6.0678,-6.08,-6.08,-6.08,-6.08,-6.08,-6.08,-6.08,-6.08,-6.08,-6.08,-6.08,-6.08,-6.08,-6.08,-6.08,-6.08,-6.08,-6.08,-6.08,-6.0647,-6.025,-6.0146,-5.9773,-5.8971,-5.8776,-5.8396,-5.7726,-5.9063,-5.9946,-6.0084,-6.0553,-6.08,-6.08,-6.08,-6.08,-6.08,-6.08,-6.08,-6.08,-6.08,-6.08,-2.6303,-2.7723,-2.8522,-2.6427,-2.6373,-2.691,-2.7147,0.0,0.0,0.0,0.0,0.0,0.0,0.0,0.0,0.0,0.0,0.0,0.0,0.0,0.0,0.0,0.0,-4.9894,-5.0663,-5.0827,-5.0903,-5.0932,-5.1047,-5.1203,-5.1396,-5.1427,-5.1878,-5.2871,-5.3634,-5.4369,-5.5097,-5.5822,-5.6022,-5.5703,-5.5703,-5.5703,-5.5703,-5.5703,-5.5703,-5.5703,0.0,-5.5703,-5.5703,-5.5703,-5.5703,-5.5703,-5.5703,-5.5703,-5.5703,-5.5703,-5.578,-5.5907,-5.5898,-5.6897,-5.8094,-5.7427,-5.7593,-5.8097,-5.8097,-5.8097,-5.8286,-5.923,-5.9789,-6.0222,-6.0678,-6.08,-6.08,-6.08,-6.08,-6.08,-6.08,-6.08,-6.08,-6.08,-6.08,-6.08,-6.08,-6.08,-6.08,-6.08,-6.08,-6.08,-6.08,-6.08,-6.0769,-6.0702,-6.0338,-6.004,-5.9901,-5.9158,-5.8639,-5.8508,-5.8779,-5.9266,-6.0069,-6.0553,-6.08,-6.08,-6.08,-6.08,-6.08,-6.08,-6.08,-6.08,-6.08,-6.08,-2.5885,-2.6996,-2.7863,-2.714,-2.8349,-2.9734,-2.9804,0.0,0.0,0.0,0.0,0.0,0.0,0.0,0.0,0.0,0.0,0.0,0.0,0.0,-4.7038,0.0,0.0,-4.9548,-4.9952,-5.0487,-5.0799,-5.0799,-5.0911,-5.1042,-5.1148,-5.1183,-5.1442,-5.1973,-5.2713,-5.3228,-5.3496,-5.475,-5.549,-5.5703,-5.5703,-5.5588,-5.5387,-5.5387,-5.5269,-5.5061,0.0,-5.5387,-5.5399,-5.5599,-5.5703,-5.5703,-5.5703,-5.5703,-5.5703,-5.5703,-5.5703,-5.5692,-5.5708,-5.6184,-5.6787,-5.6786,-5.706,-5.7428,-5.7868,-5.7997,-5.8142,-5.8835,-5.9354,-5.9839,-6.0311,-6.0424,-6.0351,-6.0084,-6.004,-6.0118,-6.0384,-6.0424,-6.0495,-6.0757,-6.08,-6.08,-6.08,-6.08,-6.08,-6.08,-6.08,-6.08,-6.08,-6.08,-6.08,-6.08,-6.061,-6.0384,-6.0132,-5.9709,-5.923,-5.8735,-5.8951,-5.9391,-6.0069,-6.0553,-6.08,-6.08,-6.08,-6.08,-6.08,-6.08,-6.08,-6.08,-6.08,-6.08,-2.5667,-2.643,-2.7353,-2.8051,0.0,-3.125,-3.2246,0.0,0.0,0.0,0.0,0.0,0.0,0.0,0.0,0.0,0.0,0.0,0.0,-4.6163,-4.6682,-4.6885,-4.8029,-4.8971,-4.9356,-4.999,-5.0481,-5.0693,-5.0799,-5.0903,-5.1056,-5.1101,-5.1185,-5.1335,-5.203,-5.2356,-5.2241,-5.365,-5.4716,-5.5415,-5.5503,-5.5399,-5.5107,-5.5007,-5.479,-5.4519,-5.4838,-5.5007,-5.5115,-5.5423,-5.5629,-5.5703,-5.5703,-5.5703,-5.5703,-5.5703,-5.5703,-5.5673,-5.5481,-5.5543,-5.5789,-5.6325,-5.6657,-5.695,-5.7758,-5.7997,-5.8115,-5.857,-5.8971,-5.9337,-5.9804,-5.9931,-5.9855,-5.9494,-5.9389,-5.9545,-5.9996,-6.0103,-6.0236,-6.0702,-6.08,-6.08,-6.08,-6.08,-6.08,-6.08,-6.08,-6.08,-6.08,-6.08,-6.08,-6.08,-6.08,-6.061,-6.0146,-6.0103,-5.9741,-5.8913,-5.9213,-5.9611,-6.0069,-6.0553,-6.08,-6.08,-6.08,-6.08,-6.08,-6.08,-6.08,-6.08,-6.08,-6.08,-2.6448,-2.7333,-2.8069,-2.8258,-2.7832,0.0,-3.2402,-3.2695,0.0,-3.6191,0.0,0.0,0.0,0.0,0.0,0.0,0.0,0.0,0.0,0.0,-4.599,-4.6797,-4.7,-4.7702,-4.924,-4.9452,-4.9817,-5.0635,-5.0702,-5.0764,-5.0916,-5.0925,-5.0972,-5.1113,-5.1774,-5.2119,-5.2104,-5.2915,-5.3742,-5.4587,-5.4955,-5.5134,-5.5075,-5.4701,-5.4535,-5.4503,-5.4535,-5.4764,-5.5088,-5.5134,-5.5356,-5.5703,-5.5703,-5.5703,-5.5703,-5.5703,-5.5703,-5.5588,-5.4851,-5.5088,-5.5695,-5.5681,-5.6198,-5.695,-5.7758,-5.7997,-5.8115,-5.857,-5.8715,-5.8855,-5.9319,-5.9441,-5.9441,-5.9407,-5.9389,-5.9545,-5.9996,-6.0103,-6.0236,-6.0702,-6.08,-6.08,-6.08,-6.08,-6.08,-6.08,-6.08,-6.08,-6.08,-6.08,-6.08,-6.08,-6.08,-6.061,-6.0146,-6.0103,-5.9885,-5.9372,-5.9372,-5.9611,-6.0069,-6.0553,-6.08,-6.08,-6.08,-6.08,-6.08,-6.08,-6.08,-6.08,-6.08,-6.08,-2.5876,-2.7045,-2.8311,-2.8944,0.0,0.0,0.0,0.0,0.0,0.0,0.0,0.0,0.0,0.0,0.0,0.0,0.0,0.0,-4.5594,-4.5594,-4.5729,-4.6047,-4.6567,-4.7163,-4.7778,-4.8798,-4.9529,-4.9875,-5.0385,-5.0757,-5.0901,-5.0908,-5.0953,-5.1108,-5.1276,-5.1354,-5.1354,-5.2038,-5.2427,-5.2518,-5.3722,-5.4153,-5.3928,-5.4027,-5.3943,-5.3719,-5.3942,-5.4151,-5.4333,-5.4876,-5.5186,-5.5343,-5.5599,-5.5703,-5.5703,-5.5703,-5.5535,-5.5256,-5.4686,-5.4512,-5.4633,-5.5354,-5.5794,-5.629,-5.7593,-5.7997,-5.8024,-5.8194,-5.826,-5.8354,-5.8835,-5.8952,-5.8894,-5.8591,-5.8526,-5.8735,-5.9492,-5.9661,-5.9885,-6.0647,-6.08,-6.08,-6.08,-6.08,-6.08,-6.08,-6.08,-6.08,-6.08,-6.08,-6.08,-6.08,-6.08,-6.0734,-6.0553,-6.0264,-6.0025,-5.9855,-5.9839,-5.9916,-6.0084,-6.0553,-6.08,-6.08,-6.08,-6.08,-6.08,-6.08,-6.08,-6.08,-6.08,-6.08,-2.5896,-2.6809,-2.8056,0.0,0.0,0.0,0.0,0.0,0.0,0.0,0.0,0.0,0.0,0.0,0.0,0.0,0.0,-4.5594,-4.5594,-4.5504,-4.5438,-4.5438,-4.5878,-4.6318,-4.6676,-4.7741,-4.8587,-4.8962,-4.9798,-5.0335,-5.0422,-5.07,-5.0879,-5.0966,-5.0886,-5.0835,-5.0835,-5.1288,-5.1318,-5.0944,-5.2207,-5.274,-5.2639,-5.279,-5.2688,-5.2475,-5.2986,-5.3292,-5.3496,-5.4352,-5.4862,-5.5147,-5.5535,-5.5703,-5.5703,-5.5703,-5.5454,-5.5034,-5.4625,-5.4187,-5.3962,-5.4923,-5.5207,-5.5519,-5.7134,-5.7611,-5.7666,-5.7923,-5.7997,-5.807,-5.8397,-5.8463,-5.8397,-5.807,-5.7997,-5.8213,-5.9009,-5.9303,-5.9644,-6.0424,-6.069,-6.08,-6.08,-6.08,-6.08,-6.08,-6.08,-6.08,-6.08,-6.08,-6.08,-6.08,-6.08,-6.08,-6.08,-6.0508,-6.025,-6.0118,-6.0103,-6.0103,-6.0103,-6.0411,-6.0647,-6.08,-6.08,-6.08,-6.08,-6.08,-6.08,-6.08,-6.08,-6.08,-2.6743,-2.6792,-2.7262,0.0,0.0,0.0,0.0,0.0,0.0,0.0,0.0,0.0,-4.3208,0.0,0.0,-4.4162,-4.5037,-4.5594,-4.5605,-4.5312,-4.5096,-4.5096,-4.4793,-4.5054,-4.6161,-4.629,-4.6791,-4.7981,-4.8894,-4.9394,-4.9394,-5.0212,-5.0693,-5.0693,-5.0712,-5.0712,-5.0712,-5.0702,-5.0493,-5.0099,-5.0492,-5.0933,-5.1373,-5.0985,-5.0802,-5.0839,-5.1628,-5.2225,-5.2659,-5.346,-5.4336,-5.5147,-5.5535,-5.5703,-5.5703,-5.5703,-5.5435,-5.5034,-5.4625,-5.4187,-5.387,-5.4257,-5.4399,-5.4693,-5.6308,-5.6804,-5.6969,-5.7758,-5.7997,-5.7997,-5.7997,-5.7997,-5.7997,-5.7997,-5.7997,-5.8142,-5.8591,-5.9065,-5.9526,-6.001,-6.0482,-6.0781,-6.0781,-6.08,-6.08,-6.08,-6.08,-6.08,-6.08,-6.08,-6.08,-6.08,-6.08,-6.08,-6.08,-6.08,-6.0578,-6.0132,-6.0103,-6.0103,-6.0084,-6.0084,-6.0305,-6.0769,-6.0781,-6.08,-6.08,-6.08,-6.08,-6.08,-6.08,-6.08,-2.5792,-2.7165,0.0,0.0,0.0,0.0,0.0,0.0,0.0,0.0,0.0,0.0,-4.3995,0.0,0.0,-4.4259,-4.5037,-4.5513,-4.5273,-4.515,-4.5,-4.4788,-4.4657,-4.4726,-4.5073,-4.5822,-4.6437,-4.6811,-4.7856,-4.849,-4.849,-4.9317,-4.9779,-4.9779,-5.0385,-5.0712,-5.0712,-5.0421,-5.0068,-4.9678,-4.9509,-4.9797,-5.0482,-5.0708,-5.0802,-5.082,-5.1041,-5.1546,-5.2279,-5.3713,-5.4606,-5.5147,-5.5535,-5.5703,-5.5662,-5.5387,-5.5021,-5.4609,-5.417,-5.3739,-5.3488,-5.4167,-5.4399,-5.4583,-5.5629,-5.6345,-5.6859,-5.7097,-5.7556,-5.7997,-5.7997,-5.7997,-5.7997,-5.7997,-5.7997,-5.8142,-5.8591,-5.8796,-5.9047,-5.9528,-5.9996,-6.0311,-6.0311,-6.0578,-6.08,-6.08,-6.08,-6.08,-6.08,-6.08,-6.08,-6.08,-6.08,-6.08,-6.08,-6.0495,-6.0118,-5.9644,-5.9284,-5.9248,-5.9576,-5.9611,-5.9839,-6.0311,-6.0311,-6.0469,-6.08,-6.08,-6.08,-6.08,-6.08,-6.08,-2.6621,0.0,0.0,0.0,0.0,0.0,0.0,0.0,0.0,0.0,0.0,0.0,0.0,-4.4528,0.0,-4.4759,-4.514,-4.5332,-4.5118,-4.4853,-4.4587,-4.4392,-4.4237,-4.4227,-4.4364,-4.5142,-4.5688,-4.5802,-4.6944,-4.7625,-4.7625,-4.8413,-4.8875,-4.8875,-4.9721,-5.0183,-5.0183,-5.0141,-4.9898,-4.9508,-4.9092,-4.9073,-4.9398,-4.969,-4.9811,-4.9829,-5.0141,-5.093,-5.2116,-5.3442,-5.4318,-5.4924,-5.5489,-5.5599,-5.5423,-5.5186,-5.4731,-5.4187,-5.3887,-5.3545,-5.3277,-5.3775,-5.3922,-5.4069,-5.4876,-5.5684,-5.64,-5.6712,-5.7373,-5.7997,-5.7997,-5.7997,-5.7997,-5.7997,-5.7997,-5.8092,-5.8372,-5.857,-5.8776,-5.9065,-5.9492,-5.9885,-6.0069,-6.0338,-6.0597,-6.0769,-6.08,-6.08,-6.08,-6.08,-6.08,-6.08,-6.08,-6.0714,-6.054,-6.0264,-5.9823,-5.9158,-5.8855,-5.8755,-5.8835,-5.9028,-5.9337,-5.9804,-5.9804,-5.9946,-6.025,-6.025,-6.025,-6.025,-6.025,-6.025,0.0,0.0,0.0,0.0,0.0,0.0,0.0,0.0,0.0,0.0,0.0,0.0,0.0,-4.496,-4.4682,-4.5425,-4.5302,-4.5074,-4.5,-4.4409,-4.4001,-4.3955,-4.3695,-4.3631,-4.3924,-4.4304,-4.4682,-4.503,-4.6099,-4.6751,-4.6769,-4.752,-4.7933,-4.7933,-4.8741,-4.923,-4.9307,-4.9686,-4.9737,-4.9431,-4.9027,-4.8657,-4.8306,-4.8306,-4.8306,-4.8343,-4.915,-5.0362,-5.1858,-5.2771,-5.3619,-5.4468,-5.5305,-5.5423,-5.5107,-5.5061,-5.4528,-5.3796,-5.3758,-5.3524,-5.3185,-5.3185,-5.3185,-5.3332,-5.4069,-5.484,-5.5647,-5.6455,-5.7281,-5.7905,-5.7978,-5.7997,-5.7997,-5.7997,-5.7997,-5.7997,-5.7997,-5.8329,-5.8632,-5.8632,-5.9009,-5.9458,-5.9901,-6.001,-6.0175,-6.061,-6.0702,-6.0746,-6.0746,-6.0769,-6.08,-6.08,-6.08,-6.061,-6.0146,-6.0055,-5.9661,-5.8755,-5.8673,-5.8421,-5.802,-5.8397,-5.8855,-5.9319,-5.9356,-5.9373,-5.9389,-5.9389,-5.9389,-5.9389,-5.9389,-5.9389,0.0,0.0,0.0,0.0,0.0,0.0,0.0,0.0,0.0,0.0,0.0,0.0,0.0,-4.546,-4.5302,-4.5223,-4.5159,-4.4889,-4.4332,-4.4102,-4.3893,-4.3629,-4.3548,-4.3531,-4.3597,-4.3927,-4.429,-4.467,-4.5201,-4.5609,-4.5865,-4.6387,-4.6694,-4.6694,-4.7279,-4.7903,-4.8535,-4.8313,-4.8487,-4.9011,-4.8622,-4.8364,-4.8306,-4.8306,-4.8306,-4.8343,-4.915,-4.9701,-5.0182,-5.1991,-5.304,-5.3599,-5.4781,-5.5173,-5.5061,-5.475,-5.4288,-5.374,-5.3442,-5.3272,-5.3185,-5.3185,-5.3185,-5.3222,-5.3427,-5.4014,-5.4821,-5.5629,-5.6436,-5.7207,-5.7831,-5.7997,-5.7997,-5.7997,-5.7997,-5.7997,-5.7997,-5.8092,-5.8164,-5.8164,-5.8526,-5.8894,-5.8971,-5.932,-5.9576,-5.9693,-6.001,-6.025,-6.025,-6.0565,-6.08,-6.08,-6.08,-6.061,-6.0146,-5.9757,-5.9302,-5.8735,-5.8351,-5.8115,-5.7997,-5.8115,-5.8354,-5.8835,-5.8855,-5.9028,-5.9389,-5.9389,-5.9389,-5.9389,-5.9389,-5.9389,0.0,0.0,0.0,0.0,0.0,0.0,0.0,0.0,0.0,0.0,0.0,0.0,0.0,-4.5476,-4.5312,-4.5118,-4.4806,-4.4436,-4.4043,-4.3865,-4.3712,-4.3513,-4.3515,-4.3515,-4.3515,-4.3804,-4.4106,-4.4308,-4.4657,-4.4943,-4.5118,-4.5365,-4.548,-4.548,-4.6132,-4.6696,-4.7097,-4.712,-4.7516,-4.8319,-4.7923,-4.792,-4.8306,-4.8306,-4.8306,-4.8324,-4.8746,-4.915,-4.9649,-5.0916,-5.2151,-5.3267,-5.3916,-5.4444,-5.476,-5.4338,-5.3888,-5.3484,-5.3272,-5.3185,-5.3185,-5.3185,-5.3185,-5.3185,-5.3185,-5.3775,-5.4564,-5.5354,-5.618,-5.6987,-5.7795,-5.7997,-5.7997,-5.7997,-5.7997,-5.7997,-5.7997,-5.7997,-5.7997,-5.7997,-5.819,-5.8439,-5.8654,-5.9084,-5.9389,-5.9389,-5.9611,-5.9757,-5.9757,-5.9981,-6.0132,-6.0132,-6.0132,-5.9931,-5.9458,-5.9213,-5.8874,-5.8397,-5.8142,-5.7997,-5.7997,-5.7997,-5.8119,-5.8372,-5.8354,-5.8503,-5.8735,-5.8735,-5.8735,-5.8735,-5.8735,-5.8735,0.0,0.0,0.0,0.0,0.0,0.0,0.0,0.0,0.0,0.0,0.0,0.0,0.0,-4.5243,-4.4988,-4.4931,-4.4414,-4.3986,-4.3909,-4.366,-4.3515,-4.3515,-4.3515,-4.3515,-4.3515,-4.3758,-4.394,-4.4001,-4.4304,-4.4527,-4.4612,-4.4527,-4.4501,-4.4501,-4.5086,-4.5472,-4.5608,-4.5991,-4.6599,-4.74,-4.7187,-4.7516,-4.8306,-4.8306,-4.8306,-4.8306,-4.8306,-4.871,-4.941,-4.9916,-5.1116,-5.2711,-5.2994,-5.354,-5.415,-5.3885,-5.3545,-5.3185,-5.3185,-5.3185,-5.3185,-5.3185,-5.3185,-5.3185,-5.3185,-5.3665,-5.4399,-5.5317,-5.6069,-5.6822,-5.7758,-5.7997,-5.7997,-5.7997,-5.7997,-5.7997,-5.7997,-5.7997,-5.7997,-5.7997,-5.7997,-5.8119,-5.8505,-5.8913,-5.9158,-5.9158,-5.9231,-5.9266,-5.9266,-5.9337,-5.9389,-5.9389,-5.9389,-5.9213,-5.8735,-5.8694,-5.8505,-5.8042,-5.7997,-5.7997,-5.7997,-5.7997,-5.7997,-5.7997,-5.7997,-5.7997,-5.7997,-5.7997,-5.7997,-5.7997,-5.7997,-5.7997,0.0,0.0,0.0,0.0,0.0,0.0,0.0,0.0,0.0,0.0,0.0,0.0,0.0,0.0,-4.4553,-4.4204,-4.4058,-4.3912,-4.3614,-4.3531,-4.3515,-4.3515,-4.3515,-4.3515,-4.3515,-4.3548,-4.3695,-4.3986,-4.4043,-4.4219,-4.458,-4.4261,-4.4073,-4.4073,-4.3899,-4.4145,-4.4828,-4.4905,-4.533,-4.6157,-4.6783,-4.7516,-4.8306,-4.8306,-4.8306,-4.8306,-4.8306,-4.8379,-4.8545,-4.9357,-5.0046,-5.0731,-5.215,-5.2747,-5.2935,-5.3572,-5.3545,-5.3185,-5.3185,-5.3185,-5.3185,-5.3185,-5.3185,-5.3185,-5.3185,-5.3277,-5.3683,-5.517,-5.5688,-5.6106,-5.7611,-5.7997,-5.7997,-5.7997,-5.7997,-5.7997,-5.7997,-5.7997,-5.7997,-5.7997,-5.7997,-5.802,-5.8074,-5.8142,-5.819,-5.819,-5.8547,-5.8776,-5.8776,-5.9158,-5.9389,-5.9389,-5.9389,-5.9213,-5.8735,-5.8694,-5.8505,-5.8042,-5.7997,-5.7997,-5.7997,-5.7997,-5.7997,-5.7997,-5.7997,-5.7997,-5.7997,-5.7997,-5.7997,-5.7997,-5.7997,-5.7997,0.0,0.0,0.0,0.0,0.0,0.0,0.0,0.0,0.0,0.0,0.0,0.0,0.0,0.0,-4.3915,-4.4002,-4.3833,-4.3679,-4.3513,-4.3515,-4.3515,-4.3515,-4.3515,-4.3515,-4.3515,-4.3515,-4.3546,-4.371,-4.3726,-4.3807,-4.3958,-4.3804,-4.3726,-4.3726,-4.358,-4.3663,-4.4011,-4.403,-4.4433,-4.5241,-4.6489,-4.7278,-4.7626,-4.8104,-4.8306,-4.8306,-4.8306,-4.8306,-4.8343,-4.871,-4.94,-5.0275,-5.1232,-5.2011,-5.266,-5.325,-5.3359,-5.3185,-5.3185,-5.3185,-5.3185,-5.3185,-5.3185,-5.3185,-5.3185,-5.3185,-5.3555,-5.5133,-5.5614,-5.5959,-5.7574,-5.7997,-5.7997,-5.7997,-5.7997,-5.7997,-5.7997,-5.7997,-5.7997,-5.7997,-5.7997,-5.7997,-5.7997,-5.7997,-5.7997,-5.7997,-5.8168,-5.8326,-5.8326,-5.8484,-5.8611,-5.8611,-5.8611,-5.8547,-5.8329,-5.8326,-5.8235,-5.802,-5.7997,-5.7997,-5.7997,-5.7997,-5.7997,-5.7997,-5.7997,-5.7997,-5.7997,-5.7997,-5.7997,-5.7997,-5.7997,-5.7997,0.0,0.0,0.0,0.0,0.0,0.0,0.0,0.0,0.0,0.0,0.0,0.0,0.0,0.0,0.0,-4.3221,-4.3219,-4.3133,-4.2992,-4.3158,-4.3286,-4.3286,-4.3286,-4.3357,-4.3497,-4.3515,-4.3515,-4.3515,-4.3515,-4.3515,-4.3515,-4.3515,-4.3515,-4.3515,-4.3515,-4.3515,-4.3515,-4.3515,-4.3901,-4.4709,-4.5955,-4.6666,-4.6904,-4.769,-4.8075,-4.8075,-4.823,-4.8306,-4.8306,-4.8306,-4.8845,-4.9784,-5.052,-5.1354,-5.2215,-5.2948,-5.3185,-5.3185,-5.3185,-5.3185,-5.3185,-5.3185,-5.3185,-5.3185,-5.3185,-5.3185,-5.35,-5.4895,-5.5427,-5.5904,-5.7336,-5.785,-5.7997,-5.7997,-5.7997,-5.7997,-5.7997,-5.7997,-5.7997,-5.7997,-5.7997,-5.7997,-5.7997,-5.7997,-5.7997,-5.7997,-5.7997,-5.7997,-5.7997,-5.7997,-5.7997,-5.7997,-5.7997,-5.7997,-5.7997,-5.7997,-5.7997,-5.7997,-5.7997,-5.7997,-5.7997,-5.7997,-5.7997,-5.7997,-5.7997,-5.7997,-5.7997,-5.7997,-5.7997,-5.7997,-5.7997,-5.7997,0.0,0.0,0.0,0.0,0.0,0.0,0.0,0.0,0.0,0.0,0.0,0.0,0.0,0.0,0.0,-4.1254,-4.1881,-4.217,-4.1595,-4.2226,-4.275,-4.275,-4.275,-4.2939,-4.3444,-4.3515,-4.3515,-4.3515,-4.3515,-4.3515,-4.3515,-4.3515,-4.3515,-4.3515,-4.3515,-4.3515,-4.3515,-4.3515,-4.3901,-4.4691,-4.4972,-4.5511,-4.6269,-4.7084,-4.7467,-4.7488,-4.8055,-4.8306,-4.8306,-4.8306,-4.8343,-4.8565,-5.016,-5.0841,-5.1081,-5.2619,-5.3185,-5.3185,-5.3185,-5.3185,-5.3185,-5.3185,-5.3185,-5.3185,-5.3185,-5.3185,-5.339,-5.4216,-5.5005,-5.5776,-5.6638,-5.7428,-5.7997,-5.7997,-5.7997,-5.7997,-5.7997,-5.7997,-5.7997,-5.7997,-5.7997,-5.7997,-5.7997,-5.7997,-5.7997,-5.7997,-5.7997,-5.7997,-5.7997,-5.7997,-5.7997,-5.7997,-5.7997,-5.7997,-5.7997,-5.7997,-5.7997,-5.7997,-5.7997,-5.7997,-5.7997,-5.7997,-5.7997,-5.7997,-5.7997,-5.7997,-5.7997,-5.7997,-5.7997,-5.7997,-5.7997,-5.7997,0.0,0.0,0.0,0.0,0.0,0.0,0.0,0.0,0.0,0.0,0.0,0.0,0.0,0.0,0.0,0.0,-4.1445,-4.1651,-4.143,-4.1805,-4.2121,-4.2121,-4.2121,-4.2362,-4.2939,-4.2976,-4.3142,-4.3462,-4.3515,-4.3515,-4.3515,-4.3515,-4.3515,-4.3515,-4.3515,-4.3321,-4.2995,-4.2976,-4.2953,-4.2855,-4.3441,-4.3875,-4.42,-4.5906,-4.6687,-4.6765,-4.7836,-4.8306,-4.8306,-4.8306,-4.8306,-4.8416,-4.9572,-5.0343,-5.093,-5.2032,-5.2766,-5.3185,-5.3185,-5.3185,-5.3185,-5.3185,-5.3185,-5.3185,-5.3185,-5.338,-5.3711,-5.4249,-5.4783,-5.5468,-5.6526,-5.7024,-5.7239,-5.7273,-5.7166,-5.6927,-5.6606,-5.7315,-5.7997,-5.7997,-5.7997,-5.7997,-5.7997,-5.7997,-5.7997,-5.7997,-5.7997,-5.7997,-5.7997,-5.7997,-5.7997,-5.7997,-5.7997,-5.7997,-5.7997,-5.7997,-5.7997,-5.7997,-5.7997,-5.7997,-5.7997,-5.7997,-5.7997,-5.7997,-5.7997,-5.7997,-5.7997,-5.7997,-5.7997,-5.7997,-5.7997,-5.7997,0.0,0.0,0.0,0.0,0.0,0.0,0.0,0.0,0.0,0.0,0.0,0.0,0.0,0.0,0.0,0.0,0.0,-4.0581,-4.0375,-4.081,-4.1125,-4.1125,-4.1354,-4.1729,-4.2342,-4.2577,-4.2845,-4.3214,-4.3392,0.0,-4.3515,-4.3515,-4.3515,-4.3515,-4.3339,-4.305,-4.2693,-4.25,-4.2183,-4.181,-4.2414,-4.2695,-4.2788,-4.4769,-4.5659,-4.5757,-4.7311,-4.8094,-4.8306,-4.8306,-4.8306,-4.8398,-4.9242,-5.0106,-5.0894,-5.1701,-5.2509,-5.3185,-5.3185,-5.3185,-5.3185,-5.3185,-5.3185,-5.3185,-5.3185,-5.34,-5.3656,-5.3918,-5.4377,-5.4988,-5.579,-5.6022,-5.6132,-5.6436,-5.6176,-5.5838,-5.5709,-5.6729,-5.7637,-5.7637,-5.7839,-5.7997,-5.7997,-5.7997,-5.7997,-5.7997,-5.7997,-5.7997,-5.7997,-5.7997,-5.7997,-5.7997,-5.7997,-5.7997,-5.7997,-5.7997,-5.7997,-5.7997,-5.7997,-5.7997,-5.7997,-5.7997,-5.7997,-5.7997,-5.7997,-5.7997,-5.7997,-5.7997,-5.7997,-5.7997,-5.7997,-5.7997,0.0,0.0,0.0,0.0,0.0,0.0,0.0,0.0,0.0,0.0,0.0,0.0,0.0,0.0,0.0,0.0,0.0,-3.8887,-3.836,-3.9132,-3.9754,-3.9772,-4.0412,-4.1093,-4.1707,-4.2302,-4.2655,-4.2655,-4.3178,-4.348,-4.348,-4.3479,-4.3479,-4.3479,-4.2976,-4.2674,-4.2635,-4.208,-4.1768,-4.1746,-4.1952,-4.205,-4.2102,-4.3648,-4.4349,-4.4493,-4.6467,-4.7679,-4.8267,-4.8287,-4.8306,-4.8379,-4.9224,-5.005,-5.0857,-5.1665,-5.2472,-5.3167,-5.3185,-5.3185,-5.3185,-5.3185,-5.3185,-5.3185,-5.3185,-5.3206,-5.3206,-5.3206,-5.3757,-5.4384,-5.4399,-5.4505,-5.4772,-5.548,-5.5089,-5.475,-5.5455,-5.6241,-5.6835,-5.6861,-5.7449,-5.7973,-5.7973,-5.7997,-5.7997,-5.7997,-5.7997,-5.7997,-5.7997,-5.7997,-5.7997,-5.7997,-5.7997,-5.7997,-5.7997,-5.7997,-5.7997,-5.7997,-5.7997,-5.7997,-5.7997,-5.7997,-5.7997,-5.7997,-5.7997,-5.7997,-5.7997,-5.7997,-5.7997,-5.7997,-5.7997,-5.7997,-2.1687,0.0,0.0,0.0,0.0,0.0,0.0,0.0,0.0,0.0,0.0,0.0,0.0,0.0,0.0,0.0,0.0,0.0,-3.832,-3.8364,-3.8625,-3.9153,-3.9391,-3.9945,-4.1035,-4.1313,-4.1578,0.0,-4.2598,-4.292,-4.292,-4.3286,-4.3321,-4.2939,-4.2788,-4.2282,-4.1402,-4.1246,-4.0943,-4.0587,-4.0631,-4.0635,-4.0694,-4.2137,-4.3083,-4.3687,-4.5216,-4.655,-4.7677,-4.8114,-4.8306,-4.8324,-4.8563,-4.9169,-5.0013,-5.0839,-5.1646,-5.2417,-5.3004,-5.3185,-5.3185,-5.3185,-5.3185,-5.3185,-5.3185,-5.3402,-5.3565,-5.3274,-5.3568,-5.4028,-5.4323,-5.4505,-5.4485,-5.4135,-5.3915,-5.3709,-5.3338,-5.4283,-5.5396,-5.592,-5.665,-5.7209,-5.7209,-5.7637,-5.7997,-5.7997,-5.7997,-5.7997,-5.7997,-5.7997,-5.7997,-5.7997,-5.7997,-5.7997,-5.7997,-5.7997,-5.7997,-5.7997,-5.7997,-5.7997,-5.7997,-5.7997,-5.7997,-5.7997,-5.7997,-5.7997,-5.7997,-5.7997,-5.7997,-5.7997,-5.7997,-5.7997,0.0,0.0,0.0,0.0,0.0,0.0,0.0,-2.6304,0.0,0.0,0.0,0.0,0.0,0.0,0.0,0.0,0.0,0.0,0.0,-3.748,-3.7584,-3.8024,-3.8345,-3.8948,-4.0014,-4.029,-4.0694,-4.1367,-4.1979,-4.2322,-4.2322,-4.2619,-4.2657,-4.2342,-4.208,-4.1599,-4.0903,-4.0679,-4.0417,-4.0096,-4.0096,-4.0096,-4.013,-4.1287,-4.2198,-4.2944,-4.4331,-4.5541,-4.6659,-4.7259,-4.7818,-4.8267,-4.8035,-4.8625,-4.9702,-5.0508,-5.1316,-5.2105,-5.2931,-5.3185,-5.3185,-5.3185,-5.3185,-5.3185,-5.3185,-5.3359,-5.3485,-5.3272,-5.338,-5.3596,-5.3842,-5.3515,-5.3121,-5.2936,-5.2486,-5.2124,-5.2263,-5.2997,-5.3977,-5.5032,-5.5882,-5.6492,-5.6843,-5.7259,-5.7655,-5.795,-5.7726,-5.7498,-5.7382,-5.7173,-5.7054,-5.7054,-5.7054,-5.7173,-5.7498,-5.754,-5.766,-5.7973,-5.7997,-5.7997,-5.7997,-5.7997,-5.7997,-5.7997,-5.7997,-5.7997,-5.7997,-5.7997,-5.7997,-5.7997,-5.7997,-5.7997,0.0,0.0,0.0,0.0,0.0,0.0,-2.6423,-2.6804,-2.6953,0.0,0.0,0.0,0.0,0.0,0.0,0.0,0.0,0.0,0.0,-3.6442,-3.6609,-3.6778,-3.7381,-3.8075,-3.8802,-3.9311,-3.9893,-4.0637,-4.1305,-4.1729,-4.181,-4.181,-4.1771,-4.1686,-4.1178,-4.088,-4.0803,-4.0343,-4.0096,-4.0096,-4.0096,-4.0096,-4.013,-4.0781,-4.1474,-4.2255,-4.3589,-4.4611,-4.5416,-4.5979,-4.6999,-4.8152,-4.7614,-4.8231,-4.9555,-5.0362,-5.1114,-5.1848,-5.2766,-5.3099,-5.3143,-5.3188,-5.3227,-5.3251,-5.3206,-5.3185,-5.3185,-5.3185,-5.3185,-5.3185,-5.3185,-5.2149,-5.1263,-5.19,-5.1066,-5.0456,-5.1775,-5.2181,-5.2699,-5.4066,-5.5002,-5.5808,-5.6536,-5.6695,-5.6989,-5.766,-5.7191,-5.6668,-5.6438,-5.5976,-5.5706,-5.5706,-5.5706,-5.5976,-5.6713,-5.6861,-5.7184,-5.7839,-5.7932,-5.7997,-5.7997,-5.7997,-5.7997,-5.7997,-5.7997,-5.7997,-5.7997,-5.7997,-5.7997,-5.7997,-5.7997,-5.7997,-2.6061,0.0,0.0,0.0,0.0,0.0,-2.4872,-2.5352,-2.6153,0.0,0.0,0.0,0.0,0.0,0.0,0.0,0.0,0.0,0.0,0.0,0.0,-3.666,-3.6931,-3.7297,-3.8041,-3.8211,-3.8588,-3.9319,-4.0429,-4.1291,-4.1771,-4.181,-4.1578,-4.1087,-4.0972,-4.0703,-4.0262,-4.0146,-4.0096,-4.0096,-4.0096,-4.0096,-4.0096,-4.0248,-4.0713,-4.1457,-4.2326,-4.3417,-4.4628,-4.4858,-4.5982,-4.7572,-4.7467,-4.7868,-4.8655,-4.9462,-4.9884,-5.029,-5.172,-5.2464,-5.2772,-5.3095,-5.3422,-5.3624,-5.3295,-5.3185,-5.3185,-5.3185,-5.3185,-5.3185,-5.3185,-5.2149,-5.1121,-5.1281,-5.0697,-5.0168,-5.0456,-5.1454,-5.2399,-5.2699,-5.388,-5.4878,-5.5029,-5.5524,-5.5976,-5.6141,-5.6031,-5.592,-5.5865,-5.5762,-5.5706,-5.5706,-5.5706,-5.5762,-5.592,-5.6518,-5.6964,-5.7109,-5.7679,-5.7997,-5.7997,-5.7997,-5.7997,-5.7997,-5.7997,-5.7997,-5.7997,-5.7997,-5.7997,-5.7997,-5.7997,-5.7997,-2.7656,0.0,0.0,-2.7314,0.0,0.0,0.0,-2.559,-2.5534,-2.5665,-2.535,0.0,0.0,0.0,0.0,0.0,0.0,0.0,0.0,0.0,0.0,-3.4996,-3.5098,-3.5537,-3.6648,-3.6749,-3.7246,-3.8362,-3.9389,-4.0075,-4.0383,-4.0747,-4.0797,-4.0521,-4.0497,-4.0368,-4.0096,-4.0096,-4.0096,-4.0096,-4.0096,-4.0096,-4.0096,-4.0096,-4.0493,-4.1238,-4.1982,-4.2906,-4.3956,-4.4398,-4.5337,-4.6495,-4.6796,-4.7281,-4.7988,-4.9145,-4.9574,-4.9815,-5.1172,-5.2067,-5.2641,-5.2787,-5.3291,-5.372,-5.3336,-5.3185,-5.3124,-5.2747,-5.2662,-5.2576,-5.2242,-5.1361,-5.0554,-5.0554,-5.0044,-4.9644,-5.0016,-5.0963,-5.186,-5.2232,-5.3254,-5.4154,-5.4544,-5.4909,-5.5191,-5.5338,-5.525,-5.5012,-5.4637,-5.4606,-5.4606,-5.4606,-5.4606,-5.4743,-5.5131,-5.5854,-5.6465,-5.6869,-5.7589,-5.7997,-5.7997,-5.7997,-5.7997,-5.7997,-5.7997,-5.7997,-5.7997,-5.7997,-5.7997,-5.7997,-5.7997,-5.7997,0.0,0.0,0.0,0.0,0.0,-2.7517,0.0,0.0,0.0,-2.5555,0.0,0.0,0.0,0.0,0.0,0.0,0.0,0.0,0.0,0.0,0.0,0.0,-3.3017,-3.366,-3.4839,-3.4957,-3.5673,-3.7324,-3.7872,-3.8379,-3.8954,-3.9571,-3.996,-4.0096,-4.0096,-4.0096,-4.0096,-4.0096,-4.0096,-4.0096,-4.0096,-4.0096,-4.0096,-4.0096,-4.0409,-4.1035,-4.1762,-4.2506,-4.3267,-4.4028,-4.4824,-4.5545,-4.6167,-4.6801,-4.756,-4.8881,-4.9353,-4.9504,-5.0656,-5.1542,-5.2156,-5.225,-5.281,-5.342,-5.3258,-5.3185,-5.306,-5.2294,-5.2112,-5.1952,-5.1266,-5.0554,-5.0004,-5.0004,-4.9492,-4.9171,-4.9746,-5.0473,-5.1217,-5.1944,-5.2739,-5.3514,-5.4261,-5.4405,-5.4468,-5.4668,-5.453,-5.4186,-5.3584,-5.3501,-5.3501,-5.3501,-5.3501,-5.375,-5.4359,-5.5173,-5.5976,-5.6642,-5.7498,-5.7997,-5.7997,-5.7997,-5.7997,-5.7997,-5.7997,-5.7997,-5.7997,-5.7997,-5.7997,-5.7997,-5.7997,-5.7997,0.0,0.0,0.0,0.0,-3.0121,0.0,0.0,0.0,-2.6874,-2.5393,0.0,0.0,0.0,0.0,0.0,0.0,0.0,0.0,0.0,0.0,0.0,0.0,-3.163,-3.2496,-3.2666,-3.2682,-3.3558,-3.5701,-3.5334,-3.618,-3.8853,-3.9073,-3.9436,-4.0079,-4.0096,-4.0096,-4.0096,-4.0096,-4.0096,-4.0096,-4.0096,-4.0096,-4.0096,-4.0096,-4.0146,-4.0282,-4.1001,-4.1745,-4.2472,-4.3234,-4.4329,-4.5545,-4.6167,-4.6801,-4.7488,-4.8184,-4.8453,-4.8621,-4.9803,-5.0349,-5.0589,-5.1226,-5.1787,-5.2316,-5.3007,-5.3185,-5.306,-5.2294,-5.2112,-5.1952,-5.1266,-5.0554,-5.0004,-5.0004,-4.9492,-4.9018,-4.912,-4.9695,-5.0439,-5.12,-5.1944,-5.2688,-5.3499,-5.3601,-5.3651,-5.3668,-5.3634,-5.3584,-5.3501,-5.3501,-5.3501,-5.3501,-5.3501,-5.3534,-5.3618,-5.4909,-5.5734,-5.5836,-5.7198,-5.7997,-5.7997,-5.7997,-5.7997,-5.7997,-5.7997,-5.7997,-5.7997,-5.7997,-5.7997,-5.7997,-5.7997,-5.7997,0.0,0.0,0.0,0.0,0.0,0.0,-2.7332,0.0,-2.6156,0.0,0.0,0.0,0.0,0.0,0.0,0.0,0.0,0.0,0.0,0.0,0.0,0.0,0.0,0.0,-3.0296,-3.1159,-3.2205,-3.3575,-3.3795,-3.4793,-3.6924,-3.8278,-3.914,-3.9445,-3.9893,-4.0096,-4.0096,-4.0096,-4.0096,-4.0096,-4.0096,-4.0096,-4.0096,-4.0096,-4.0096,-4.0146,-4.0882,-4.139,-4.1745,-4.2929,-4.3987,-4.4946,-4.5991,-4.6801,-4.747,-4.8075,-4.8306,-4.8419,-4.9152,-4.9752,-5.0403,-5.1635,-5.2027,-5.2142,-5.2968,-5.2915,-5.2422,-5.171,-5.1258,-5.0778,-5.0079,-4.9652,-4.9419,-4.9419,-4.9212,-4.9001,-4.9001,-4.9932,-5.0828,-5.115,-5.2181,-5.3112,-5.345,-5.3501,-5.3501,-5.3501,-5.3501,-5.3501,-5.3501,-5.3501,-5.3501,-5.3501,-5.3501,-5.3501,-5.3501,-5.4468,-5.5232,-5.5678,-5.7148,-5.7997,-5.7997,-5.7997,-5.7997,-5.7997,-5.7997,-5.7997,-5.7997,-5.7997,-5.7997,-5.7997,-5.7997,-5.7997,-3.2803,0.0,0.0,0.0,0.0,0.0,0.0,0.0,0.0,0.0,0.0,0.0,0.0,0.0,0.0,0.0,0.0,0.0,0.0,0.0,0.0,0.0,0.0,0.0,0.0,-2.8811,-2.9827,-3.1275,-3.1495,-3.2662,-3.5143,-3.706,-3.8345,-3.8971,-3.9723,-4.0096,-4.0096,-4.0096,-4.0096,-4.0096,-4.0096,-4.0096,-4.0096,-4.0096,-4.0096,-4.013,-4.0663,-4.1018,-4.1288,-4.2371,-4.3537,-4.4757,-4.5717,-4.6735,-4.7715,-4.8152,-4.8306,-4.8364,-4.8761,-4.9305,-5.0051,-5.136,-5.1727,-5.1811,-5.2637,-5.252,-5.1952,-5.1292,-5.0616,-4.9902,-4.9199,-4.9001,-4.9001,-4.9001,-4.9001,-4.9001,-4.9001,-4.9999,-5.098,-5.1151,-5.2283,-5.3247,-5.3467,-5.3501,-5.3501,-5.3501,-5.3501,-5.3501,-5.3501,-5.3501,-5.3501,-5.3501,-5.3501,-5.3501,-5.3501,-5.4186,-5.5029,-5.5976,-5.7073,-5.7774,-5.7997,-5.7997,-5.7997,-5.7997,-5.7997,-5.7997,-5.7997,-5.7997,-5.7997,-5.7997,-5.7997,-5.7997,0.0,0.0,0.0,-3.1297,0.0,0.0,0.0,0.0,-2.8447,0.0,0.0,0.0,0.0,0.0,0.0,0.0,0.0,0.0,0.0,0.0,0.0,0.0,0.0,0.0,0.0,-2.4943,-2.5513,0.0,-2.774,-2.9127,-3.4252,-3.5284,-3.6715,-3.892,-3.9723,-4.0096,-4.0096,-4.0096,-4.0096,-4.0096,-4.0096,-4.0096,-4.0096,-4.0096,-4.0096,-4.0096,-4.013,-4.0527,-4.1204,-4.1255,-4.2861,-4.5285,-4.5326,-4.6554,-4.8267,-4.8287,-4.8306,-4.8364,-4.8761,-4.8915,-4.9033,-4.9527,-5.0216,-5.0986,-5.1775,-5.2065,-5.1952,-5.1292,-5.0554,-4.985,-4.9182,-4.9001,-4.9001,-4.9001,-4.9001,-4.9001,-4.9001,-4.9593,-5.0338,-5.1065,-5.1826,-5.2587,-5.3365,-5.3501,-5.3501,-5.3501,-5.3501,-5.3501,-5.3501,-5.3501,-5.3501,-5.3501,-5.3501,-5.3501,-5.3501,-5.4186,-5.5267,-5.6765,-5.6912,-5.7259,-5.7973,-5.7997,-5.7997,-5.7997,-5.7997,-5.7997,-5.7997,-5.7997,-5.7997,-5.7997,-5.7997,-5.7997,0.0,0.0,-3.5611,-3.2558,0.0,0.0,0.0,0.0,0.0,0.0,0.0,0.0,0.0,0.0,0.0,0.0,0.0,0.0,0.0,0.0,0.0,0.0,0.0,0.0,0.0,0.0,0.0,0.0,-2.7452,0.0,-3.2138,-3.4382,-3.6214,-3.7506,-3.8204,-3.8807,-3.9315,-3.9315,-3.9315,-3.9315,-3.9315,-3.9315,-3.9289,-3.8789,-3.8585,-3.8613,-3.9086,-3.9465,-3.9758,-4.0785,-4.2294,-4.406,-4.4935,-4.6301,-4.7756,-4.8152,-4.8306,-4.8325,-4.8458,-4.8495,-4.8624,-4.9375,-5.0141,-5.0949,-5.1756,-5.1742,-5.1393,-5.1164,-5.0258,-4.9286,-4.9063,-4.9001,-4.9001,-4.9001,-4.9001,-4.9001,-4.9001,-4.9965,-5.0913,-5.1134,-5.2249,-5.3179,-5.345,-5.3501,-5.3501,-5.3501,-5.3501,-5.3501,-5.3501,-5.3501,-5.3501,-5.3501,-5.3501,-5.3501,-5.3501,-5.4186,-5.5012,-5.6049,-5.6616,-5.7234,-5.7973,-5.7997,-5.7997,-5.7997,-5.7997,-5.7997,-5.7997,-5.7997,-5.7997,-5.7997,-5.7997,-5.775,-3.4774,-3.5787,0.0,-3.3833,-3.2942,0.0,-2.9152,0.0,-3.0082,0.0,0.0,0.0,0.0,0.0,0.0,0.0,0.0,0.0,0.0,-2.005,0.0,0.0,0.0,0.0,0.0,0.0,-2.372,-2.5762,-2.6607,0.0,0.0,-3.3127,-3.5063,-3.6336,-3.707,-3.778,-3.8497,-3.8497,-3.8497,-3.8497,-3.8497,-3.8497,-3.8497,-3.8007,-3.795,-3.8218,-3.869,-3.9059,-3.9401,-4.0398,-4.1792,-4.3399,-4.4495,-4.5918,-4.747,-4.8075,-4.8306,-4.8306,-4.8306,-4.8306,-4.8398,-4.8948,-4.9701,-5.0508,-5.1334,-5.1148,-5.0732,-5.1015,-5.0107,-4.9001,-4.9001,-4.9001,-4.9001,-4.9001,-4.9001,-4.9001,-4.9001,-5.0168,-5.1185,-5.1185,-5.2452,-5.3501,-5.3501,-5.3501,-5.3501,-5.3501,-5.3501,-5.3501,-5.3501,-5.3501,-5.3501,-5.3501,-5.3501,-5.3501,-5.3501,-5.3946,-5.4513,-5.5262,-5.5798,-5.6394,-5.713,-5.7198,-5.7198,-5.7198,-5.7198,-5.7198,-5.7198,-5.7474,-5.7456,-5.7198,-5.7474,-5.7047]},{"header":{"parameterUnit":"m.s-1","parameterCategory":1,"la1":30.6,"la2":29.2853,"lo1":-89.7004,"lo2":-87.6739,"dy":0.0162,"dx":0.0183,"nx":112,"ny":82,"refTime":"2024-06-01T06:00:00:Z","depth":0,"parameterNumber":3,"parameterNumberName":"V-component_of_WINDS"},"data":[0.0,0.0,0.0,0.0,0.0,0.0,0.0,0.0,0.0,0.0,0.0,0.0,0.0,0.0,0.0,0.0,0.0,0.0,0.0,0.0,0.0,0.0,0.0,0.0,0.0,0.0,0.0,0.0,0.0,0.0,0.0,0.0,0.0,0.0,0.0,0.0,0.0,0.0,0.0,0.0,0.0,0.0,0.0,0.0,0.0,0.0,0.0,0.0,0.0,0.0,0.0,0.0,0.0,0.0,0.0,0.0,0.0,0.0,0.0,0.0,0.0,0.0,0.0,0.0,0.0,0.0,0.0,0.0,0.0,0.0,0.0,0.0,0.0,0.0,0.0,0.0,0.0,0.0,0.0,0.0,0.0,0.0,0.0,0.0,0.0,0.0,0.0,0.0,0.0,0.0,0.0,0.0,0.0,0.0452,0.1612,0.1866,0.267,0.4303,0.0,0.0,0.0,0.0,0.0,0.0,0.0,0.0,0.0,0.0,0.0,0.0,0.0,0.0,0.0,0.0,0.0,0.0,0.0,0.0,0.0,0.0,0.0,0.0,0.0,0.0,0.0,0.0,0.0,0.0,0.0,0.0,0.0,0.0,0.0,0.0,0.0,0.0,0.0,0.0,0.0,0.0,0.0,0.0,0.0,0.0,0.0,0.0,0.0,0.0,0.0,0.0,0.0,0.0,0.0,0.0,0.0,0.0,0.0,0.0,0.0,0.0,0.0,0.0,0.0,0.0,0.0,0.0,0.0,0.0,0.0,0.0,0.0,0.0,0.0,0.0,0.0,0.0,0.0,0.0,0.0,0.0,0.0,0.0,0.0,0.0,0.0,0.0,0.0,0.0,0.0,0.0,0.0,0.0,0.0,0.0,0.0,0.0,0.0,0.0,0.0,0.0,0.0,0.0,0.0,0.0,0.0,0.0057,0.0293,0.1327,0.228,0.2959,0.0,0.0,0.0,0.0,0.0,0.0,0.0,0.0,0.0,0.0,0.0,0.0,0.0,0.0,0.0,0.0,0.0,0.0,0.0,0.0,0.0,0.0,0.0,0.0,0.0,0.0,0.0,0.0,0.0,0.0,0.0,0.0,0.0,0.0,0.0,0.0,0.0,0.0,0.0,0.0,0.0,0.0,0.0,0.0,0.0,0.0,0.0,0.0,0.0,0.0,0.0,0.0,0.0,0.0,0.0,0.0,0.0,0.0,0.0,0.0,0.0,0.0,0.0,0.0,0.0,0.0,0.0,0.0,0.0,0.0,0.0,0.0,0.0,0.0,0.0,0.0,0.0,0.0,0.0,0.0,0.0,0.0,0.0,0.0,0.0,0.0,0.0,0.0,0.0,0.0,0.0,0.0,0.0,0.0,0.0,0.0,0.0,0.0,0.0,0.0,0.0,0.0,0.0,0.0,0.0,0.0,0.0,0.0,0.0,0.0551,0.1422,0.2612,0.3971,0.0,0.0,0.0,0.0,0.0,0.0,0.0,0.0,0.0,0.0,0.0,0.0,0.0,0.0,0.0,0.0,0.0,0.0,0.0,0.0,0.0,0.0,0.0,0.0,0.0,0.0,0.0,0.0,0.0,0.0,0.0,0.0,0.0,0.0,0.0,0.0,0.0,0.0,0.0,0.0,0.0,0.0,0.0,0.0,0.0,0.0,0.0,0.0,0.0,0.0,0.0,0.0,0.0,0.0,0.0,0.0,0.0,0.0,0.0,0.0,0.0,0.0,0.0,0.0,0.0,0.0,0.0,0.0,0.0,0.0,0.0,0.0,0.0,0.0,0.0,0.0,0.0,0.0,0.0,0.0,0.0,0.0,0.0,0.0,0.0,0.0,0.0,0.0,0.0,0.0,0.0,0.0,0.0,0.0,0.0,0.0,0.0,0.0,0.0,0.0,0.0,0.0,0.0,0.0,0.0,0.0,0.0,0.0,0.0,0.0701,0.2281,0.2782,0.0,0.0,0.0,0.0,0.0,0.0,0.0,0.0,0.0,0.0,0.0,0.0,0.0,0.0,0.0,0.0,0.0,0.0,0.0,0.0,0.0,0.0,0.0,0.0,0.0,0.0,0.0,0.0,0.0,0.0,0.0,0.0,0.0,0.0,0.0,0.0,0.0,0.0,0.0,0.0,0.0,0.0,0.0,0.0,0.0,0.0,0.0,0.0,0.0,0.0,0.0,0.0,0.0,0.0,0.0,0.0,0.0,0.0,0.0,0.0,0.0,0.0,0.0,0.0,0.0,0.0,0.0,0.0,0.0,0.0,0.0,0.0,0.0,0.0,0.0,0.0,0.0,0.0,0.0,0.0,0.0,0.0,0.0,0.0,0.0,0.0,0.0,0.0,0.0,0.0,0.0,0.0,0.0,0.0,0.0,0.0,0.0,0.0,0.0,0.0,0.0,0.0,0.0,0.0,0.0,0.0,0.0,0.0,0.0,0.0382,0.1357,0.1954,0.0,0.0,0.0,0.0,0.0,0.0,0.0,0.0,0.0,0.0,0.0,0.0,0.0,0.0,0.0,0.0,0.0,0.0,0.0,0.0,0.0,0.0,0.0,0.0,0.0,0.0,0.0,0.0,0.0,0.0,0.0,0.0,0.0,0.0,0.0,0.0,0.0,0.0,0.0,0.0,0.0,0.0,0.0,0.0,0.0,0.0,0.0,0.0,0.0,0.0,0.0,0.0,0.0,0.0,0.0,0.0,0.0,0.0,0.0,0.0,0.0,0.0,0.0,0.0,0.0,0.0,0.0,0.0,0.0,0.0,0.0,0.0,0.0,0.0,0.0,0.0,0.0,0.0,0.0,0.0,0.0,0.0,0.0,0.0,0.0,0.0,0.0,0.0,0.0,0.0,0.0,0.0,0.0,0.0,0.0,0.0,0.0,0.0,0.0,0.0,0.0,0.0,0.0,0.0,0.0,0.0,0.0,0.0,0.0,0.0395,0.1226,0.0,0.0,0.0,0.0,0.0,0.0,0.0,0.0,0.0,0.0,0.0,0.0,0.0,0.0,0.0,0.0,0.0,0.0,0.0,0.0,0.0,0.0,0.0,0.0,0.0,0.0,0.0,0.0,0.0,0.0,0.0,0.0,0.0,0.0,0.0,0.0,0.0,0.0,0.0,0.0,0.0,0.0,0.0,0.0,0.0,0.0,0.0,0.0,0.0,0.0,0.0,0.0,0.0,0.0,0.0,0.0,0.0,0.0,0.0,0.0,0.0,0.0,0.0,0.0,0.0,0.0,0.0,0.0,0.0,0.0,0.0,0.0,0.0,0.0,0.0,0.0,0.0,0.0,0.0,0.0,0.0,0.0,0.0,0.0,0.0,0.0,0.0,0.0,0.0,0.0,0.0,0.0,0.0,0.0,0.0,0.0,0.0,0.0,0.0,0.0,0.0,0.0,0.0,0.0,0.0,0.0,0.0,0.0,0.0,0.0,0.0343,0.1202,0.0,0.0,0.0,0.0,0.0,0.0,0.0,0.0,0.0,0.0,0.0,0.0,0.0,0.0,0.0,0.0,0.0,0.0,0.0,0.0,0.0,0.0,0.0,0.0,0.0,0.0,0.0,0.0,0.0,0.0,0.0,0.0,0.0,0.0,0.0,0.0,0.0,0.0,0.0,0.0,0.0,0.0,0.0,0.0,0.0,0.0,0.0,0.0,0.0,0.0,0.0,0.0,0.0,0.0,0.0,0.0,0.0,0.0,0.0,0.0,0.0,0.0,0.0,0.0,0.0,0.0,0.0,0.0,0.0,0.0,0.0,0.0,0.0,0.0,0.0,0.0,0.0,0.0,0.0,0.0,0.0,0.0,0.0,0.0,0.0,0.0,0.0,0.0,0.0,0.0,0.0,0.0,0.0,0.0,0.0,0.0,0.0,0.0,0.0,0.0,0.0,0.0,0.0,0.0,0.0,0.0,0.0,0.0,0.0,0.0,0.032,0.0,0.0,0.0,0.0,0.0,0.0,0.0,0.0,0.0,0.0,0.0,0.0,0.0,0.0,0.0,0.0,0.0,0.0,0.0,0.0,0.0,0.0,0.0,0.0,0.0,0.0,0.0,0.0,0.0,0.0,0.0,0.0,0.0,0.0,0.0,0.0,0.0,0.0,0.0,0.0,0.0,0.0,0.0,0.0,0.0,0.0,0.0,0.0,0.0,0.0,0.0,0.0,0.0,0.0,0.0,0.0,0.0,0.0,0.0,0.0,0.0,0.0,0.0,0.0,0.0,0.0,0.0,0.0,0.0,0.0,0.0,0.0,0.0,0.0,0.0,0.0,0.0,0.0,0.0,0.0,0.0,0.0,0.0,0.0,0.0,0.0,0.0,0.0,0.0,0.0,0.0,0.0,0.0,0.0,0.0,0.0,0.0,0.0,0.0,0.0,0.0,0.0,0.0,0.0,0.0,0.0,0.0,0.0,0.0,0.0,0.0,0.0342,0.1177,0.0,0.0,0.0,0.0,0.0,0.0,0.0,0.0,0.0,0.0,0.0,0.0,0.0,0.0,0.0,0.0,0.0,0.0,0.0,0.0,0.0,0.0,0.0,0.0,0.0,0.0,0.0,0.0,0.0,0.0,0.0,0.0,0.0,0.0,0.0,0.0,0.0,0.0,0.0,0.0,0.0,0.0,0.0,0.0,0.0,0.0,0.0,0.0,0.0,0.0,0.0,0.0,0.0,0.0,0.0,0.0,0.0,0.0,0.0,0.0,0.0,0.0,0.0,0.0,0.0,0.0,0.0,0.0,0.0,0.0,0.0,0.0,0.0,0.0,0.0,0.0,0.0,0.0,0.0,0.0,0.0,0.0,0.0,0.0,0.0,0.0,0.0,0.0,0.0,0.0,0.0,0.0,0.0,0.0,0.0,0.0,0.0,0.0,0.0,0.0,0.0,0.0,0.0,0.0,0.0,0.0,0.0,0.0,0.0,0.0476,0.1092,0.1823,0.0,0.0,0.0,0.0,0.0,0.0,0.0,0.0,0.0,0.0,0.0,0.0,0.0,0.0,0.0,0.0,0.0,0.0,0.0,0.0,0.0,0.0,0.0,0.0,0.0,0.0,0.0,0.0,0.0,0.0,0.0,0.0,0.0,0.0,0.0,0.0,0.0,0.0,0.0,0.0,0.0,0.0,0.0,0.0,0.0,0.0,0.0,0.0,0.0,0.0,0.0,0.0,0.0,0.0,0.0,0.0,0.0,0.0,0.0,0.0,0.0,0.0,0.0,0.0,0.0,0.0,0.0,0.0,0.0,0.0,0.0,0.0,0.0,0.0,0.0,0.0,0.0,0.0,0.0,0.0,0.0,0.0,0.0,0.0,0.0,0.0,0.0,0.0,0.0,0.0,0.0,0.0,0.0,0.0,0.0,0.0,0.0,0.0,0.0,0.0,0.0,0.0,0.0,0.0,0.0,0.0,0.0,0.0,0.0,0.1206,0.221,0.2729,0.0,0.0,0.0,0.0,0.0,0.0,0.0,0.0,0.0,0.0,0.0,0.0,0.0,0.0,0.0,0.0,0.0,0.0,0.0,0.0,0.0,0.0,0.0,0.0,0.0,0.0,0.0,0.0,0.0,0.0,0.0,0.0,0.0,0.0,0.0,0.0,0.0,0.0,0.0,0.0,0.0,0.0,0.0,0.0,0.0,0.0,0.0,0.0,0.0,0.0,0.0,0.0,0.0,0.0,0.0,0.0,0.0,0.0,0.0,0.0,0.1024,0.2651,0.0,0.0,0.0,0.0,0.0,0.0,0.0,0.0,0.0,0.0,0.0,0.0,0.0,0.0,0.0,0.0,0.0,0.0,0.0,0.0,0.0,0.0,0.0,0.0,0.0,0.0,0.0,0.0,0.0,0.0,0.0,0.0,0.0,0.0,0.0,0.0,0.0,0.0,0.0,0.0,0.0,0.0,0.0,0.0,0.0,0.0,0.0,0.122,0.233,0.3136,0.4081,0.0,0.0,0.0,0.0,0.0,0.0,0.0,0.0,0.0,0.0,0.0,0.0,0.0,0.0,0.0,0.0,0.0,0.0,0.0,0.0,0.0,0.0,0.0,0.0,0.0,0.0,0.0,0.0,0.0,0.0,0.0,0.0,0.0,0.0,0.0,0.0,0.0,0.0,0.0,0.0,0.0,0.0,0.0,0.0,0.0,0.0,0.0,0.0,0.0,0.0,0.0,0.0,0.0,0.0,0.0,0.0,0.0,0.0,0.0,-0.0653,0.1313,0.0,0.0,0.0,0.0,0.0,0.0,0.0,0.0,0.0,0.0,0.0,0.0,0.0,0.0,0.0,0.0,0.0,0.0,0.0,0.0,0.0,0.0,0.0,0.0,0.0,0.0,0.0,0.0,0.0,0.0,0.0,0.0,0.0,0.0,0.0,0.0,0.0,0.0,0.0,0.0,0.0,0.0,0.0,0.0,0.0,0.0,0.0,0.1808,0.3076,0.3429,0.4893,0.0,0.0,0.0,0.0,0.0,0.0,0.0,0.0,0.0,0.0,0.0,0.0,0.0,0.0,0.0,0.0,0.0,0.0,0.0,0.0,0.0,0.0,0.0,0.0,0.0,0.0,0.0,0.0,0.0,0.0,0.0,0.0,0.0,0.0,0.0,0.0,0.0,0.0,0.0,0.0,0.0,0.0,0.0,0.0,0.0,0.0,0.0,0.0,0.0,0.0,0.0,0.0,0.0,-0.8777,-0.8765,-0.8798,-0.7551,-0.5703,-0.3368,-0.1946,0.0168,0.269,0.3368,0.0,0.0,0.0,0.0,0.0,0.0,0.0,0.0,0.0,0.0,0.0,0.0,0.0,0.0,0.0,0.0,0.0,0.0,0.0,0.0,0.0,0.0,0.6966,0.6939,0.716,0.7152,0.6519,0.0,0.0,0.0,0.0,0.0,0.0,0.0,0.0,0.0,0.0,0.0,0.0325,0.0152,0.0,0.0,0.0,0.0,0.0,0.2443,0.3919,0.3706,0.5772,0.6868,0.0,0.0,0.0,0.0,0.0,0.0,0.0,0.0,0.0,0.0,0.0,0.0,0.0,0.0,0.0,0.0,0.0,0.0,0.0,0.0,0.0,0.0,0.0,0.0,0.0,0.0,0.0,0.0,0.0,0.0,0.0,0.0,-0.7281,-0.7966,0.0,0.0,0.0,0.0,0.0,0.0,0.0,0.0,0.0,0.0,0.0,0.0,0.0,-0.6785,-0.8258,-0.8764,-0.9601,-1.0733,-1.0229,-0.9887,-0.9776,-0.8737,-0.6756,-0.4087,-0.3859,0.0,0.1589,0.2582,0.0,0.0,0.0,0.0,0.0,0.0,0.0,0.0,0.0,0.0,0.0,0.0,0.0,0.0,0.0,0.0,0.0,0.0,0.0,0.0,0.0,0.0,0.8031,0.7847,0.8089,0.8245,0.8024,0.7214,0.642,0.6221,0.4523,0.3323,0.0,0.0,0.0,0.0,0.0,0.0,0.1571,0.0726,0.0,0.0,0.0,0.0,0.0,0.2443,0.3961,0.3947,0.6191,0.7424,0.7276,0.6569,0.0,0.0,0.0,0.0,0.0,0.0,0.0,0.0,0.0,0.0,0.0,0.0,0.0,0.0,0.0,0.0,0.0,0.0,0.0,0.0,0.0,0.0,0.0,0.0,0.0,0.0,0.0,0.0,0.0,-0.6435,-0.7572,-0.8049,-0.7551,-0.7058,0.0,0.0,0.0,0.0,0.0,0.0,0.0,0.0,0.0,-0.6742,-0.6902,-0.739,-0.8268,-0.9277,-1.0118,-1.0715,-1.0415,-1.0271,-1.0172,-0.9019,-0.6943,-0.4189,-0.4189,-0.2368,0.0683,0.2396,0.3729,0.4829,0.0,0.0,0.0,0.0,0.6613,0.667,0.7119,0.7204,0.7105,0.6982,0.0,0.0,0.0,0.0,0.0,0.0,0.0,0.7214,0.7383,0.7845,0.8275,0.8286,0.8387,0.8465,0.8404,0.7974,0.7336,0.6393,0.5408,0.4577,0.4143,0.0,0.0,0.0,0.0,0.1995,0.0999,0.1103,0.0927,0.0112,0.0,0.0,0.0,0.1761,0.3188,0.3974,0.5628,0.6887,0.7506,0.7021,0.6505,0.0,0.0,0.0,0.0,0.0,0.0,0.0,0.0,0.0,0.0,0.0,0.0,0.0,0.0,0.0,0.0,0.0,0.0,0.0,0.0,0.0,0.0,0.0,0.0,0.0,0.0,0.0,0.0,-0.7026,-0.7706,-0.8088,-0.7615,-0.7236,0.0,0.0,0.0,0.0,0.0,0.0,-0.6471,-0.6661,-0.6946,-0.7311,-0.7519,-0.7969,-0.8596,-0.9716,-1.0326,-1.0462,-1.0462,-1.033,-0.9957,-0.9016,-0.7037,-0.4302,-0.4302,-0.2632,0.016,0.2496,0.4005,0.4949,0.6473,0.7041,0.7075,0.7336,0.7431,0.7499,0.7934,0.8079,0.7946,0.7726,0.7526,0.7243,0.6848,0.0,0.0,0.0,0.0,0.7662,0.7916,0.818,0.8411,0.8516,0.857,0.8601,0.8601,0.8567,0.8153,0.6891,0.6378,0.5837,0.4833,0.0,0.0,0.0,0.0,0.3603,0.1892,0.2344,0.2361,0.1285,0.1115,0.1048,0.108,0.1968,0.3069,0.4427,0.5351,0.6403,0.7668,0.7421,0.7014,0.6495,0.0,0.0,0.0,0.0,0.0,0.0,0.0,0.0,0.0,0.0,0.0,0.0,0.0,0.0,0.0,0.0,0.0,0.0,0.0,0.0,0.0,0.0,0.0,0.0,0.0,0.0,0.0,0.0,0.0,-0.8707,-0.851,0.0,0.0,0.0,0.0,-0.627,-0.6485,-0.6783,-0.7038,-0.738,-0.7682,-0.7934,-0.8143,-0.8907,-1.0259,-1.0371,-1.0471,-1.0658,-1.0658,-1.0058,-0.8968,-0.8916,-0.7296,-0.446,-0.446,-0.2765,0.0218,0.2875,0.4005,0.4296,0.6924,0.7924,0.7941,0.8153,0.8265,0.8238,0.8401,0.8455,0.8445,0.8431,0.8231,0.7938,0.7907,0.7851,0.0,0.0,0.8096,0.831,0.8411,0.8567,0.8689,0.8696,0.8811,0.8861,0.8861,0.8801,0.8645,0.0,0.7322,0.6687,0.7437,0.0,0.4935,0.7133,0.563,0.4656,0.6017,0.511,0.4332,0.4295,0.4129,0.4006,0.3989,0.3917,0.446,0.5834,0.5974,0.657,0.7918,0.7733,0.7424,0.7058,0.634,0.0,0.0,0.0,0.0,0.0,0.0,0.0,0.0,0.0,0.0,0.0,0.0,0.0,0.0,0.0,0.0,0.0,0.0,0.0,0.0,0.0,0.0,0.0,0.0,0.0,0.0,0.0,0.0,-0.8481,-0.7802,0.0,-0.7571,-0.7234,-0.6912,-0.6814,-0.7109,-0.7407,-0.7655,-0.7916,-0.8123,-0.8316,-0.8377,-0.8738,-0.931,-0.9314,-0.9394,-0.9559,-0.9662,-0.952,-0.9079,-0.9178,-0.7561,-0.4655,-0.4648,-0.2859,0.0226,0.311,0.4224,0.4409,0.7245,0.8323,0.8333,0.8387,0.8469,0.856,0.8611,0.8628,0.8611,0.8513,0.8411,0.8323,0.8323,0.8286,0.8255,0.8309,0.8435,0.8564,0.8615,0.8743,0.8804,0.8804,0.8844,0.8885,0.8885,0.8841,0.8842,0.8784,0.8252,0.784,0.7908,0.7416,0.69,0.6679,0.6918,0.6663,0.5372,0.5606,0.5545,0.4625,0.4342,0.4203,0.4196,0.4098,0.4534,0.5782,0.5868,0.6428,0.7712,0.7655,0.7455,0.7102,0.665,0.6118,0.0,0.0,0.0,0.0,0.0,0.0,0.0,0.0,0.0,0.0,0.0,0.0,0.0,0.0,0.0,0.0,0.0,0.0,0.0,0.0,0.0,0.0,0.0,0.0,0.0,0.0,-0.8165,-0.8182,-0.748,-0.7175,-0.7643,-0.7377,-0.722,-0.7314,-0.7651,-0.7913,-0.8106,-0.8258,-0.8408,-0.8554,-0.856,-0.8655,-0.8859,-0.8859,-0.8937,-0.9089,-0.9184,-0.9286,-0.9292,-0.9337,-0.7687,-0.4676,-0.4726,-0.2916,0.0232,0.329,0.447,0.4662,0.7532,0.8635,0.8635,0.8635,0.8699,0.8842,0.932,0.9854,1.0154,0.9564,0.9371,0.9264,0.8795,0.8635,0.8635,0.8635,0.871,0.8798,0.8845,0.8899,0.8895,0.8998,0.8974,0.8885,0.8885,0.8885,0.8885,0.8885,0.8774,0.8557,0.8258,0.8428,0.8174,0.7101,0.7933,0.8018,0.62,0.6822,0.7088,0.6072,0.5823,0.5705,0.5659,0.5132,0.5298,0.647,0.6076,0.6359,0.7628,0.7577,0.74,0.7102,0.6753,0.6281,0.5735,0.0,0.0,0.0,0.0,0.0,0.0,0.0,0.0,0.0,0.0,0.0,0.0,0.0,0.0,0.0,0.0,0.0,0.0,0.0,0.0,0.0,0.0,0.0,-0.8986,-0.8979,-0.8779,-0.79,-0.7683,-0.7489,-0.7152,-0.7563,-0.7821,-0.7824,-0.8102,-0.8327,-0.8337,-0.8414,-0.856,-0.8713,-0.872,-0.8862,-0.9207,-0.9214,-0.9292,-0.9381,-0.9388,-0.9388,-0.9388,-0.9333,-0.7624,-0.4693,-0.4636,-0.2879,0.0236,0.3406,0.4693,0.4969,0.7815,0.8898,0.8898,0.8898,0.895,0.9168,1.0637,1.2096,1.3068,1.1664,1.1177,1.0903,0.9489,0.9054,0.9054,0.8999,0.8999,0.9033,0.918,0.9055,0.8988,0.9183,0.9055,0.8895,0.8892,0.8892,0.8888,0.8885,0.8885,0.8838,0.8743,0.8716,0.8716,0.8716,0.8716,0.0,0.8865,0.8885,0.8885,0.8885,0.8801,0.8648,0.8496,0.7194,0.6808,0.7942,0.6654,0.6438,0.7756,0.7526,0.7302,0.7112,0.658,0.6207,0.602,0.0,0.0,0.0,0.0,0.0,0.0,0.0,0.0,0.0,0.0,0.0,0.0,0.0,0.0,0.0,0.0,0.0,0.0,0.0,0.0,0.0,0.0,-1.1135,-0.9145,-0.9365,-0.9227,-0.7826,-0.7704,-0.7763,-0.7742,-0.7853,-0.8021,-0.8136,-0.8225,-0.8364,-0.8577,-0.8625,-0.8716,-0.8817,-0.8977,-0.9125,-0.921,-0.932,-0.934,-0.9384,-0.9493,-0.9547,-0.9492,-0.8441,-0.6806,-0.4775,-0.3625,-0.1934,0.024,0.3402,0.4712,0.5,0.8046,0.9259,0.9259,0.9259,0.9995,1.1066,1.1459,1.2632,1.3796,1.3404,1.3297,1.3155,1.2557,1.2404,1.2128,1.0966,1.0635,1.0455,0.9563,0.9289,0.9269,0.931,0.9286,0.9228,0.912,0.9093,0.9062,0.8902,0.8885,0.8868,0.8828,0.8821,0.8821,0.8821,0.8821,0.0,0.8878,0.8885,0.8885,0.8885,0.8801,0.8648,0.8496,0.8037,0.7797,0.784,0.7398,0.7276,0.7658,0.7472,0.7404,0.7472,0.6993,0.6725,0.0,0.0,0.0,0.0,0.0,0.0,0.0,0.0,0.0,0.0,0.0,0.0,0.0,0.0,0.0,0.0,0.0,0.0,0.0,0.0,0.0,0.0,-1.1694,-1.1512,-1.0039,-1.0193,-0.9763,-0.7928,-0.7818,-0.7891,-0.7982,-0.8099,-0.8174,-0.8313,-0.8384,-0.853,-0.8703,-0.8828,-0.8937,-0.9025,-0.9171,-0.9337,-0.9344,-0.9432,-0.9507,-0.9564,-0.9656,-0.9333,-0.8666,-0.782,-0.6107,-0.3824,-0.2882,-0.1533,0.0244,0.3459,0.4789,0.0,0.0,0.0,0.0,0.0,1.0809,1.2689,1.2689,1.4102,1.5856,1.5221,1.4995,1.4856,1.4101,1.3897,1.3674,1.2721,1.2491,1.2147,1.0809,1.0461,1.0258,0.9635,0.9429,0.9357,0.9323,0.9255,0.9183,0.9045,0.8981,0.0,0.8885,0.8885,0.8885,0.8885,0.8885,0.8885,0.8885,0.8885,0.8885,0.8885,0.8804,0.8743,0.8591,0.8442,0.0,0.0,0.0,0.7634,0.7509,0.7417,0.0,0.0,0.0,0.0,0.0,0.0,0.0,0.0,0.7105,0.7018,0.0,0.0,0.0,0.0,0.0,0.0,0.0,0.0,0.0,0.0,0.0,0.0,0.0,0.0,0.0,0.0,-1.2283,-1.1686,-1.1217,-1.1051,-1.0211,-0.8059,-0.7907,-0.7995,-0.8015,-0.8191,-0.8337,-0.8319,-0.8564,-0.8723,-0.8757,0.0,0.0,0.0,0.0,-0.9473,-0.9608,-0.9625,-0.9696,-0.9822,-0.9636,-0.8772,-0.736,-0.6994,-0.528,-0.2462,-0.2278,-0.1356,0.0247,0.3568,0.51,0.5699,0.8399,0.9432,0.949,0.9662,1.1492,1.4008,1.4179,0.0,0.0,1.7079,1.6674,1.6381,1.5044,1.4638,1.4581,1.4411,1.4354,1.4008,1.2435,1.1903,1.1483,0.9954,0.953,0.9429,0.9412,0.93,0.9255,0.9241,0.9062,0.8908,0.8908,0.8895,0.8885,0.8885,0.8885,0.8885,0.8885,0.8885,0.8885,0.8885,0.0,0.0,0.8723,0.8584,0.8438,0.8333,0.7997,0.7712,0.748,0.7438,0.7448,0.7448,0.7448,0.7584,0.7862,0.7862,0.8011,0.8327,0.7461,0.7302,0.0,0.0,0.0,0.0,0.0,0.0,0.0,0.0,0.0,0.0,0.0,0.0,0.0,0.0,0.0,-1.3033,-1.2929,-1.2462,-1.1537,-1.0742,-0.9661,-0.8139,-0.7971,-0.8039,-0.8214,-0.8252,-0.837,-0.8608,-0.8679,-0.8815,-0.9108,-0.9176,-0.9265,-0.9334,-0.9486,-0.9581,-0.9608,-0.9724,-0.9795,-0.9761,0.0,0.0,-0.7299,-0.4668,-0.3076,-0.2401,-0.1048,-0.0309,0.0247,0.3568,0.6446,0.8894,0.9513,0.9737,0.9854,1.116,1.2876,1.4649,1.5934,1.7652,1.9199,1.8897,1.8776,1.8679,1.8147,1.7963,0.0,1.6389,1.604,1.5459,1.2816,1.2132,1.1702,1.013,0.9758,0.9703,0.9591,0.9544,0.9486,0.9361,0.9215,0.9169,0.9169,0.9015,0.8885,0.8885,0.8885,0.8885,0.8885,0.8885,0.8885,0.8885,0.8885,0.8821,0.8723,0.8682,0.8554,0.834,0.8096,0.7867,0.7733,0.7845,0.7864,0.7864,0.7864,0.8001,0.8184,0.8184,0.8272,0.8435,0.8147,0.8119,0.0,0.0,0.0,0.0,0.0,0.0,0.0,0.0,0.0,0.0,0.0,-0.983,0.0,0.0,-1.344,-1.4182,-1.3147,-1.2124,-1.1738,-1.013,-0.8775,-0.8088,-0.7988,-0.8099,-0.8255,-0.8385,-0.8469,-0.8693,-0.8781,-0.892,-0.9197,-0.9282,-0.9337,-0.949,-0.9639,-0.9717,-0.9717,-0.9785,-0.9822,-0.9758,-0.8158,-0.6933,-0.6077,-0.3628,-0.2033,-0.1233,-0.037,0.0,0.0247,0.3568,0.6813,0.9879,1.066,1.102,1.108,1.1916,1.3706,1.5902,1.6727,1.8046,1.9424,1.9424,1.9424,1.9397,1.9192,1.9145,1.8966,1.8192,1.7955,1.7454,1.5215,1.3999,1.2993,1.1378,1.0418,0.9802,0.973,0.9659,0.9588,0.951,0.9371,0.9299,0.9224,0.9093,0.9022,0.8895,0.8885,0.8885,0.8885,0.8885,0.8885,0.8885,0.8885,0.8851,0.8832,0.8754,0.8584,0.834,0.8197,0.8085,0.7884,0.7948,0.8025,0.8153,0.8153,0.8228,0.8377,0.8377,0.8452,0.8594,0.8523,0.853,0.0,0.0,0.0,0.0,0.0,0.0,0.0,0.0,-0.7876,-0.8402,-0.9757,-1.1335,-1.3041,-1.3673,-1.4252,-1.5244,-1.3251,-1.1637,-1.1871,-0.9653,-0.7988,-0.7988,-0.7988,-0.8109,-0.8292,-0.8414,-0.8557,-0.874,-0.8814,-0.9015,-0.9245,-0.9313,-0.9462,-0.9646,-0.9761,-0.9822,-0.9822,-0.9822,-0.9822,-0.9758,-0.7853,-0.62,-0.4856,-0.2893,-0.1295,0.0,0.0,0.037,0.1171,0.3813,0.6813,0.994,1.1559,1.2393,1.2693,1.3048,1.4767,1.7026,1.7384,1.8344,1.9424,1.9424,1.9424,1.9424,1.9424,1.9424,1.9424,1.9424,1.9424,1.9004,1.7443,1.602,1.4658,1.3048,1.1675,1.0721,1.0721,1.0621,1.0476,1.0182,0.9991,0.9783,0.9377,0.9248,0.9103,0.8905,0.8885,0.8885,0.8885,0.8885,0.8885,0.8885,0.8885,0.8885,0.8885,0.8798,0.8608,0.837,0.833,0.8255,0.8079,0.8076,0.8184,0.8361,0.8364,0.8384,0.8526,0.8526,0.8604,0.8757,0.8784,0.8798,-0.3001,-0.3635,-0.456,-0.5752,-0.5519,-0.5415,0.0,0.0,-0.8144,-0.9428,-1.1102,-1.2678,-1.3794,-1.4656,-1.5244,-1.5378,-1.3406,-1.1871,-1.1896,-0.9653,-0.7988,-0.7988,-0.7988,-0.815,-0.8431,-0.8472,-0.8601,-0.8838,-0.8871,-0.9062,-0.934,-0.9371,-0.951,-0.9788,-0.9812,-0.9822,-0.9822,-0.9822,-0.9822,-0.9758,-0.663,-0.51,-0.4794,-0.1663,-0.0185,0.0,0.0,0.1663,0.4364,0.4732,0.6813,0.994,1.1559,1.3048,1.448,1.5961,1.6668,1.7202,1.8642,1.9249,1.9424,1.9424,1.9424,1.9424,1.9424,1.9424,1.9424,1.9424,1.9424,1.9004,1.7443,1.685,1.6315,1.4718,1.4183,1.4063,1.4063,1.4049,1.3618,1.2183,1.1798,1.1259,0.9794,0.9334,0.9103,0.8905,0.8885,0.8885,0.8885,0.8885,0.8885,0.8885,0.8885,0.8885,0.8885,0.8798,0.8696,0.8662,0.8533,0.8452,0.8431,0.8431,0.8442,0.8459,0.8459,0.8533,0.8682,0.8682,0.8764,0.8861,0.9045,0.9159,-0.473,-0.5456,-0.6172,0.0,-0.8003,-0.8423,-0.8819,-0.9841,-1.0801,-1.1133,-1.2265,-1.3464,-1.4459,-1.4941,-1.5257,0.0,-1.3527,-1.1896,-1.1896,-0.9653,-0.7988,-0.7988,-0.7988,-0.8157,-0.8455,-0.8482,-0.8608,-0.8861,-0.8885,-0.9069,-0.9364,-0.9381,-0.9517,-0.9812,-0.9822,-0.9822,-0.9822,-0.9822,-0.9329,-0.8404,-0.6018,-0.4426,-0.3445,-0.1048,0.0,0.0,0.0,0.1848,0.4916,0.4916,0.6813,1.0061,1.2573,1.4009,1.4777,1.6433,1.7566,1.8467,1.9185,1.9424,1.9424,1.9424,1.9424,1.9424,1.9424,1.9424,1.9424,1.9424,1.9424,1.9249,1.8583,1.7683,1.685,1.6138,1.5252,1.4604,1.4604,1.4604,1.4426,1.371,1.3575,1.3244,1.2542,1.2329,1.2153,1.1954,1.0203,0.8885,0.8885,0.8885,0.8885,0.8885,0.8885,0.8885,0.8885,0.8824,0.8804,0.8716,0.8652,0.8574,0.8486,0.8482,0.8523,0.8615,0.8615,0.8689,0.879,0.879,0.892,0.9066,0.918,0.9306,-0.5893,-0.6839,0.0,-0.8885,-0.9874,-1.0508,-1.0335,-1.1492,-1.2528,-1.2218,-1.306,-1.4039,-1.4723,-1.5022,-1.5126,-1.5155,-1.3304,-1.1799,-1.1409,-0.941,-0.7988,-0.7988,-0.7988,-0.814,-0.8397,-0.8459,-0.8591,-0.8801,-0.8858,-0.9069,-0.9364,-0.9381,-0.9517,-0.9812,-0.9822,-0.9822,-0.9822,-0.9822,-0.9019,-0.736,-0.571,-0.4059,-0.2462,-0.074,0.0,0.0,0.0,0.1848,0.4916,0.4916,0.7116,1.0721,1.3526,1.4896,1.5488,1.7091,1.8402,1.9424,1.9424,1.9424,1.9424,1.9424,1.9424,1.9424,1.9424,1.9424,1.9424,1.9424,1.9424,1.9424,1.9424,1.8525,1.7683,1.7683,1.6797,1.5908,1.5908,1.5908,1.579,1.5375,1.5252,1.5081,1.4562,1.4422,1.4325,1.4209,1.1963,1.0143,0.9661,0.9182,0.8885,0.8885,0.8885,0.8885,0.8885,0.8885,0.8838,0.8781,0.8774,0.8723,0.8611,0.8608,0.8659,0.8771,0.8774,0.8828,0.8885,0.8977,0.9052,0.921,0.9296,0.9398,-0.5864,0.0,-0.8722,-1.0331,-1.0329,-1.0268,-1.1548,-1.1964,-1.2135,-1.2263,-1.3447,-1.4502,-1.4529,-1.4997,-1.4962,-1.3689,-1.2565,-1.1458,-1.0243,-0.8871,-0.7988,-0.7988,-0.7988,-0.8102,0.0,-0.8401,-0.8547,-0.8706,-0.8855,-0.9069,-0.9364,-0.9381,-0.9517,-0.9812,-0.9822,-0.9822,-0.9822,-0.9822,-0.9019,-0.736,-0.571,-0.4059,-0.2462,-0.074,0.0,0.0,0.0,0.1848,0.4916,0.4916,0.7776,1.2273,1.3944,1.5548,1.7144,1.8706,1.9366,1.9424,1.9424,1.9424,1.9424,1.9424,1.9424,1.9424,1.9424,1.9424,1.9424,1.9424,1.9424,1.9424,1.9424,1.9366,1.9307,1.9307,1.9307,1.9249,1.9249,1.9249,1.8765,1.7208,1.6909,1.6433,1.4831,1.4471,1.4376,1.4371,1.411,1.3318,1.1617,0.9957,0.8885,0.8885,0.8885,0.8885,0.8885,0.8885,0.8881,0.8875,0.8875,0.8875,0.8868,0.8868,0.8871,0.8875,0.8875,0.8878,0.8885,0.9079,0.9207,0.9217,0.9456,0.9602,-0.7382,0.0,-1.039,-1.198,-1.2367,-1.2532,-1.3198,-1.3377,-1.3394,-1.3208,-1.3563,-1.3684,-1.3035,-1.3151,-1.3061,-1.2253,-1.1241,-1.0382,-1.003,-0.8825,-0.7988,-0.7988,-0.7988,0.0,0.0,0.0,0.0,-0.8693,-0.8797,-0.9069,-0.9364,-0.9479,-0.9622,-0.9815,-0.9822,-0.9265,-0.8218,-0.8218,-0.6872,-0.4117,-0.2462,-0.1356,-0.0802,-0.0247,0.0,0.0,0.0,0.1848,0.4916,0.4916,0.7776,1.2333,1.3949,1.5607,1.7202,1.8823,1.9424,1.9424,1.9424,1.9424,1.9424,1.9424,1.9424,1.9424,1.9424,1.9424,1.9424,1.9424,1.9424,1.9424,1.9424,1.9424,1.9424,1.9424,1.9424,1.9424,1.9424,1.9424,1.9243,1.8706,1.8583,1.8409,1.787,1.7738,1.7615,1.743,1.5361,1.3289,1.172,1.0837,0.997,0.8992,0.8885,0.8885,0.8885,0.8885,0.8885,0.8885,0.8885,0.8885,0.8885,0.8885,0.8885,0.8885,0.8885,0.8984,0.9083,0.9187,0.9313,0.9459,0.9561,0.9659,-0.8424,-1.0233,-1.1801,-1.3048,-1.354,-1.3854,-1.4041,-1.4008,-1.3841,-1.3507,-1.3112,-1.2633,-1.1896,-1.1681,-1.1395,-1.075,-1.0092,-0.9606,-0.9329,-0.8528,-0.8012,-0.8116,-0.8123,-0.7938,0.0,0.0,0.0,-0.7805,-0.8588,-0.8894,-0.8604,-0.9225,-0.9676,-0.9815,-0.9265,-0.8465,-0.7421,-0.6811,-0.5158,-0.2462,-0.0802,0.0,0.0,0.0,0.0,0.0062,0.0617,0.2401,0.4916,0.5527,0.8684,1.3172,1.4187,1.5908,1.7981,1.901,1.9424,1.9424,1.9424,1.9424,1.9424,1.9424,1.9424,1.9424,1.9424,1.9424,1.9424,1.9424,1.9424,1.9424,1.9424,1.9424,1.9424,1.9424,1.9424,1.9424,1.9424,1.9424,1.9424,1.9424,1.9424,1.9424,1.9424,1.9424,1.9299,1.9112,1.7053,1.4787,1.2562,1.1662,1.0634,0.9054,0.8885,0.8885,0.8885,0.8885,0.8885,0.8885,0.8885,0.8885,0.8885,0.8885,0.8885,0.8885,0.8988,0.9059,0.921,0.932,0.9415,0.9612,0.9659,0.9734,-0.8975,-1.1061,-1.2971,-1.348,-1.3881,-1.4082,-1.4068,-1.3834,-1.3487,-1.3167,-1.2227,-1.1354,0.0,0.0,-1.0002,-0.911,-0.92,-0.9044,-0.8043,-0.7895,-0.7952,0.0,0.0,0.0,0.0,0.0,0.0,-0.6109,0.0,-0.841,-0.7142,-0.8635,-0.956,-0.9694,-0.8218,-0.7299,-0.7177,-0.5466,-0.3873,-0.234,-0.074,0.0,0.0,0.0,0.0,0.0123,0.1787,0.3383,0.5039,0.6689,1.0258,1.4604,1.4604,1.6568,1.9424,1.9424,1.9424,1.9424,1.9424,1.9424,1.9424,1.9424,1.9424,1.9424,1.9424,1.9424,1.9424,1.9424,1.9424,1.9424,1.9424,1.9424,1.9424,1.9424,1.9424,1.9424,1.9424,1.9424,1.9424,1.9424,1.9424,1.9424,1.9424,1.9424,1.9424,1.9424,1.9125,1.7692,1.4296,1.2567,1.0939,0.9238,0.895,0.8892,0.8885,0.8885,0.8885,0.8885,0.8885,0.8888,0.8895,0.8895,0.8898,0.8905,0.9096,0.9224,0.9234,0.9466,0.9612,0.9625,0.9758,0.9822,-0.9761,-1.1637,-1.3507,-1.3881,-1.4035,-1.4028,-1.3766,-1.3527,-1.2949,-1.1676,-1.1021,-1.0137,0.0,0.0,0.0,-0.7438,-0.7766,0.0,-0.6644,-0.6507,0.0,-0.521,0.0,-0.4958,-0.461,-0.4668,0.0,0.0,-0.4738,-0.6104,-0.7026,-0.7636,-0.8005,-0.8033,-0.7604,-0.6198,-0.3749,-0.2094,-0.1048,-0.0617,-0.0185,0.0,0.0,0.0,0.0,0.0123,0.1787,0.3383,0.5039,0.6689,1.0258,1.4604,1.4604,1.6568,1.9424,1.9424,1.9424,1.9424,1.9424,1.9424,1.9424,1.9424,1.9424,1.9424,1.9424,1.9424,1.9424,1.9424,1.9424,1.9424,1.9424,1.9424,1.9424,1.9424,1.9424,1.9424,1.9424,1.9424,1.9424,1.9424,1.9424,1.9424,1.9424,1.9424,1.9424,1.9424,1.9305,1.8467,1.6239,1.4395,1.2641,1.0999,0.9819,0.9055,0.8892,0.8885,0.8885,0.8885,0.8885,0.8988,0.9093,0.9096,0.915,0.9266,0.9303,0.9381,0.9493,0.9571,0.9663,0.9768,0.9802,0.9822,-1.0045,-1.1633,-1.3182,-1.3915,-1.4088,-1.3941,-1.3373,-1.3019,-1.2331,-1.0584,-0.9697,0.0,-0.6998,-0.6784,0.0,0.0,0.0,0.0,-0.5234,-0.5103,-0.4868,0.0,-0.4087,0.0,-0.3254,-0.3253,-0.2685,0.0,-0.3269,-0.4717,-0.509,-0.5877,-0.6322,-0.6322,-0.5647,-0.3995,-0.1417,-0.0494,0.0,0.0,0.0,0.0,0.0,0.0,0.0,0.0125,0.2531,0.4073,0.5084,0.7444,1.0457,1.3651,1.4307,1.6149,1.8402,1.9127,1.9424,1.9424,1.9424,1.8946,1.8344,1.8344,1.8823,1.9243,1.8583,1.8823,1.9424,1.9424,1.8887,1.8525,1.9249,1.8887,1.8525,1.9243,1.9424,1.9424,1.9424,1.9424,1.9424,1.9424,1.9424,1.9424,1.9424,1.9424,1.9424,1.9424,1.9424,1.9003,1.8,1.6287,1.4215,1.1864,1.083,1.0008,0.9197,0.9133,0.9133,0.9133,0.9133,0.9167,0.9306,0.9309,0.935,0.9381,0.9449,0.9523,0.9608,0.9673,0.9744,0.9822,0.9822,0.9822,-0.9914,-1.1245,-1.2553,-1.3649,-1.3955,-1.3801,-1.2978,-1.2489,-1.1644,-0.9713,0.0,-0.7307,-0.6339,-0.5745,-0.5215,-0.4728,0.0,-0.4639,-0.3824,-0.3733,-0.3701,-0.3654,-0.3618,-0.3188,-0.201,-0.193,-0.1378,-0.0115,-0.2509,-0.3612,-0.2584,-0.3842,-0.4611,-0.4611,-0.3016,-0.1479,0.0,0.0,0.0,0.0,0.0,0.0,0.0,0.0,0.0,0.0189,0.3472,0.4897,0.5126,0.8451,1.0778,1.2337,1.377,1.5429,1.7144,1.8583,1.9249,1.9366,1.9185,1.8163,1.7026,1.7026,1.7806,1.8525,1.7091,1.7689,1.8765,1.8765,1.7923,1.7267,1.8467,1.787,1.7325,1.8765,1.9068,1.9127,1.9366,1.9424,1.9424,1.9424,1.9424,1.9424,1.9424,1.9424,1.9424,1.9424,1.9424,1.9424,1.9424,1.7827,1.5656,1.2749,1.2104,1.1236,0.9841,0.9497,0.9381,0.9381,0.9381,0.9391,0.9412,0.9412,0.9418,0.9439,0.9568,0.9639,0.9639,0.9761,0.9822,0.9822,0.9822,0.9832,-0.9182,-1.0799,-1.2381,-1.2784,-1.33,-1.3547,-1.2931,-1.2138,0.0,0.0,-0.77,-0.6711,-0.5135,-0.4522,-0.4268,-0.4276,0.0,0.0,0.0,0.0,-0.196,0.0,0.0,0.0,0.0,-0.0398,0.0,0.0,-0.0536,-0.1321,-0.2466,-0.2747,-0.2893,-0.2893,-0.1295,-0.0309,0.0,0.0,0.0,0.0,0.0,0.0,0.0,0.0,0.0,0.0186,0.3491,0.0,0.5179,0.8419,1.0778,1.2213,1.2513,1.4416,1.7026,1.7325,1.8286,1.9185,1.7864,1.7202,1.7026,1.7026,1.6262,1.5375,1.5079,1.5198,1.5435,1.5435,1.6203,1.6791,1.573,1.6203,1.7085,1.7325,1.7443,1.78,1.9127,1.9424,1.9424,1.9424,1.9424,1.9424,1.9424,1.9424,1.9424,1.9424,1.9424,1.9424,1.9424,1.7944,1.6675,1.5949,1.35,1.1828,1.1393,1.0185,0.9381,0.9381,0.9381,0.9439,0.9564,0.9568,0.9625,0.9741,0.9771,0.9785,0.9785,0.9808,0.9822,0.9822,0.9822,0.989,-0.8877,-1.0371,-1.1816,-1.2428,-1.323,-1.3554,-1.2338,0.0,0.0,0.0,-0.6748,-0.5902,-0.4722,0.0,0.0,0.0,0.0,0.0,0.0,0.0,0.0,0.0,0.0,0.0,0.0,0.0,0.0,0.0,0.0,-0.0366,-0.1158,-0.1228,-0.1171,-0.1171,-0.0432,0.0,0.0,0.0,0.0,0.0,0.0,0.0,0.0,0.0,0.0,0.0187,0.3482,0.4905,0.5155,0.8433,1.024,1.102,1.1856,1.3163,1.4708,1.6374,1.7507,1.8163,1.8221,1.7149,1.5725,1.5725,1.5252,1.4426,1.3586,1.3949,1.4604,1.4604,1.454,1.4535,1.4604,1.454,1.4945,1.6609,1.7026,1.7208,1.7981,1.7513,1.7155,1.7987,1.8163,1.8163,1.8163,1.8829,1.9424,1.9424,1.9424,1.9424,1.9424,1.8706,1.7873,1.6966,1.5481,1.3918,1.2136,1.1311,1.0491,0.9668,0.9608,0.9642,0.9717,0.972,0.9751,0.9819,0.9822,0.9822,0.9822,0.9822,0.9822,0.9822,0.9842,0.9916,-0.8346,-0.966,-1.0855,-1.1655,-1.2541,-1.2889,-1.1455,-1.0267,0.0,0.0,-0.6069,-0.5296,-0.4625,0.0,-0.3178,0.0,-0.1663,0.0,0.0,0.0,0.0,0.0,0.0,0.0,0.0,0.0,0.0,0.042,0.0183,0.0,0.0,0.0,0.0,0.0,0.0,0.0,0.0,0.0,0.0,0.0,0.0,0.0,0.0,0.0,0.0,0.0188,0.3475,0.49,0.5181,0.8448,0.9822,0.994,1.1197,1.1916,1.2513,1.5063,1.6433,1.7144,1.8046,1.6744,1.454,1.4187,1.383,1.3352,1.2097,1.2573,1.3591,1.3591,1.2933,1.2393,1.3352,1.2873,1.2868,1.5359,1.625,1.6492,1.6492,1.5488,1.4955,1.6256,1.6492,1.6615,1.6968,1.8046,1.9004,1.9366,1.9424,1.9424,1.9424,1.9424,1.8946,1.7624,1.7208,1.5838,1.2988,1.2393,1.1499,0.9879,0.9822,0.9822,0.9822,0.9822,0.9822,0.9822,0.9822,0.9822,0.9822,0.9822,0.9839,0.9873,0.993,1.0021,-0.7204,-0.8277,-0.9287,-0.9422,-1.0019,-1.052,-1.0288,0.0,0.0,-0.7208,-0.6221,-0.5296,-0.4625,-0.3309,0.0,0.0,0.0,-0.0123,0.0,0.0,0.0,0.0,0.0,0.0,0.0,0.0,0.0,0.1883,0.0728,0.0,0.0,0.0,0.0,0.0,0.0,0.0,0.0,0.0,0.0,0.0,0.0,0.0,0.0,0.0,0.0,0.0186,0.3494,0.4917,0.0,0.8474,0.9822,0.9822,0.994,1.0899,1.2213,1.2513,1.447,1.6791,1.5494,1.4842,1.4366,1.2873,1.1438,1.0179,1.0061,1.0119,1.024,1.024,1.1197,1.1916,1.06,1.1201,1.2273,1.2573,1.3765,1.4842,1.4842,1.4723,1.4663,1.4777,1.4842,1.5252,1.6727,1.7144,1.7741,1.9185,1.9424,1.9424,1.9424,1.9424,1.9366,1.9185,1.7864,1.6315,1.454,1.3053,1.1499,0.9879,0.9822,0.9822,0.9822,0.9822,0.9822,0.9822,0.9822,0.9822,0.9822,0.9822,0.9893,0.9967,0.998,1.0132,-0.6984,-0.8135,-0.9201,-0.9111,-0.9651,-1.0013,-0.9358,0.0,-0.7011,-0.628,-0.5487,-0.4673,-0.3956,-0.295,-0.2052,-0.161,-0.0686,0.0221,0.0884,0.0,0.0,0.0,0.0,0.0,0.0,0.0,0.2722,0.2414,0.0918,0.0,0.0,0.0,0.0,0.0,0.0,0.0,0.0,0.0,0.0,0.0,0.0,0.0,0.0,0.0,0.0,0.0185,0.3465,0.4882,0.0,0.8471,0.9822,0.9822,0.9822,1.0179,1.0899,1.1856,1.2988,1.4292,1.5607,1.4772,1.3232,1.3531,1.1916,0.9839,0.9869,0.9896,0.9916,1.0073,1.0592,1.0897,1.0281,1.1262,1.2213,1.1133,1.2081,1.3258,1.3195,1.2393,1.1976,1.2993,1.3172,1.3347,1.3994,1.572,1.7208,1.7864,1.8765,1.9424,1.9424,1.9424,1.9424,1.9424,1.8823,1.7396,1.4842,1.4009,1.2513,0.994,0.9822,0.9822,0.9822,0.9822,0.9822,0.9822,0.9822,0.9866,0.9896,0.9896,1.0039,1.0188,1.0276,1.0378,-0.6756,-0.7701,-0.8549,-0.84,-0.8742,-0.8918,0.0,-0.6937,-0.5816,-0.5545,-0.478,-0.4015,-0.3483,-0.2728,-0.1949,-0.1227,-0.0258,0.069,0.1553,0.1966,0.0,0.0,0.0,0.0,0.0,0.4777,0.4033,0.2501,0.0923,0.0,0.0,0.0,0.0,0.0,0.0,0.0,0.0,0.0494,0.074,0.074,0.1233,0.1479,0.1479,0.1479,0.1479,0.1602,0.4424,0.5649,0.0,0.8653,0.9822,0.9822,0.9822,0.9822,0.994,1.108,1.1796,1.2513,1.4767,1.4118,1.2393,1.3526,1.2074,0.9917,1.007,1.0024,1.0017,1.0236,1.028,1.028,1.028,1.115,1.1681,1.0388,1.0882,1.1668,1.1541,1.0673,1.0175,1.1269,1.1542,1.1679,1.2105,1.4054,1.5897,1.685,1.7981,1.8881,1.9366,1.9424,1.9424,1.9424,1.9424,1.811,1.4842,1.4604,1.3228,1.0001,0.9822,0.9822,0.9822,0.9822,0.9822,0.9822,0.9866,0.9879,0.9987,1.0034,1.0195,1.0344,1.0446,1.0517,-0.6265,-0.6597,-0.6895,-0.6746,-0.6631,-0.6588,0.0,-0.5335,-0.4309,-0.529,-0.4388,-0.34,-0.3317,-0.2704,-0.1969,-0.1219,0.0258,0.1406,0.1753,0.2531,0.0,0.0,0.0,0.0,0.0,0.5189,0.3837,0.2343,0.0856,0.0,0.0,0.0,0.0,0.0,0.0,0.0,0.0,0.1663,0.2462,0.2462,0.4059,0.4855,0.4855,0.4855,0.4855,0.4916,0.6628,0.736,0.0,0.9143,0.9822,0.9822,0.9822,0.9822,0.9822,0.9822,1.0838,1.2213,1.2213,1.2213,1.2213,1.2217,1.1195,1.0014,1.0232,1.0171,1.0017,1.0236,1.028,1.028,1.028,1.028,1.0343,1.028,1.0161,1.0049,1.0046,0.9984,0.994,0.9849,0.9944,1.0486,1.1949,1.2213,1.3343,1.6492,1.7026,1.7624,1.9185,1.9424,1.9424,1.9424,1.9424,1.811,1.4842,1.4604,1.3228,1.0001,0.9822,0.9822,0.9822,0.9822,0.9822,0.9822,0.9909,0.9984,0.9987,1.0205,1.0351,1.049,1.049,1.0571,-0.5,-0.5295,-0.5371,-0.4743,-0.4384,-0.4152,-0.4099,-0.3525,-0.3032,-0.3207,-0.2894,-0.2425,-0.1898,-0.1619,-0.0926,0.0643,0.1381,0.0,0.0,0.0,0.0,0.0,0.0,0.0,0.0,0.0,0.3891,0.2482,0.0902,0.0,0.0,0.0,0.0,0.0,0.0,0.0555,0.1725,0.2217,0.3076,0.4119,0.4671,0.4916,0.4916,0.4916,0.4916,0.4977,0.6689,0.7421,0.7543,0.9143,0.9822,0.9822,0.9822,0.9822,0.9832,0.9876,1.0283,1.0845,1.2118,1.1794,1.1062,1.2163,1.1463,1.0232,1.0382,1.0392,1.0385,1.0538,1.0582,1.0582,1.0582,1.0582,1.0555,1.0449,1.0388,1.0324,1.0229,1.0209,1.0195,1.0144,1.0175,1.0377,1.0826,1.1794,1.2899,1.3939,1.4983,1.615,1.7685,1.7905,1.8258,1.9269,1.9424,1.8525,1.6433,1.5252,1.371,1.1559,1.0422,0.9822,0.9822,0.9859,0.9916,0.9916,1.0127,1.0256,1.0351,1.0402,1.0504,1.0649,1.0649,1.0673,0.0,-0.4052,-0.4097,-0.3536,-0.3203,-0.2977,-0.286,-0.2433,-0.2063,-0.2191,-0.1981,-0.1647,-0.1174,-0.0865,-0.0173,0.1376,0.2261,0.0,0.0,0.0,0.0,0.0,0.0,0.0,0.0,0.5392,0.3908,0.25,0.0887,0.0,0.0,0.0,0.0,0.0,0.0,0.0802,0.2462,0.3076,0.4242,0.5833,0.6446,0.6752,0.6752,0.6752,0.6752,0.6813,0.7853,0.8279,0.0,0.939,0.9822,0.9822,0.9822,0.9822,0.9832,0.9866,0.9936,1.0184,1.1268,1.1099,1.0467,1.1463,1.1632,1.1396,1.1492,1.1094,1.0599,1.0694,1.0721,1.0721,1.0721,1.0721,1.0697,1.0602,1.0534,1.0466,1.0378,1.0361,1.0344,1.029,1.0324,1.0344,1.029,1.1154,1.202,1.2578,1.3515,1.4648,1.6176,1.6398,1.6954,1.8555,1.872,1.8595,1.8226,1.603,1.4005,1.2379,1.0811,0.9995,0.9995,1.0086,1.0137,1.0137,1.0283,1.0405,1.049,1.0551,1.0626,1.0721,1.0721,1.0721,0.0,-0.2725,0.0,-0.2814,-0.2657,-0.2523,-0.2519,-0.1792,0.0,-0.1909,-0.1507,-0.1036,-0.1012,-0.042,0.0401,0.1298,0.0,0.0,0.0,0.0,0.0,0.0,0.0,0.0,0.664,0.527,0.3885,0.2287,0.0815,0.0,0.0,0.0,0.0,0.0,0.0,0.0863,0.2647,0.418,0.5772,0.7604,0.9083,0.9822,0.9822,0.9822,0.9822,0.0,0.9822,0.9822,0.9822,0.9822,0.9822,0.9822,0.9822,0.9822,0.9822,0.9832,0.9866,0.999,1.0011,1.0238,1.0548,1.0622,1.1855,1.3345,1.3461,1.2285,1.085,1.085,1.0784,1.0721,1.0721,1.0721,1.0721,1.0721,1.0612,1.0507,1.0507,1.0507,1.047,1.0337,1.0419,1.0466,1.0334,1.0314,1.0813,1.2304,1.2557,1.3115,1.4658,1.4845,1.552,1.7245,1.7553,1.8239,1.9863,1.6962,1.4338,1.2702,1.1258,1.0407,1.028,1.029,1.0297,1.0297,1.0436,1.0507,1.0507,1.0653,1.0721,1.0721,1.0721,1.0721,0.0918,0.0,-0.0721,-0.0059,0.0551,0.0719,0.0,-0.0028,0.0338,0.0,0.0,0.0,-0.0269,0.0413,0.0,0.0,0.0,0.0,0.0,0.0,0.0,0.0,0.0,0.8236,0.6769,0.5367,0.3877,0.2304,0.0858,0.0,0.0,0.0,0.0,0.0,0.0,0.14,0.4303,0.4734,0.6385,0.9265,0.9636,0.9822,0.9822,0.9822,0.9822,0.9822,0.9822,0.9822,0.9822,0.9822,0.9822,0.9822,0.9822,0.9822,0.9836,0.9889,0.9957,1.0017,1.031,1.1298,1.2683,1.4106,1.4895,1.5266,1.525,1.4101,1.2672,1.2672,1.1762,1.0721,1.0721,1.0721,1.0721,1.0721,1.0694,1.0666,1.0666,1.0666,1.0656,1.0622,1.0643,1.0656,1.0622,1.0616,1.0747,1.113,1.1195,1.1731,1.3191,1.3361,1.3934,1.5458,1.6803,1.7743,1.8172,1.7556,1.6469,1.4742,1.3121,1.172,1.0343,1.0385,1.0443,1.0443,1.0588,1.0666,1.0666,1.0704,1.0721,1.0721,1.0721,1.0721,0.2508,0.157,0.0498,0.0994,0.1157,0.0976,0.0175,0.0,0.0,0.0,0.0,0.0,0.0,0.0,0.0,0.0,0.0,0.0,0.0,0.0,0.0,0.0,0.0,0.8322,0.0,0.5977,0.486,0.3353,0.1861,0.1025,0.1033,0.0348,0.0,0.0,0.0,0.1577,0.4855,0.4916,0.6569,0.9822,0.9822,0.9822,0.9822,0.9822,0.9822,0.9822,0.9822,0.9822,0.9822,0.9822,0.9822,0.9822,0.9822,0.9822,0.9832,0.9852,0.9926,1.0011,1.0232,1.1513,1.3388,1.5261,1.6431,1.7082,1.7082,1.6436,1.5334,1.3779,1.2606,1.1699,1.0916,1.0721,1.0721,1.0721,1.0721,1.0721,1.0721,1.0721,1.0721,1.0721,1.0721,1.0721,1.0721,1.0721,1.0721,1.0721,1.0721,1.1017,1.1773,1.1888,1.2495,1.4048,1.5052,1.6255,1.7901,1.8089,1.7724,1.6664,1.4365,1.2648,1.1694,1.1004,1.0599,1.0599,1.0677,1.0721,1.0721,1.0721,1.0721,1.0721,1.0721,1.0721,0.314,0.2312,0.1254,0.127,0.0806,0.0267,0.0061,0.0,0.0,0.0,0.0,0.0,0.0,0.0,0.0,0.0,0.0,0.0,0.0,0.0,0.0,0.0,0.0,0.0,0.7146,0.6813,0.62,0.4916,0.3408,0.2474,0.2224,0.1029,0.0231,0.0,0.0238,0.1813,0.4899,0.4911,0.6569,0.9822,0.9822,0.9822,0.9822,0.9822,0.9822,0.9822,0.0,0.0,0.9822,0.9822,0.9822,0.9822,0.9822,0.9822,0.9822,0.9822,0.9842,1.0077,1.059,1.1988,1.3828,1.5931,1.7633,1.8896,1.8896,1.8896,1.8186,1.4684,1.3517,1.2869,1.1178,1.0721,1.0721,1.0721,1.0721,1.0721,1.0721,1.0721,1.0721,1.0721,1.0721,1.0721,1.0721,1.0721,1.0721,1.0721,1.0721,1.0721,1.0721,1.0721,1.124,1.2738,1.3128,1.4488,1.7468,1.818,1.8412,1.8201,1.5619,1.384,1.332,1.1633,1.0721,1.0721,1.0721,1.0721,1.0721,1.0721,1.0721,1.0721,1.0721,1.0721,0.3259,0.2669,0.2026,0.2022,0.196,0.1528,0.0296,0.0,0.0,0.0,0.0,0.0,0.0,0.0,0.0,0.0,0.0,0.0,0.0,0.0,0.0,0.0,0.0,0.8685,0.8592,0.7426,0.6589,0.6366,0.4972,0.358,0.2244,0.1964,0.1302,0.0058,0.1404,0.3028,0.4881,0.4884,0.6569,0.9822,0.9822,0.9822,0.9822,0.9822,0.9822,0.9822,0.0,0.9822,0.9822,0.9822,0.9822,0.9822,0.9822,0.9822,0.9822,0.9822,0.9836,1.0236,1.3227,1.4715,1.5838,1.8937,2.0324,2.0716,2.0716,2.0716,1.9998,1.6496,1.4423,1.2869,1.1178,1.0721,1.0721,1.0721,1.0721,1.0721,1.0721,1.0721,1.0721,1.0721,1.0721,1.0721,1.0721,1.0721,1.0721,1.0721,1.0721,1.0721,1.0721,1.0721,1.0784,1.1045,1.2413,1.3517,1.4036,1.6824,1.8489,1.8448,1.7971,1.6366,1.3386,1.1633,1.0721,1.0721,1.0721,1.0721,1.0721,1.0721,1.0721,1.0721,1.0721,1.0721,0.3293,0.2481,0.1613,0.1601,0.13,0.0844,0.0163,0.0,0.0,0.0,0.0,0.0,0.0,0.0,0.0,0.0,0.0,0.0,0.0,0.0,0.8347,0.0,0.0,0.8737,0.8808,0.8222,0.7875,0.7875,0.6533,0.5027,0.3521,0.2626,0.1516,0.0057,0.1495,0.3139,0.4798,0.5634,0.7367,0.9822,0.9822,1.024,1.108,1.108,1.1559,1.2333,0.0,1.108,1.102,1.0179,0.9822,0.9822,0.9822,0.9822,0.9822,0.9822,0.9822,1.0322,1.3761,1.512,1.5949,1.9553,2.0768,2.0902,2.1062,2.1109,2.0589,1.7988,1.6043,1.4297,1.2545,1.2088,1.2347,1.332,1.3517,1.3259,1.2285,1.2088,1.1828,1.085,1.0721,1.0721,1.0721,1.0721,1.0721,1.0721,1.0721,1.0721,1.0721,1.0721,1.0721,1.0721,1.1439,1.2285,1.3193,1.4749,1.6496,1.8378,1.7602,1.5983,1.3386,1.1633,1.0721,1.0721,1.0721,1.0721,1.0721,1.0721,1.0721,1.0721,1.0721,1.0721,0.3151,0.2225,0.1284,0.0918,0.0,0.0,0.0,0.0,0.0,0.0,0.0,0.0,0.0,0.0,0.0,0.0,0.0,0.0,0.0,0.814,0.8231,0.832,0.8469,0.8635,0.8703,0.8815,0.8844,0.8881,0.7875,0.6589,0.5085,0.391,0.2571,0.112,0.2499,0.3891,0.5203,0.6825,0.8361,0.9771,1.0162,1.102,1.2217,1.2573,1.3407,1.4545,1.3292,1.2573,1.2093,1.0899,1.0122,0.9822,0.9822,0.9822,0.9822,0.9822,0.9822,1.0318,1.3704,1.4948,1.5603,1.9394,2.0621,2.0728,2.1022,2.1109,2.0722,1.896,1.7538,1.6108,1.4358,1.3905,1.4232,1.5594,1.5913,1.5399,1.3713,1.3325,1.2804,1.1045,1.0721,1.0721,1.0721,1.0721,1.0721,1.0721,1.0721,1.0721,1.0721,1.0721,1.0721,1.0721,1.0721,1.1439,1.3128,1.3325,1.4619,1.7731,1.663,1.5139,1.3386,1.1633,1.0721,1.0721,1.0721,1.0721,1.0721,1.0721,1.0721,1.0721,1.0721,1.0721,0.2663,0.2211,0.1778,0.0432,0.003,0.0,0.0,0.0,0.0,0.0,0.0,0.0,0.0,0.0,0.0,0.0,0.0,0.0,0.0,0.0,0.8109,0.8252,0.834,0.8411,0.8682,0.872,0.8784,0.8871,0.8826,0.8097,0.6647,0.6422,0.5695,0.4247,0.5727,0.663,0.6744,0.8381,0.9355,0.9625,1.1243,1.2097,1.2273,1.3765,1.4485,1.4604,1.4485,1.3591,1.2213,1.2097,1.1137,0.9822,0.9822,0.9822,0.9822,0.9822,0.9822,1.024,1.3485,1.4761,1.5576,1.9105,2.0454,2.0728,2.1022,2.1109,2.0722,1.896,1.8442,1.7923,1.6172,1.5719,1.5719,1.5848,1.5913,1.5399,1.3713,1.3325,1.2804,1.1045,1.0721,1.0721,1.0721,1.0721,1.0721,1.0721,1.0721,1.0721,1.0721,1.0721,1.0721,1.0721,1.0721,1.1439,1.3128,1.3325,1.4101,1.5978,1.5978,1.5139,1.3386,1.1633,1.0721,1.0721,1.0721,1.0721,1.0721,1.0721,1.0721,1.0721,1.0721,1.0721,0.2492,0.1862,0.1267,0.0253,0.0,0.0,0.0,0.0,0.0,0.0,0.0,0.0,0.0,0.0,0.0,0.0,0.0,0.0,0.7988,0.7988,0.8012,0.8119,0.8211,0.8316,0.8425,0.8604,0.8733,0.8794,0.8828,0.8266,0.6758,0.6702,0.6031,0.4528,0.5956,0.6761,0.6761,0.8417,0.9717,1.0685,1.1603,1.2627,1.3633,1.5301,1.6621,1.7519,1.6556,1.572,1.5004,1.3048,1.1856,1.1197,1.0179,0.9822,0.9822,0.9822,1.0418,1.1619,1.3825,1.531,1.6703,1.9331,2.0307,2.0488,2.0962,2.1109,2.0976,2.0322,2.0132,1.9737,1.7988,1.7532,1.7795,1.8896,1.9158,1.8378,1.5524,1.4944,1.4101,1.124,1.0721,1.0721,1.0721,1.0721,1.0721,1.0721,1.0721,1.0721,1.0721,1.0721,1.0721,1.0721,1.0721,1.0982,1.1633,1.2672,1.3582,1.4232,1.4297,1.397,1.332,1.1633,1.0721,1.0721,1.0721,1.0721,1.0721,1.0721,1.0721,1.0721,1.0721,1.0721,0.2493,0.1875,0.1286,0.0,0.0,0.0,0.0,0.0,0.0,0.0,0.0,0.0,0.0,0.0,0.0,0.0,0.0,0.7988,0.7988,0.8382,0.8627,0.8627,0.9126,0.9318,0.8914,0.9064,0.9005,0.8688,0.8781,0.8423,0.7367,0.7351,0.6924,0.5919,0.6869,0.7371,0.7371,0.8525,0.9801,1.1236,1.2113,1.3394,1.497,1.6708,1.8078,1.9034,1.8051,1.7316,1.6675,1.4564,1.3108,1.2037,1.0418,0.9822,0.9822,0.9822,1.0842,1.2453,1.4063,1.5666,1.7338,1.9382,2.0094,2.0207,2.0795,2.0969,2.0989,2.1082,2.1109,2.0849,1.961,1.9349,1.961,2.0849,2.1109,2.0329,1.7339,1.6307,1.5009,1.2088,1.1111,1.0721,1.0721,1.0721,1.0721,1.0721,1.0721,1.0721,1.0721,1.0721,1.0721,1.0721,1.0721,1.0721,1.0721,1.1762,1.2738,1.3259,1.3325,1.3325,1.3325,1.2153,1.124,1.0721,1.0721,1.0721,1.0721,1.0721,1.0721,1.0721,1.0721,1.0721,0.2663,0.2344,0.2116,0.0,0.0,0.0,0.0,0.0,0.0,0.0,0.0,0.0,0.5784,0.0,0.0,0.7787,0.7891,0.7988,0.8041,0.9167,0.9998,0.9998,1.1116,1.1442,1.0339,1.0209,0.9733,0.8622,0.8621,0.871,0.871,0.8797,0.8881,0.8881,0.8885,0.8885,0.8885,0.894,0.9644,1.1164,1.2882,1.4545,1.6136,1.7742,1.849,1.8504,1.8791,1.7983,1.654,1.6856,1.5069,1.2037,1.0418,0.9822,0.9822,0.9822,1.0838,1.2453,1.4063,1.5666,1.7309,1.9213,1.98,1.9907,2.0494,2.0675,2.0735,2.1022,2.1109,2.1109,2.1109,2.1109,2.1109,2.1109,2.1109,2.0589,1.8896,1.7146,1.5394,1.3648,1.1894,1.0717,1.0717,1.0721,1.0721,1.0721,1.0721,1.0721,1.0721,1.0721,1.0721,1.0721,1.0721,1.0721,1.0721,1.0721,1.1501,1.3193,1.3325,1.3325,1.332,1.332,1.2475,1.0784,1.0717,1.0721,1.0721,1.0721,1.0721,1.0721,1.0721,1.0721,0.3253,0.3125,0.0,0.0,0.0,0.0,0.0,0.0,0.0,0.0,0.0,0.0,0.7017,0.0,0.0,0.7804,0.7891,0.8333,0.9262,0.9752,1.0337,1.1219,1.1653,1.1775,1.1447,1.0684,1.0083,0.9737,0.8978,0.855,0.855,0.8696,0.8777,0.8777,0.8828,0.8885,0.8885,0.9915,1.1214,1.2674,1.4196,1.5284,1.6038,1.7708,1.849,1.8497,1.8577,1.8443,1.8065,1.6102,1.4059,1.2037,1.0418,0.9822,0.994,1.108,1.2513,1.4123,1.5725,1.7331,1.881,1.9581,1.98,1.9867,2.0247,2.0508,2.0695,2.0782,2.0949,2.1109,2.1109,2.1109,2.1109,2.1109,2.1109,2.0589,1.8896,1.8116,1.7211,1.5464,1.3713,1.2545,1.2545,1.1501,1.0721,1.0721,1.0721,1.0721,1.0721,1.0721,1.0721,1.0721,1.0721,1.0721,1.0721,1.1828,1.3259,1.5009,1.6302,1.6431,1.52,1.5139,1.4297,1.2545,1.2545,1.196,1.0721,1.0721,1.0721,1.0721,1.0721,1.0721,0.3682,0.0,0.0,0.0,0.0,0.0,0.0,0.0,0.0,0.0,0.0,0.0,0.0,0.7851,0.0,0.7892,0.8417,0.9069,0.9899,1.0872,1.1843,1.2624,1.3156,1.3258,1.2721,1.157,1.0653,1.0154,0.9072,0.8397,0.8397,0.8537,0.8618,0.8618,0.8767,0.8849,0.8849,1.0315,1.1864,1.3324,1.4716,1.5827,1.6588,1.7657,1.813,1.8136,1.825,1.8537,1.8647,1.564,1.3921,1.2933,1.066,1.0179,1.0899,1.1856,1.3646,1.5666,1.6668,1.8046,1.9457,1.9573,1.9626,1.9679,1.9973,2.0267,2.0528,2.0641,2.0882,2.1109,2.1109,2.1109,2.1109,2.1109,2.1109,2.0786,1.9744,1.896,1.818,1.7146,1.5524,1.4101,1.3386,1.2413,1.1505,1.0784,1.0721,1.0721,1.0721,1.0721,1.0721,1.0721,1.0721,1.0979,1.1699,1.2672,1.4362,1.6754,1.7923,1.8314,1.7988,1.7275,1.6108,1.4358,1.4358,1.384,1.2738,1.2738,1.2738,1.2738,1.2738,1.2738,0.0,0.0,0.0,0.0,0.0,0.0,0.0,0.0,0.0,0.0,0.0,0.0,0.0,0.7877,0.7879,0.8163,0.9217,1.0096,1.0337,1.242,1.3926,1.407,1.5099,1.5343,1.4166,1.2861,1.1556,1.0293,0.9117,0.8401,0.8299,0.8539,0.8668,0.8668,0.8924,0.9069,0.9083,1.0675,1.2113,1.3534,1.4931,1.628,1.7582,1.7582,1.7582,1.7595,1.7889,1.833,1.8555,1.5569,1.443,1.4277,1.1189,1.0899,1.2217,1.2333,1.4356,1.7026,1.7144,1.8169,1.9424,1.9424,1.9424,1.9477,1.9679,1.996,2.0254,2.0548,2.0848,2.1076,2.1102,2.1109,2.1109,2.1109,2.1109,2.1109,2.1109,1.9871,1.8768,1.8768,1.7339,1.5654,1.4036,1.3648,1.2997,1.1439,1.1045,1.0916,1.0916,1.0784,1.0721,1.0721,1.0721,1.1439,1.3128,1.3451,1.4944,1.8314,1.864,1.9477,2.1046,1.961,1.7923,1.6172,1.6113,1.6048,1.5913,1.5913,1.5913,1.5913,1.5913,1.5913,0.0,0.0,0.0,0.0,0.0,0.0,0.0,0.0,0.0,0.0,0.0,0.0,0.0,0.7965,0.8294,0.9406,0.9805,1.0725,1.2764,1.3536,1.4262,1.5289,1.5635,1.5683,1.5439,1.422,1.2909,1.1604,1.0332,0.9176,0.8139,0.9174,0.9819,0.9819,1.097,1.1722,1.1933,1.3398,1.442,1.4984,1.6446,1.7305,1.7582,1.7582,1.7582,1.7595,1.7889,1.809,1.8079,1.658,1.5272,1.4049,1.2333,1.1916,1.2333,1.3651,1.5311,1.7202,1.8467,1.9127,1.9424,1.9424,1.9424,1.9437,1.9446,1.9659,1.9953,2.0247,2.0541,2.0822,2.1049,2.1109,2.1109,2.1109,2.1109,2.1109,2.1109,2.0786,2.0526,2.0526,1.9158,1.7795,1.7468,1.6242,1.52,1.4814,1.3648,1.2738,1.2738,1.1567,1.0721,1.0721,1.0721,1.1439,1.3128,1.4553,1.6237,1.8378,1.9807,2.0722,2.1109,2.0722,1.9737,1.7988,1.7923,1.7275,1.5913,1.5913,1.5913,1.5913,1.5913,1.5913,0.0,0.0,0.0,0.0,0.0,0.0,0.0,0.0,0.0,0.0,0.0,0.0,0.0,0.8531,0.9167,0.9899,1.1068,1.2323,1.3728,1.4411,1.5051,1.573,1.5784,1.5784,1.5784,1.4657,1.359,1.2915,1.1653,1.0583,0.9899,1.0578,1.1024,1.1024,1.1877,1.2348,1.251,1.4014,1.4925,1.5235,1.6677,1.7501,1.7582,1.7582,1.7582,1.7589,1.7742,1.7889,1.7887,1.6666,1.5324,1.4086,1.3443,1.3259,1.3526,1.5133,1.6797,1.8286,1.9127,1.9424,1.9424,1.9424,1.9424,1.9424,1.9424,1.9573,1.986,2.0147,2.0448,2.0742,2.1036,2.1109,2.1109,2.1109,2.1109,2.1109,2.1109,2.1109,2.1109,2.1109,2.0392,1.9483,1.8634,1.7082,1.5913,1.5913,1.5139,1.4553,1.4553,1.3779,1.3193,1.3193,1.3193,1.3905,1.5654,1.663,1.7859,1.961,2.0589,2.1109,2.1109,2.1109,2.0652,1.9744,1.9737,1.9291,1.8378,1.8378,1.8378,1.8378,1.8378,1.8378,0.0,0.0,0.0,0.0,0.0,0.0,0.0,0.0,0.0,0.0,0.0,0.0,0.0,0.941,1.0386,1.0632,1.2474,1.3974,1.4214,1.514,1.5784,1.5784,1.5784,1.5784,1.5784,1.4854,1.4118,1.3926,1.2861,1.2139,1.1901,1.2139,1.2237,1.2237,1.261,1.2824,1.2917,1.4171,1.4972,1.5287,1.6594,1.7353,1.7582,1.7582,1.7582,1.7582,1.7582,1.7729,1.7862,1.6581,1.5445,1.4494,1.4572,1.4722,1.5081,1.6474,1.8046,1.9424,1.9424,1.9424,1.9424,1.9424,1.9424,1.9424,1.9424,1.9533,1.98,2.0134,2.0408,2.0681,2.1022,2.1109,2.1109,2.1109,2.1109,2.1109,2.1109,2.1109,2.1109,2.1109,2.1109,2.0652,1.9221,1.7731,1.6824,1.6824,1.6565,1.6366,1.6366,1.6108,1.5913,1.5913,1.5913,1.663,1.8378,1.8506,1.9221,2.0982,2.1109,2.1109,2.1109,2.1109,2.1109,2.1109,2.1109,2.1109,2.1109,2.1109,2.1109,2.1109,2.1109,2.1109,0.0,0.0,0.0,0.0,0.0,0.0,0.0,0.0,0.0,0.0,0.0,0.0,0.0,0.0,1.2042,1.3199,1.368,1.4268,1.5391,1.5683,1.5784,1.5784,1.5784,1.5784,1.5784,1.5635,1.5099,1.3974,1.3728,1.3151,1.1945,1.3006,1.3632,1.3632,1.4742,1.547,1.5765,1.5957,1.6219,1.6459,1.697,1.7353,1.7582,1.7582,1.7582,1.7582,1.7582,1.7609,1.7669,1.766,1.6806,1.557,1.6006,1.6189,1.631,1.6827,1.8046,1.9424,1.9424,1.9424,1.9424,1.9424,1.9424,1.9424,1.9424,1.9457,1.9539,2.008,2.02,2.0421,2.0969,2.1109,2.1109,2.1109,2.1109,2.1109,2.1109,2.1109,2.1109,2.1109,2.1109,2.1046,2.0779,2.0589,2.0392,2.0392,1.9094,1.818,1.818,1.6824,1.5913,1.5913,1.5913,1.663,1.8378,1.8506,1.9221,2.0982,2.1109,2.1109,2.1109,2.1109,2.1109,2.1109,2.1109,2.1109,2.1109,2.1109,2.1109,2.1109,2.1109,2.1109,0.0,0.0,0.0,0.0,0.0,0.0,0.0,0.0,0.0,0.0,0.0,0.0,0.0,0.0,1.223,1.3663,1.4507,1.5146,1.573,1.5784,1.5784,1.5784,1.5784,1.5784,1.5784,1.5784,1.5581,1.4997,1.4949,1.4711,1.4124,1.4657,1.4949,1.4949,1.5486,1.5892,1.6019,1.6025,1.6172,1.6466,1.6978,1.7266,1.7393,1.7508,1.7582,1.7582,1.7582,1.7582,1.7595,1.7729,1.6949,1.5852,1.7142,1.7151,1.6667,1.7882,1.8765,1.9424,1.9424,1.9424,1.9424,1.9424,1.9424,1.9424,1.9424,1.9424,1.9492,2.0067,2.0173,2.0368,2.0955,2.1109,2.1109,2.1109,2.1109,2.1109,2.1109,2.1109,2.1109,2.1109,2.1109,2.1109,2.1109,2.1109,2.1109,2.1109,2.0456,1.9941,1.9941,1.9285,1.8832,1.8832,1.8832,1.9094,1.9871,1.9941,2.0265,2.1046,2.1109,2.1109,2.1109,2.1109,2.1109,2.1109,2.1109,2.1109,2.1109,2.1109,2.1109,2.1109,2.1109,2.1109,0.0,0.0,0.0,0.0,0.0,0.0,0.0,0.0,0.0,0.0,0.0,0.0,0.0,0.0,0.0,1.3991,1.504,1.5806,1.6128,1.6243,1.6292,1.6292,1.6292,1.6157,1.5832,1.5784,1.5784,1.5784,1.5784,1.5784,1.5784,1.5784,1.5784,1.5784,1.5784,1.5784,1.5784,1.5784,1.5979,1.6328,1.7182,1.7622,1.7712,1.8008,1.8094,1.8094,1.7733,1.7582,1.7582,1.7582,1.7058,1.6356,1.789,1.7871,1.7218,1.8815,1.9424,1.9424,1.9424,1.9424,1.9424,1.9424,1.9424,1.9424,1.9424,1.9424,1.9472,1.998,2.0174,2.0347,2.0869,2.1056,2.1109,2.1109,2.1109,2.1109,2.1109,2.1109,2.1109,2.1109,2.1109,2.1109,2.1109,2.1109,2.1109,2.1109,2.1109,2.1109,2.1109,2.1109,2.1109,2.1109,2.1109,2.1109,2.1109,2.1109,2.1109,2.1109,2.1109,2.1109,2.1109,2.1109,2.1109,2.1109,2.1109,2.1109,2.1109,2.1109,2.1109,2.1109,2.1109,2.1109,0.0,0.0,0.0,0.0,0.0,0.0,0.0,0.0,0.0,0.0,0.0,0.0,0.0,0.0,0.0,1.4913,1.5192,1.5819,1.6964,1.7383,1.7598,1.7598,1.7598,1.7131,1.592,1.5784,1.5784,1.5784,1.5784,1.5784,1.5784,1.5784,1.5784,1.5784,1.5784,1.5784,1.5784,1.5784,1.5979,1.6321,1.7885,1.8793,1.9106,1.9383,1.948,1.9428,1.8146,1.7582,1.7582,1.7582,1.7536,1.7556,1.8257,1.8442,1.8466,1.9152,1.9424,1.9424,1.9424,1.9424,1.9424,1.9424,1.9424,1.9424,1.9424,1.9424,1.9432,1.9733,2.002,2.0301,2.0615,2.0902,2.1109,2.1109,2.1109,2.1109,2.1109,2.1109,2.1109,2.1109,2.1109,2.1109,2.1109,2.1109,2.1109,2.1109,2.1109,2.1109,2.1109,2.1109,2.1109,2.1109,2.1109,2.1109,2.1109,2.1109,2.1109,2.1109,2.1109,2.1109,2.1109,2.1109,2.1109,2.1109,2.1109,2.1109,2.1109,2.1109,2.1109,2.1109,2.1109,2.1109,0.0,0.0,0.0,0.0,0.0,0.0,0.0,0.0,0.0,0.0,0.0,0.0,0.0,0.0,0.0,0.0,1.5857,1.6723,1.7161,1.8177,1.8864,1.8864,1.8864,1.8365,1.7131,1.7037,1.6669,1.5872,1.5784,1.5784,1.5784,1.5784,1.5784,1.5784,1.5784,1.6197,1.699,1.7037,1.7463,1.8357,1.9115,1.9534,1.9621,1.9368,1.9219,1.9132,1.8064,1.7582,1.7582,1.7582,1.7582,1.7622,1.8043,1.8323,1.8537,1.8938,1.9205,1.9424,1.9424,1.9424,1.9424,1.9424,1.9424,1.9424,1.9424,1.8706,1.8102,1.9411,1.9131,1.8761,2.0295,2.0755,2.1188,2.2416,2.2952,2.3435,2.4101,2.2577,2.1109,2.1109,2.1109,2.1109,2.1109,2.1109,2.1109,2.1109,2.1109,2.1109,2.1109,2.1109,2.1109,2.1109,2.1109,2.1109,2.1109,2.1109,2.1109,2.1109,2.1109,2.1109,2.1109,2.1109,2.1109,2.1109,2.1109,2.1109,2.1109,2.1109,2.1109,2.1109,2.1109,2.1109,0.0,0.0,0.0,0.0,0.0,0.0,0.0,0.0,0.0,0.0,0.0,0.0,0.0,0.0,0.0,0.0,0.0,1.6965,1.7399,1.8868,1.9892,1.9892,2.0002,1.9625,1.8411,1.7963,1.7365,1.648,1.6062,0.0,1.5784,1.5784,1.5784,1.5784,1.6204,1.685,1.7684,1.8095,1.8726,1.9497,2.0231,2.0594,2.0581,2.0403,2.0329,2.0253,1.8875,1.8042,1.7582,1.7582,1.7582,1.7615,1.7923,1.8175,1.8524,1.8818,1.9112,1.9424,1.9424,1.9424,1.9424,1.9424,1.9424,1.9424,1.9424,1.8648,1.8083,1.9292,1.8989,1.8532,2.0031,2.0876,2.1688,2.3089,2.4063,2.4934,2.583,2.3861,2.1908,2.1908,2.1481,2.1109,2.1109,2.1109,2.1109,2.1109,2.1109,2.1109,2.1109,2.1109,2.1109,2.1109,2.1109,2.1109,2.1109,2.1109,2.1109,2.1109,2.1109,2.1109,2.1109,2.1109,2.1109,2.1109,2.1109,2.1109,2.1109,2.1109,2.1109,2.1109,2.1109,2.1109,0.0,0.0,0.0,0.0,0.0,0.0,0.0,0.0,0.0,0.0,0.0,0.0,0.0,0.0,0.0,0.0,0.0,1.6607,1.7837,1.9564,2.075,2.0759,2.1093,2.0881,1.967,1.8503,1.7777,1.7777,1.6574,1.5879,1.5879,1.5825,1.5825,1.5825,1.7037,1.7731,1.7824,1.8956,1.9588,1.9633,2.126,2.2007,2.2034,2.2661,2.2964,2.2854,2.0628,1.8902,1.7687,1.7635,1.7582,1.7609,1.7916,1.8217,1.851,1.8804,1.9098,1.9417,1.9424,1.9424,1.9424,1.9424,1.9424,1.9424,1.9424,1.9366,1.9366,1.9366,1.9566,1.9727,1.98,2.1128,2.2617,2.3051,2.4311,2.553,2.6006,2.4893,2.376,2.3698,2.2341,2.1172,2.1172,2.1109,2.1109,2.1109,2.1109,2.1109,2.1109,2.1109,2.1109,2.1109,2.1109,2.1109,2.1109,2.1109,2.1109,2.1109,2.1109,2.1109,2.1109,2.1109,2.1109,2.1109,2.1109,2.1109,2.1109,2.1109,2.1109,2.1109,2.1109,2.1109,0.3653,0.0,0.0,0.0,0.0,0.0,0.0,0.0,0.0,0.0,0.0,0.0,0.0,0.0,0.0,0.0,0.0,0.0,1.7971,2.0078,2.1686,2.1983,2.2117,2.1802,2.0908,2.0486,1.9943,0.0,1.7863,1.7178,1.7178,1.6292,1.6197,1.7131,1.7505,1.8549,2.0305,2.0621,2.1257,2.2094,2.258,2.2815,2.279,2.2346,2.2308,2.25,2.1205,1.9999,1.8961,1.7989,1.7582,1.7589,1.7675,1.7896,1.8203,1.8504,1.8798,1.9078,1.9292,1.9424,1.9424,1.9424,1.9424,1.9424,1.9424,1.8583,1.7923,1.9062,1.8641,1.8078,1.9437,2.1128,2.2848,2.4102,2.5789,2.744,2.8735,2.8032,2.672,2.5558,2.4047,2.2897,2.2897,2.1908,2.1109,2.1109,2.1109,2.1109,2.1109,2.1109,2.1109,2.1109,2.1109,2.1109,2.1109,2.1109,2.1109,2.1109,2.1109,2.1109,2.1109,2.1109,2.1109,2.1109,2.1109,2.1109,2.1109,2.1109,2.1109,2.1109,2.1109,2.1109,0.0,0.0,0.0,0.0,0.0,0.0,0.0,0.7885,0.0,0.0,0.0,0.0,0.0,0.0,0.0,0.0,0.0,0.0,0.0,2.0244,2.1699,2.1953,2.2139,2.2148,2.1839,2.1366,2.0846,2.0288,1.9131,1.8457,1.8457,1.7762,1.7669,1.8411,1.8956,1.9898,2.1293,2.18,2.2403,2.3091,2.3091,2.3091,2.311,2.2768,2.2852,2.3196,2.2224,2.1661,2.1202,1.9878,1.8655,1.7687,1.8199,1.8241,1.8029,1.8384,1.8677,1.8965,1.9265,1.9424,1.9424,1.9424,1.9424,1.9424,1.9424,1.8765,1.8221,1.9127,1.8706,1.8259,1.9331,2.135,2.3304,2.4474,2.6527,2.8596,2.9946,2.968,2.87,2.7288,2.5688,2.4417,2.369,2.2772,2.1915,2.1235,2.1727,2.2215,2.2459,2.2882,2.3124,2.3124,2.3124,2.2882,2.2215,2.216,2.1846,2.1172,2.1109,2.1109,2.1109,2.1109,2.1109,2.1109,2.1109,2.1109,2.1109,2.1109,2.1109,2.1109,2.1109,2.1109,0.0,0.0,0.0,0.0,0.0,0.0,0.6803,0.7781,0.8693,0.0,0.0,0.0,0.0,0.0,0.0,0.0,0.0,0.0,0.0,2.0148,2.1083,2.1181,2.1582,2.1982,2.2402,2.1455,2.0989,2.138,2.0369,1.9625,1.9497,1.9497,1.9534,1.9716,2.0755,2.1337,2.1525,2.2536,2.3091,2.3091,2.3091,2.3091,2.311,2.3545,2.3945,2.4273,2.3482,2.3347,2.3579,2.255,2.0436,1.7943,1.9117,1.8938,1.7975,1.833,1.8604,1.8871,1.9205,1.9261,1.908,1.9359,1.9307,1.9185,1.9366,1.9424,1.9424,1.9424,1.9424,1.9424,1.9424,2.1601,2.3904,2.4339,2.6725,2.9131,2.9893,3.0127,2.9891,2.8823,2.7348,2.5802,2.4363,2.3993,2.3387,2.1846,2.2889,2.4054,2.454,2.5436,2.5976,2.5976,2.5976,2.5436,2.4,2.3698,2.2959,2.1481,2.1229,2.1109,2.1109,2.1109,2.1109,2.1109,2.1109,2.1109,2.1109,2.1109,2.1109,2.1109,2.1109,2.1109,0.3142,0.0,0.0,0.0,0.0,0.0,0.5571,0.6498,0.7499,0.0,0.0,0.0,0.0,0.0,0.0,0.0,0.0,0.0,0.0,0.0,0.0,2.1112,2.1268,2.1533,2.1963,2.1784,2.1832,2.2246,2.144,2.0531,1.9534,1.9497,1.9943,2.0935,2.1159,2.1756,2.2721,2.3003,2.3091,2.3091,2.3091,2.3091,2.3091,2.3179,2.3506,2.3935,2.4069,2.3758,2.3232,2.4419,2.2676,1.922,1.948,1.8795,1.7709,1.8003,1.8156,1.8242,1.8824,1.8129,1.7338,1.8867,1.8525,1.7683,1.9004,1.9424,1.9424,1.9424,1.9424,1.9424,1.9424,2.1601,2.3838,2.3913,2.6462,2.8965,2.9131,2.9707,3.0101,2.9891,2.8799,2.7811,2.7512,2.6409,2.5436,2.5069,2.5314,2.5558,2.568,2.5855,2.5976,2.5976,2.5976,2.5855,2.5558,2.4355,2.345,2.3146,2.1853,2.1109,2.1109,2.1109,2.1109,2.1109,2.1109,2.1109,2.1109,2.1109,2.1109,2.1109,2.1109,2.1109,0.2754,0.0,0.0,0.4693,0.0,0.0,0.0,0.5937,0.6574,0.7908,0.9826,0.0,0.0,0.0,0.0,0.0,0.0,0.0,0.0,0.0,0.0,2.0205,2.0264,2.0518,2.1212,2.1271,2.1504,2.2148,2.2002,2.1646,2.1022,2.1212,2.1578,2.2173,2.2217,2.2492,2.3091,2.3091,2.3091,2.3091,2.3091,2.3091,2.3091,2.3091,2.3379,2.3809,2.4238,2.4275,2.4115,2.5247,2.4106,2.1558,2.0896,1.9826,1.8541,1.8131,1.7982,1.7947,1.7682,1.7106,1.6661,1.7726,1.7573,1.7325,1.8887,1.9424,1.9533,2.0314,2.0479,2.0644,2.1373,2.3271,2.4931,2.4931,2.6819,2.8662,2.8877,2.9424,2.9941,3.0156,2.99,2.9403,2.8545,2.7751,2.7142,2.6841,2.7022,2.7503,2.8367,2.8426,2.8426,2.8426,2.8426,2.8119,2.7263,2.5749,2.4479,2.3628,2.2034,2.1109,2.1109,2.1109,2.1109,2.1109,2.1109,2.1109,2.1109,2.1109,2.1109,2.1109,2.1109,2.1109,0.0,0.0,0.0,0.0,0.0,0.5007,0.0,0.0,0.0,0.7388,0.0,0.0,0.0,0.0,0.0,0.0,0.0,0.0,0.0,0.0,0.0,0.0,1.9062,1.9434,2.0165,2.0233,2.0596,2.1603,2.1865,2.2158,2.249,2.2789,2.3013,2.3091,2.3091,2.3091,2.3091,2.3091,2.3091,2.3091,2.3091,2.3091,2.3091,2.3091,2.333,2.3691,2.4111,2.4541,2.498,2.542,2.4846,2.3583,2.2206,2.0837,1.9457,1.8337,1.7902,1.7774,1.6643,1.6251,1.6382,1.6537,1.6968,1.7615,1.8991,1.9424,1.9707,2.1194,2.1586,2.1919,2.3431,2.4931,2.61,2.61,2.7222,2.8389,2.8721,2.9141,2.957,2.999,3.0449,3.0354,2.908,2.8852,2.8733,2.8307,2.8614,2.9344,3.0704,3.0889,3.0889,3.0889,3.0889,3.0333,2.8979,2.7134,2.5436,2.4116,2.2215,2.1109,2.1109,2.1109,2.1109,2.1109,2.1109,2.1109,2.1109,2.1109,2.1109,2.1109,2.1109,2.1109,0.0,0.0,0.0,0.0,0.5311,0.0,0.0,0.0,0.5927,0.5833,0.0,0.0,0.0,0.0,0.0,0.0,0.0,0.0,0.0,0.0,0.0,0.0,1.8262,1.8715,1.8812,1.8822,1.9375,2.0664,2.04,2.0889,2.2432,2.2559,2.2711,2.3081,2.3091,2.3091,2.3091,2.3091,2.3091,2.3091,2.3091,2.3091,2.3091,2.3091,2.312,2.3198,2.3672,2.4102,2.4521,2.4961,2.4572,2.3583,2.2206,2.0837,1.9428,1.8135,1.7635,1.7457,1.6362,1.5875,1.5829,1.6213,1.739,1.8783,1.9228,1.9424,1.9707,2.1194,2.1586,2.1919,2.3431,2.4931,2.61,2.61,2.7222,2.8301,2.8359,2.8691,2.9121,2.956,2.999,3.0343,3.0577,3.0635,3.0587,3.0518,3.0577,3.0704,3.0889,3.0889,3.0889,3.0889,3.0889,3.083,3.0645,2.7751,2.5915,2.5741,2.282,2.1109,2.1109,2.1109,2.1109,2.1109,2.1109,2.1109,2.1109,2.1109,2.1109,2.1109,2.1109,2.1109,0.0,0.0,0.0,0.0,0.0,0.0,0.4819,0.0,0.5262,0.0,0.0,0.0,0.0,0.0,0.0,0.0,0.0,0.0,0.0,0.0,0.0,0.0,0.0,0.0,1.7447,1.7944,1.8594,1.9385,1.9512,2.0088,2.1318,2.21,2.2598,2.2773,2.2974,2.3091,2.3091,2.3091,2.3091,2.3091,2.3091,2.3091,2.3091,2.3091,2.3091,2.312,2.3603,2.3896,2.4102,2.4785,2.4382,2.3211,2.2122,2.0837,1.942,1.8094,1.7582,1.7384,1.6089,1.5627,1.5771,1.628,1.7534,1.8978,1.9279,1.9982,2.0981,2.2484,2.3495,2.4561,2.6,2.6888,2.7394,2.7394,2.7843,2.8291,2.8291,2.8828,2.9346,2.9531,3.0127,3.0664,3.0859,3.0889,3.0889,3.0889,3.0889,3.0889,3.0889,3.0889,3.0889,3.0889,3.0889,3.0889,3.0889,2.8733,2.7013,2.6037,2.2944,2.1109,2.1109,2.1109,2.1109,2.1109,2.1109,2.1109,2.1109,2.1109,2.1109,2.1109,2.1109,2.1109,0.3303,0.0,0.0,0.0,0.0,0.0,0.0,0.0,0.0,0.0,0.0,0.0,0.0,0.0,0.0,0.0,0.0,0.0,0.0,0.0,0.0,0.0,0.0,0.0,0.0,1.6971,1.7438,1.8057,1.8184,1.8857,2.0341,2.1396,2.2139,2.25,2.2877,2.3091,2.3091,2.3091,2.3091,2.3091,2.3091,2.3091,2.3091,2.3091,2.3091,2.311,2.3477,2.3682,2.3838,2.4463,2.3823,2.2376,2.1745,2.0503,1.8916,1.7943,1.7582,1.7364,1.5902,1.5487,1.5781,1.6626,1.7748,1.8858,1.9158,2.0358,2.1919,2.3375,2.4893,2.6463,2.7906,2.8291,2.8291,2.8291,2.8291,2.8291,2.8291,2.8867,2.9434,2.9607,3.0185,3.0742,3.0869,3.0889,3.0889,3.0889,3.0889,3.0889,3.0889,3.0889,3.0889,3.0889,3.0889,3.0889,3.0889,2.9344,2.7512,2.5436,2.3131,2.1601,2.1109,2.1109,2.1109,2.1109,2.1109,2.1109,2.1109,2.1109,2.1109,2.1109,2.1109,2.1109,0.0,0.0,0.0,0.5272,0.0,0.0,0.0,0.0,0.524,0.0,0.0,0.0,0.0,0.0,0.0,0.0,0.0,0.0,0.0,0.0,0.0,0.0,0.0,0.0,0.0,1.5662,1.5634,0.0,1.5976,1.6816,1.9775,2.0371,2.1251,2.2471,2.2877,2.3091,2.3091,2.3091,2.3091,2.3091,2.3091,2.3091,2.3091,2.3091,2.3091,2.3091,2.311,2.3398,2.3789,2.3818,2.273,2.1057,2.1016,1.9641,1.7687,1.7635,1.7582,1.7364,1.5902,1.5423,1.5696,1.7417,1.8215,1.8557,1.8844,2.0182,2.1919,2.3375,2.4931,2.6436,2.7897,2.8291,2.8291,2.8291,2.8291,2.8291,2.8291,2.8633,2.9062,2.9482,2.9922,3.0361,3.081,3.0889,3.0889,3.0889,3.0889,3.0889,3.0889,3.0889,3.0889,3.0889,3.0889,3.0889,3.0889,2.9344,2.703,2.3876,2.3574,2.2772,2.1172,2.1109,2.1109,2.1109,2.1109,2.1109,2.1109,2.1109,2.1109,2.1109,2.1109,2.1109,0.0,0.0,0.5999,0.6513,0.0,0.0,0.0,0.0,0.0,0.0,0.0,0.0,0.0,0.0,0.0,0.0,0.0,0.0,0.0,0.0,0.0,0.0,0.0,0.0,0.0,0.0,0.0,0.0,1.585,0.0,1.8555,1.9901,2.0908,2.16,2.3069,2.3956,2.4211,2.4211,2.4211,2.4211,2.4211,2.4211,2.4253,2.501,2.5358,2.5316,2.4542,2.4303,2.4423,2.3964,2.3083,2.1848,2.1252,2.0132,1.8812,1.7943,1.7582,1.7529,1.7041,1.6876,1.698,1.7727,1.825,1.8544,1.8838,2.084,2.3151,2.3654,2.5608,2.7672,2.8184,2.8291,2.8291,2.8291,2.8291,2.8291,2.8291,2.8848,2.9394,2.9597,3.0166,3.0703,3.0859,3.0889,3.0889,3.0889,3.0889,3.0889,3.0889,3.0889,3.0889,3.0889,3.0889,3.0889,3.0889,2.9344,2.7503,2.5322,2.4178,2.2834,2.1172,2.1109,2.1109,2.1109,2.1109,2.1109,2.1109,2.1109,2.1109,2.1109,2.1109,2.1664,0.8348,0.8221,0.0,0.8084,0.7605,0.0,0.6296,0.0,0.6704,0.0,0.0,0.0,0.0,0.0,0.0,0.0,0.0,0.0,0.0,1.602,0.0,0.0,0.0,0.0,0.0,0.0,1.4966,1.4949,1.5361,0.0,0.0,1.9611,2.1016,2.1779,2.3673,2.4947,2.542,2.542,2.542,2.542,2.542,2.542,2.542,2.6182,2.6265,2.5839,2.5126,2.4585,2.4145,2.3737,2.3106,2.2292,2.1223,2.0324,1.942,1.8094,1.7582,1.7582,1.7582,1.7582,1.7615,1.7816,1.809,1.8384,1.8684,2.1056,2.3657,2.3789,2.5945,2.8291,2.8291,2.8291,2.8291,2.8291,2.8291,2.8291,2.8291,2.8965,2.9626,2.9626,3.0283,3.0889,3.0889,3.0889,3.0889,3.0889,3.0889,3.0889,3.0889,3.0889,3.0889,3.0889,3.0889,3.0889,3.0889,2.9903,2.8605,2.6953,2.5871,2.4594,2.2937,2.282,2.282,2.282,2.282,2.282,2.282,2.2278,2.2271,2.282,2.2278,2.3193]}]]